[[{"header":{"parameterUnit":"m.s-1","parameterCategory":1,"la1":31.0,"la2":29.5877,"lo1":-88.7671,"lo2":-86.6584,"dy":0.0162,"dx":0.0185,"nx":115,"ny":88,"refTime":"2023-08-18T06:00:00:Z","depth":0,"parameterNumber":2,"parameterNumberName":"U-component_of_WINDS"},"data":[0.0,0.0,0.0,0.0,0.0,0.0,0.0,0.0,0.0,0.0,0.0,0.0,0.0,0.0,0.0,0.0,0.0,0.0,0.0,0.0,0.0,0.0,0.0,0.0,0.0,0.0,0.0,0.0,0.0,0.0,0.0,0.0,0.0,0.0,0.0,0.0,0.0,0.0,0.0,0.0,0.0,0.0,0.0,0.0,0.0,0.0,0.0,0.0,0.0,0.0,0.0,0.0,0.0,0.0,0.0,0.0,0.0,0.0,0.0,0.0,0.0,0.0,0.0,0.0,0.0,0.0,0.0,0.0,0.0,0.0,0.0,0.0,0.0,0.0,0.0,0.0,0.0,0.0,0.0,0.0,0.0,0.0,0.0,0.0,0.0,0.0,0.0,0.0,0.0,0.0,0.0,0.0,0.0,0.0,0.0,0.0,0.0,0.0,0.0,0.0,0.0,0.0,0.0,0.0,0.0,0.0,0.0,0.0,0.0,0.0,0.0,0.0,0.0,0.0,0.0,0.0,0.0,0.0,0.0,0.0,0.0,0.0,0.0,0.0,0.0,0.0,0.0,0.0,0.0,0.0,0.0,0.0,0.0,0.0,0.0,0.0,0.0,0.0,0.0,0.0,0.0,0.0,0.0,0.0,0.0,0.0,0.0,0.0,0.0,0.0,0.0,0.0,0.0,0.0,0.0,0.0,0.0,0.0,0.0,0.0,0.0,0.0,0.0,0.0,0.0,0.0,0.0,0.0,0.0,0.0,0.0,0.0,0.0,0.0,0.0,0.0,0.0,0.0,0.0,0.0,0.0,0.0,0.0,0.0,0.0,0.0,0.0,0.0,0.0,0.0,0.0,0.0,0.0,0.0,0.0,0.0,0.0,0.0,0.0,0.0,0.0,0.0,0.0,0.0,0.0,0.0,0.0,0.0,0.0,0.0,0.0,0.0,0.0,0.0,0.0,0.0,0.0,0.0,0.0,0.0,0.0,0.0,0.0,0.0,0.0,0.0,0.0,0.0,0.0,0.0,0.0,0.0,0.0,0.0,0.0,0.0,0.0,0.0,0.0,0.0,0.0,0.0,0.0,0.0,0.0,0.0,0.0,0.0,0.0,0.0,0.0,0.0,0.0,0.0,0.0,0.0,0.0,0.0,0.0,0.0,0.0,0.0,0.0,0.0,0.0,0.0,0.0,0.0,0.0,0.0,0.0,0.0,0.0,0.0,0.0,0.0,0.0,0.0,0.0,0.0,0.0,0.0,0.0,0.0,0.0,0.0,0.0,0.0,0.0,0.0,0.0,0.0,0.0,0.0,0.0,0.0,0.0,0.0,0.0,0.0,0.0,0.0,0.0,0.0,0.0,0.0,0.0,0.0,0.0,0.0,0.0,0.0,0.0,0.0,0.0,0.0,0.0,0.0,0.0,0.0,0.0,0.0,0.0,0.0,0.0,0.0,0.0,0.0,0.0,0.0,0.0,0.0,0.0,0.0,0.0,0.0,0.0,0.0,0.0,0.0,0.0,0.0,0.0,0.0,0.0,0.0,0.0,0.0,0.0,0.0,0.0,0.0,0.0,0.0,0.0,0.0,0.0,0.0,0.0,0.0,0.0,0.0,0.0,0.0,0.0,0.0,0.0,0.0,0.0,0.0,0.0,0.0,0.0,0.0,0.0,0.0,0.0,0.0,0.0,0.0,0.0,0.0,0.0,0.0,0.0,0.0,0.0,0.0,0.0,0.0,0.0,0.0,0.0,0.0,0.0,0.0,0.0,0.0,0.0,0.0,0.0,0.0,0.0,0.0,0.0,0.0,0.0,0.0,0.0,0.0,0.0,0.0,0.0,0.0,0.0,0.0,0.0,0.0,0.0,0.0,0.0,0.0,0.0,0.0,0.0,0.0,0.0,0.0,0.0,0.0,0.0,0.0,0.0,0.0,0.0,0.0,0.0,0.0,0.0,0.0,0.0,0.0,0.0,0.0,0.0,0.0,0.0,0.0,0.0,0.0,0.0,0.0,0.0,0.0,0.0,0.0,0.0,0.0,0.0,0.0,0.0,0.0,0.0,0.0,0.0,0.0,0.0,0.0,0.0,0.0,0.0,0.0,0.0,0.0,0.0,0.0,0.0,0.0,0.0,0.0,0.0,0.0,0.0,0.0,0.0,0.0,0.0,0.0,0.0,0.0,0.0,0.0,0.0,0.0,0.0,0.0,0.0,0.0,0.0,0.0,0.0,0.0,0.0,0.0,0.0,0.0,0.0,0.0,0.0,0.0,0.0,0.0,0.0,0.0,0.0,0.0,0.0,0.0,0.0,0.0,0.0,0.0,0.0,0.0,0.0,0.0,0.0,0.0,0.0,0.0,0.0,0.0,0.0,0.0,0.0,0.0,0.0,0.0,0.0,0.0,0.0,0.0,0.0,0.0,0.0,0.0,0.0,0.0,0.0,0.0,0.0,0.0,0.0,0.0,0.0,0.0,0.0,0.0,0.0,0.0,0.0,0.0,0.0,0.0,0.0,0.0,0.0,0.0,0.0,0.0,0.0,0.0,0.0,0.0,0.0,0.0,0.0,0.0,0.0,0.0,0.0,0.0,0.0,0.0,0.0,0.0,0.0,0.0,0.0,0.0,0.0,0.0,0.0,0.0,0.0,0.0,0.0,0.0,0.0,0.0,0.0,0.0,0.0,0.0,0.0,0.0,0.0,0.0,0.0,0.0,0.0,0.0,0.0,0.0,0.0,0.0,0.0,0.0,0.0,0.0,0.0,0.0,0.0,0.0,0.0,0.0,0.0,0.0,0.0,0.0,0.0,0.0,0.0,0.0,0.0,0.0,0.0,0.0,0.0,0.0,0.0,0.0,0.0,0.0,0.0,0.0,0.0,0.0,0.0,0.0,0.0,0.0,0.0,0.0,0.0,0.0,0.0,0.0,0.0,0.0,0.0,0.0,0.0,0.0,0.0,0.0,0.0,0.0,0.0,0.0,0.0,0.0,0.0,0.0,0.0,0.0,0.0,0.0,0.0,0.0,0.0,0.0,0.0,0.0,0.0,0.0,0.0,0.0,0.0,0.0,0.0,0.0,0.0,0.0,0.0,0.0,0.0,0.0,0.0,0.0,0.0,0.0,0.0,0.0,0.0,0.0,0.0,0.0,0.0,0.0,0.0,0.0,0.0,0.0,0.0,0.0,0.0,0.0,0.0,0.0,0.0,0.0,0.0,0.0,0.0,0.0,0.0,0.0,0.0,0.0,0.0,0.0,0.0,0.0,0.0,0.0,0.0,0.0,0.0,0.0,0.0,0.0,0.0,0.0,0.0,0.0,0.0,0.0,0.0,0.0,0.0,0.0,0.0,0.0,0.0,0.0,0.0,0.0,0.0,0.0,0.0,0.0,0.0,0.0,0.0,0.0,0.0,0.0,0.0,0.0,0.0,0.0,0.0,0.0,0.0,0.0,0.0,0.0,0.0,0.0,0.0,0.0,0.0,0.0,0.0,0.0,0.0,0.0,0.0,0.0,0.0,0.0,0.0,0.0,0.0,0.0,0.0,0.0,0.0,0.0,0.0,0.0,0.0,0.0,0.0,0.0,0.0,0.0,0.0,0.0,0.0,0.0,0.0,0.0,0.0,0.0,0.0,0.0,0.0,0.0,0.0,0.0,0.0,0.0,0.0,0.0,0.0,0.0,0.0,0.0,0.0,0.0,0.0,0.0,0.0,0.0,0.0,0.0,0.0,0.0,0.0,0.0,0.0,0.0,0.0,0.0,0.0,0.0,0.0,0.0,0.0,0.0,0.0,0.0,0.0,0.0,0.0,0.0,0.0,0.0,0.0,0.0,0.0,0.0,0.0,0.0,0.0,0.0,0.0,0.0,0.0,0.0,0.0,0.0,0.0,0.0,0.0,0.0,0.0,0.0,0.0,0.0,0.0,0.0,0.0,0.0,0.0,0.0,0.0,0.0,0.0,0.0,0.0,0.0,0.0,0.0,0.0,0.0,0.0,0.0,0.0,0.0,0.0,0.0,0.0,0.0,0.0,0.0,0.0,0.0,0.0,0.0,0.0,0.0,0.0,0.0,0.0,0.0,0.0,0.0,0.0,0.0,0.0,0.0,0.0,0.0,0.0,0.0,0.0,0.0,0.0,0.0,0.0,0.0,0.0,0.0,0.0,0.0,0.0,0.0,0.0,0.0,0.0,0.0,0.0,0.0,0.0,0.0,0.0,0.0,0.0,0.0,0.0,0.0,0.0,0.0,0.0,0.0,0.0,0.0,0.0,0.0,0.0,0.0,0.0,0.0,-0.3071,0.0,0.0,0.0,0.0,0.0,0.0,0.0,0.0,0.0,0.0,0.0,0.0,0.0,0.0,0.0,0.0,0.0,0.0,0.0,0.0,0.0,0.0,0.0,0.0,0.0,0.0,0.0,0.0,0.0,0.0,0.0,0.0,0.0,0.0,0.0,0.0,0.0,0.0,0.0,0.0,0.0,0.0,0.0,0.0,0.0,0.0,0.0,0.0,0.0,0.0,0.0,0.0,0.0,0.0,0.0,0.0,0.0,0.0,0.0,0.0,0.0,0.0,0.0,0.0,0.0,0.0,0.0,0.0,0.0,0.0,0.0,0.0,0.0,0.0,0.0,0.0,0.0,0.0,0.0,0.0,0.0,0.0,0.0,0.0,0.0,0.0,0.0,0.0,0.0,0.0,0.0,0.0,0.0,0.0,0.0,0.0,0.0,0.0,0.0,0.0,0.0,0.0,0.0,0.0,0.0,0.0,0.0,0.0,0.0,0.0,-0.4022,-0.3974,-0.4092,-0.3915,-0.3494,0.0,0.0,0.0,0.0,0.0,0.0,0.0,0.0,0.0,0.0,0.0,0.0,0.0,0.0,0.0,0.0,0.0,0.0,0.0,0.0,0.0,0.0,0.0,0.0,0.0,0.0,0.0,0.0,0.0,0.0,0.0,0.0,0.0,0.0,0.0,0.0,0.0,0.0,0.0,0.0,0.0,0.0,0.0,0.0,0.0,0.0,0.0,0.0,0.0,0.0,0.0,0.0,0.0,0.0,0.0,0.0,0.0,0.0,0.0,0.0,0.0,0.0,0.0,0.0,0.0,0.0,0.0,0.0,0.0,0.0,0.0,0.0,0.0,0.0,0.0,0.0,0.0,0.0,0.0,0.0,0.0,0.0,0.0,0.0,0.0,0.0,0.0,0.0,0.0,0.0,0.0,0.0,0.0,0.0,0.0,0.0,0.0,0.0,0.0,0.0,0.0,0.0,0.0,0.0,0.0,0.0,0.0,0.0,0.0,0.0,0.0,0.0,-0.4937,-0.4791,-0.4148,0.0,0.0,0.0,0.0,0.0,0.0,0.0,0.0,0.0,0.0,0.0,0.0,0.0,0.0,0.0,0.0,0.0,0.0,0.0,0.0,0.0,0.0,0.0,0.0,0.0,0.0,0.0,0.0,0.0,0.0,0.0,0.0,0.0,0.0,0.0,0.0,0.0,0.0,0.0,0.0,0.0,0.0,0.0,0.0,0.0,0.0,0.0,0.0,0.0,0.0,0.0,0.0,0.0,0.0,0.0,0.0,0.0,0.0,0.0,0.0,0.0,0.0,0.0,0.0,0.0,0.0,0.0,0.0,0.0,0.0,0.0,0.0,0.0,0.0,0.0,0.0,0.0,0.0,0.0,0.0,0.0,0.0,0.0,0.0,0.0,0.0,0.0,0.0,0.0,0.0,0.0,0.0,0.0,0.0,0.0,0.0,0.0,0.0,0.0,0.0,0.0,0.0,0.0,0.0,0.0,0.0,0.0,0.0,0.0,0.0,-0.4571,-0.5209,-0.5266,0.0,-0.5171,0.0,0.0,0.0,0.0,0.0,0.0,0.0,0.0,0.0,0.0,0.0,0.0,0.0,0.0,0.0,0.0,0.0,0.0,0.0,0.0,0.0,0.0,0.0,0.0,0.0,0.0,0.0,0.0,0.0,0.0,0.0,0.0,0.0,0.0,0.0,0.0,0.0,0.0,0.0,0.0,0.0,0.0,0.0,0.0,0.0,0.0,0.0,0.0,0.0,0.0,0.0,0.0,0.0,0.0,0.0,0.0,0.0,0.0,0.0,0.0,0.0,0.0,0.0,0.0,0.0,0.0,0.0,0.0,0.0,0.0,0.0,0.0,0.0,0.0,0.0,0.0,0.0,0.0,0.0,0.0,0.0,0.0,0.0,0.0,0.0,0.0,0.0,0.0,0.0,0.0,0.0,0.0,0.0,0.0,0.0,0.0,0.0,0.0,0.0,0.0,0.0,0.0,0.0,0.0,0.0,0.0,0.0,0.0,0.0,0.0,-0.5912,-0.6776,-0.6358,-0.5829,0.0,0.0,0.0,0.0,0.0,0.0,0.0,0.0,0.0,0.0,0.0,0.0,0.0,0.0,0.0,0.0,0.0,0.0,0.0,0.0,0.0,0.0,0.0,0.0,0.0,0.0,0.0,0.0,0.0,0.0,0.0,0.0,0.0,0.0,0.0,0.0,0.0,0.0,0.0,0.0,0.0,0.0,0.0,0.0,0.0,0.0,0.0,0.0,0.0,0.0,0.0,0.0,0.0,0.0,0.0,0.0,0.0,0.0,0.0,0.0,0.0,0.0,0.0,0.0,0.0,0.0,0.0,0.0,0.0,0.0,0.0,0.0,0.0,0.0,0.0,0.0,0.0,0.0,0.0,0.0,0.0,0.0,0.0,0.0,0.0,0.0,0.0,0.0,0.0,0.0,0.0,0.0,0.0,0.0,0.0,0.0,0.0,0.0,0.0,0.0,0.0,0.0,0.0,0.0,0.0,0.0,0.0,0.0,0.0,0.0,-0.691,-0.732,-0.8147,-0.751,-0.6669,-0.5759,0.0,0.0,0.0,0.0,0.0,0.0,0.0,0.0,0.0,0.0,0.0,0.0,0.0,0.0,0.0,0.0,0.0,0.0,0.0,0.0,0.0,0.0,0.0,0.0,0.0,0.0,0.0,0.0,0.0,0.0,0.0,0.0,0.0,0.0,0.0,0.0,0.0,0.0,0.0,0.0,0.0,0.0,0.0,0.0,0.0,0.0,0.0,0.0,0.0,0.0,0.0,0.0,0.0,0.0,0.0,0.0,0.0,0.0,0.0,0.0,0.0,0.0,0.0,0.0,0.0,0.0,0.0,0.0,0.0,0.0,0.0,0.0,0.0,0.0,0.0,0.0,0.0,0.0,0.0,0.0,0.0,0.0,0.0,0.0,0.0,0.0,0.0,0.0,0.0,0.0,0.0,0.0,0.0,0.0,0.0,0.0,0.0,0.0,0.0,0.0,0.0,0.0,0.0,0.0,0.0,0.0,0.0,0.0,-0.8561,-0.8293,-0.8516,-0.9235,-0.855,-0.7855,0.0,0.0,0.0,0.0,0.0,0.0,0.0,0.0,0.0,0.0,0.0,0.0,0.0,0.0,0.0,0.0,0.0,0.0,0.0,0.0,0.0,0.0,0.0,0.0,0.0,0.0,0.0,0.0,0.0,0.0,0.0,0.0,0.0,0.0,0.0,0.0,0.0,0.0,0.0,0.0,0.0,0.0,0.0,0.0,0.0,0.0,0.0,0.0,0.0,0.0,0.0,0.0,0.0,0.0,0.0,0.0,0.0,0.0,0.0,0.0,0.0,0.0,0.0,0.0,0.0,0.0,0.0,0.0,0.0,0.0,0.0,0.0,0.0,0.0,0.0,0.0,0.0,0.0,0.0,0.0,0.0,0.0,0.0,0.0,0.0,0.0,0.0,0.0,0.0,0.0,0.0,0.0,0.0,0.0,0.0,0.0,0.0,0.0,0.0,0.0,0.0,0.0,0.0,0.0,0.0,0.0,0.0,0.0,0.0,-0.8057,-0.8701,-0.9095,-0.9247,-0.8817,-0.8379,0.0,0.0,0.0,0.0,0.0,0.0,0.0,0.0,0.0,0.0,0.0,0.0,0.0,0.0,0.0,0.0,0.0,0.0,0.0,0.0,0.0,0.0,0.0,0.0,0.0,0.0,0.0,0.0,0.0,0.0,0.0,0.0,0.0,0.0,0.0,0.0,0.0,0.0,0.0,0.0,0.0,0.0,0.0,0.0,0.0,0.0,0.0,0.0,0.0,0.0,0.0,0.0,0.0,0.0,0.0,0.0,0.0,0.0,0.0,0.0,0.0,0.0,0.0,0.0,0.0,0.0,0.0,0.0,0.0,0.0,0.0,0.0,0.0,0.0,0.0,0.0,0.0,0.0,0.0,0.0,0.0,0.0,0.0,0.0,0.0,0.0,0.0,0.0,0.0,0.0,0.0,0.0,0.0,0.0,0.0,0.0,0.0,0.0,0.0,0.0,0.0,0.0,0.0,0.0,0.0,0.0,0.0,0.0,0.0,-0.863,0.0,-1.0435,-0.9862,-0.97,-0.9219,0.0,0.0,0.0,0.0,0.0,0.0,0.0,0.0,0.0,0.0,0.0,0.0,0.0,0.0,0.0,0.0,0.0,0.0,0.0,0.0,0.0,0.0,0.0,0.0,0.0,0.0,0.0,0.0,0.0,0.0,0.0,0.0,0.0,0.0,0.0,0.0,0.0,0.0,0.0,0.0,0.0,0.0,0.0,0.0,0.0,0.0,0.0,0.0,0.0,0.0,0.0,0.0,0.0,0.0,0.0,0.0,0.0,0.0,0.0,0.0,0.0,0.0,0.0,0.0,0.0,0.0,0.0,0.0,0.0,0.0,0.0,0.0,0.0,0.0,0.0,0.0,0.0,0.0,0.0,0.0,0.0,0.0,0.0,0.0,0.0,0.0,0.0,0.0,0.0,0.0,0.0,0.0,0.0,0.0,0.0,0.0,0.0,0.0,0.0,0.0,0.0,0.0,0.0,0.0,0.0,0.0,0.0,0.0,-0.895,-1.0541,-1.2191,-1.2398,-1.1256,-1.119,-1.0494,0.0,0.0,0.0,0.0,0.0,0.0,0.0,0.0,0.0,0.0,0.0,0.0,0.0,0.0,0.0,0.0,0.0,0.0,0.0,0.0,0.0,0.0,0.0,0.0,0.0,0.0,0.0,0.0,0.0,0.0,0.0,0.0,0.0,0.0,0.0,0.0,0.0,0.0,0.0,0.0,0.0,0.0,0.0,0.0,0.0,0.0,0.0,0.0,0.0,0.0,0.0,0.0,0.0,0.0,0.0,0.0,0.0,0.0,0.0,0.0,0.0,0.0,0.0,0.0,0.0,0.0,0.0,0.0,0.0,0.0,0.0,0.0,0.0,0.0,0.0,0.0,0.0,0.0,0.0,0.0,0.0,0.0,0.0,0.0,0.0,0.0,0.0,0.0,0.0,0.0,0.0,0.0,0.0,0.0,0.0,0.0,0.0,0.0,0.0,0.0,0.0,0.0,0.0,0.0,0.0,0.0,0.0,0.0,0.0,-1.1019,-1.1866,-1.2412,-1.2609,-1.1644,-1.0991,0.0,0.0,0.0,0.0,0.0,0.0,0.0,0.0,0.0,0.0,0.0,0.0,0.0,0.0,0.0,0.0,0.0,0.0,0.0,0.0,0.0,0.0,0.0,0.0,0.0,0.0,0.0,0.0,0.0,0.0,0.0,0.0,0.0,0.0,0.0,0.0,0.0,0.0,0.0,0.0,0.0,0.0,0.0,0.0,0.0,0.0,0.0,0.0,0.0,0.0,0.0,0.0,0.0,0.0,0.0,0.0,0.0,0.0,0.0,0.0,0.0,0.0,0.0,0.0,0.0,0.0,0.0,0.0,0.0,0.0,0.0,0.0,0.0,0.0,0.0,0.0,0.0,0.0,0.0,0.0,0.0,0.0,0.0,0.0,0.0,0.0,0.0,0.0,0.0,0.0,0.0,0.0,0.0,0.0,0.0,0.0,0.0,0.0,0.0,0.0,0.0,0.0,0.0,0.0,0.0,0.0,0.0,0.0,0.0,-1.2864,-1.3083,-1.3258,-1.3378,-1.2472,-1.1918,-1.1754,0.0,0.0,0.0,0.0,0.0,0.0,0.0,0.0,0.0,0.0,0.0,0.0,0.0,0.0,0.0,0.0,0.0,0.0,0.0,0.0,0.0,0.0,0.0,0.0,0.0,0.0,0.0,0.0,0.0,0.0,0.0,0.0,0.0,0.0,0.0,0.0,0.0,0.0,0.0,0.0,0.0,0.0,0.0,0.0,0.0,0.0,0.0,0.0,0.0,0.0,0.0,0.0,0.0,0.0,0.0,0.0,0.0,0.0,0.0,0.0,0.0,0.0,0.0,0.0,0.0,0.0,0.0,0.0,0.0,0.0,0.0,0.0,0.0,0.0,0.0,0.0,0.0,0.0,0.0,0.0,0.0,0.0,0.0,0.0,0.0,0.0,0.0,0.0,0.0,0.0,0.0,0.0,0.0,0.0,0.0,0.0,0.0,0.0,0.0,0.0,0.0,0.0,0.0,0.0,0.0,0.0,0.0,0.0,-1.5565,-1.557,-1.4985,-1.387,-1.3812,-1.3249,0.0,0.0,0.0,0.0,0.0,0.0,0.0,0.0,0.0,0.0,0.0,0.0,0.0,0.0,0.0,0.0,0.0,0.0,0.0,0.0,0.0,0.0,0.0,0.0,0.0,0.0,0.0,0.0,0.0,0.0,0.0,0.0,0.0,0.0,0.0,0.0,0.0,0.0,0.0,0.0,0.0,0.0,0.0,0.0,0.0,0.0,0.0,0.0,0.0,0.0,0.0,0.0,0.0,0.0,0.0,0.0,0.0,0.0,0.0,0.0,0.0,0.0,0.0,0.0,0.0,0.0,0.0,0.0,0.0,0.0,0.0,0.0,0.0,0.0,0.0,0.0,0.0,0.0,0.0,0.0,0.0,0.0,0.0,0.0,0.0,0.0,0.0,0.0,0.0,0.0,0.0,0.0,0.0,0.0,0.0,0.0,0.0,0.0,0.0,0.0,0.0,0.0,0.0,0.0,0.0,0.0,0.0,0.0,0.0,-1.5459,-1.6512,-1.7111,-1.7073,-1.586,-1.479,0.0,0.0,0.0,0.0,0.0,0.0,0.0,0.0,0.0,0.0,0.0,0.0,0.0,0.0,0.0,0.0,0.0,0.0,0.0,0.0,0.0,0.0,0.0,0.0,0.0,0.0,0.0,0.0,0.0,0.0,0.0,0.0,0.0,0.0,0.0,0.0,0.0,0.0,0.0,0.0,0.0,0.0,0.0,0.0,0.0,0.0,0.0,0.0,0.0,0.0,0.0,0.0,0.0,0.0,0.0,0.0,0.0,0.0,0.0,0.0,0.0,0.0,0.0,0.0,0.0,0.0,0.0,0.0,0.0,0.0,0.0,0.0,0.0,0.0,0.0,0.0,0.0,0.0,0.0,0.0,0.0,0.0,0.0,0.0,0.0,0.0,0.0,0.0,0.0,0.0,0.0,0.0,0.0,0.0,0.0,0.0,0.0,0.0,0.0,0.0,0.0,0.0,0.0,0.0,0.0,0.0,0.0,0.0,-1.6085,-1.6496,-1.7546,-1.8389,-1.8946,-1.7222,-1.592,0.0,0.0,0.0,0.0,0.0,0.0,0.0,0.0,0.0,0.0,0.0,0.0,0.0,0.0,0.0,0.0,0.0,0.0,0.0,0.0,0.0,0.0,0.0,0.0,0.0,0.0,0.0,0.0,0.0,0.0,0.0,0.0,0.0,0.0,0.0,0.0,0.0,0.0,0.0,0.0,0.0,0.0,0.0,0.0,0.0,0.0,0.0,0.0,0.0,0.0,0.0,0.0,0.0,0.0,0.0,0.0,0.0,0.0,0.0,0.0,0.0,0.0,0.0,0.0,0.0,0.0,0.0,0.0,0.0,0.0,0.0,0.0,0.0,0.0,0.0,0.0,0.0,0.0,0.0,0.0,0.0,0.0,0.0,0.0,0.0,0.0,0.0,0.0,0.0,0.0,0.0,0.0,0.0,0.0,0.0,0.0,0.0,0.0,0.0,0.0,0.0,0.0,0.0,0.0,0.0,0.0,0.0,0.0,-1.7376,-1.7995,-1.8478,-1.9007,-1.9538,-1.8107,-1.6822,0.0,0.0,0.0,0.0,0.0,0.0,0.0,0.0,0.0,0.0,0.0,0.0,0.0,0.0,0.0,0.0,0.0,0.0,0.0,0.0,0.0,0.0,0.0,0.0,0.0,0.0,0.0,0.0,0.0,0.0,0.0,0.0,0.0,0.0,0.0,0.0,0.0,0.0,0.0,0.0,0.0,0.0,0.0,0.0,0.0,0.0,0.0,0.0,0.0,0.0,0.0,0.0,0.0,0.0,0.0,0.0,0.0,0.0,0.0,0.0,0.0,0.0,0.0,0.0,0.0,0.0,0.0,0.0,0.0,0.0,0.0,0.0,0.0,0.0,0.0,0.0,0.0,0.0,0.0,0.0,0.0,0.0,0.0,0.0,0.0,0.0,0.0,0.0,0.0,0.0,0.0,0.0,0.0,0.0,0.0,0.0,0.0,0.0,0.0,0.0,0.0,0.0,0.0,0.0,0.0,0.0,0.0,0.0,-1.7437,-1.8002,-1.8547,-1.8931,-1.9057,-1.8714,-1.7846,0.0,0.0,0.0,0.0,0.0,0.0,0.0,0.0,0.0,0.0,0.0,0.0,0.0,0.0,0.0,0.0,0.0,0.0,0.0,0.0,0.0,0.0,0.0,0.0,0.0,0.0,0.0,0.0,0.0,0.0,0.0,0.0,0.0,0.0,0.0,0.0,0.0,0.0,0.0,0.0,0.0,0.0,0.0,0.0,0.0,0.0,0.0,0.0,-1.0635,0.0,0.0,0.0,0.0,0.0,0.0,0.0,0.0,0.0,0.0,0.0,0.0,0.0,0.0,0.0,0.0,0.0,0.0,0.0,0.0,0.0,0.0,0.0,0.0,0.0,0.0,0.0,0.0,0.0,0.0,0.0,0.0,0.0,0.0,0.0,0.0,0.0,0.0,0.0,0.0,0.0,0.0,0.0,0.0,0.0,0.0,0.0,0.0,0.0,0.0,0.0,0.0,0.0,0.0,0.0,0.0,0.0,0.0,0.0,-1.8447,-1.872,-1.924,-1.9396,-1.9144,-1.9413,-1.8672,0.0,0.0,0.0,0.0,0.0,0.0,0.0,0.0,0.0,0.0,0.0,0.0,0.0,0.0,0.0,0.0,0.0,0.0,0.0,0.0,0.0,0.0,0.0,0.0,0.0,0.0,0.0,0.0,0.0,0.0,0.0,0.0,0.0,0.0,0.0,0.0,0.0,0.0,0.0,0.0,0.0,0.0,0.0,0.0,0.0,0.0,0.0,0.0,0.0,0.0,0.0,0.0,0.0,0.0,0.0,0.0,0.0,0.0,0.0,0.0,0.0,0.0,0.0,0.0,0.0,0.0,0.0,0.0,0.0,0.0,0.0,0.0,0.0,0.0,0.0,0.0,0.0,0.0,0.0,0.0,0.0,0.0,0.0,0.0,0.0,0.0,0.0,0.0,0.0,0.0,0.0,0.0,0.0,0.0,0.0,0.0,0.0,0.0,0.0,0.0,0.0,0.0,0.0,0.0,0.0,0.0,0.0,-1.9015,-1.9483,-1.9626,-2.001,-1.9998,-1.9568,-1.9973,-1.9284,-1.7368,0.0,0.0,0.0,0.0,0.0,0.0,0.0,0.0,0.0,0.0,0.0,0.0,0.0,0.0,0.0,0.0,0.0,0.0,0.0,0.0,0.0,0.0,0.0,0.0,0.0,0.0,0.0,0.0,0.0,0.0,0.0,0.0,0.0,0.0,0.0,0.0,0.0,0.0,-1.0209,-1.1546,0.0,0.0,0.0,0.0,0.0,0.0,0.0,0.0,-1.349,0.0,0.0,0.0,0.0,0.0,0.0,0.0,0.0,0.0,0.0,0.0,0.0,0.0,0.0,0.0,0.0,0.0,0.0,0.0,0.0,0.0,0.0,0.0,0.0,0.0,0.0,0.0,0.0,0.0,0.0,0.0,0.0,0.0,0.0,0.0,0.0,0.0,0.0,0.0,0.0,0.0,0.0,0.0,0.0,0.0,0.0,0.0,0.0,0.0,0.0,0.0,0.0,0.0,0.0,0.0,0.0,-1.904,-1.9026,-1.9388,-2.0165,-2.0247,-2.0224,-2.0151,-1.9985,-1.9485,-1.8614,0.0,0.0,0.0,0.0,0.0,0.0,0.0,0.0,0.0,0.0,0.0,0.0,0.0,0.0,0.0,0.0,0.0,0.0,0.0,0.0,0.0,0.0,0.0,0.0,0.0,0.0,0.0,0.0,0.0,0.0,0.0,0.0,0.0,0.0,0.0,0.0,0.0,0.0,0.0,-1.379,-1.4741,0.0,0.0,0.0,0.0,0.0,0.0,0.0,0.0,-1.356,0.0,0.0,0.0,0.0,0.0,0.0,0.0,0.0,0.0,0.0,0.0,0.0,0.0,0.0,0.0,0.0,0.0,0.0,0.0,0.0,0.0,0.0,0.0,0.0,0.0,0.0,0.0,0.0,0.0,0.0,0.0,0.0,0.0,0.0,0.0,0.0,0.0,0.0,0.0,0.0,0.0,0.0,0.0,0.0,0.0,0.0,0.0,0.0,0.0,0.0,0.0,0.0,0.0,0.0,0.0,-1.9369,-1.9833,-2.0169,-2.0485,-2.0722,-2.0799,-2.0718,-2.0343,-1.9897,0.0,0.0,0.0,0.0,0.0,0.0,0.0,0.0,0.0,0.0,0.0,0.0,0.0,0.0,0.0,0.0,0.0,0.0,0.0,0.0,0.0,0.0,0.0,0.0,0.0,0.0,0.0,0.0,0.0,0.0,0.0,0.0,0.0,0.0,0.0,0.0,0.0,0.0,0.0,0.0,-1.5264,-1.6019,-1.6042,0.0,0.0,0.0,0.0,0.0,0.0,-1.5789,-1.5545,0.0,0.0,0.0,0.0,0.0,0.0,0.0,0.0,0.0,0.0,0.0,0.0,0.0,0.0,0.0,0.0,0.0,0.0,0.0,0.0,0.0,0.0,0.0,0.0,0.0,0.0,0.0,0.0,0.0,0.0,0.0,0.0,0.0,0.0,0.0,0.0,0.0,0.0,0.0,0.0,0.0,0.0,0.0,0.0,0.0,0.0,0.0,0.0,0.0,0.0,0.0,0.0,0.0,0.0,0.0,-1.9531,-2.0384,-2.0696,-2.0596,-2.0983,-2.1114,-2.1046,-2.0637,-2.0355,0.0,0.0,0.0,0.0,0.0,0.0,0.0,0.0,0.0,0.0,0.0,0.0,0.0,0.0,0.0,0.0,0.0,0.0,0.0,0.0,0.0,0.0,0.0,0.0,0.0,0.0,0.0,0.0,0.0,0.0,0.0,0.0,0.0,0.0,0.0,0.0,0.0,0.0,0.0,0.0,0.0,-1.7345,-1.7307,-1.7881,0.0,0.0,0.0,0.0,-1.7851,-1.7774,0.0,0.0,0.0,0.0,0.0,0.0,0.0,0.0,0.0,0.0,0.0,0.0,0.0,0.0,0.0,0.0,0.0,0.0,0.0,0.0,0.0,0.0,0.0,0.0,0.0,0.0,0.0,0.0,0.0,0.0,0.0,0.0,0.0,0.0,0.0,0.0,0.0,0.0,0.0,0.0,0.0,0.0,0.0,0.0,0.0,0.0,0.0,0.0,0.0,0.0,0.0,0.0,0.0,0.0,0.0,0.0,-1.913,-1.9737,-2.0046,-2.011,-2.0514,-2.0748,-2.076,-2.0688,-2.0653,0.0,0.0,0.0,0.0,0.0,0.0,0.0,0.0,0.0,0.0,0.0,0.0,0.0,0.0,0.0,0.0,0.0,0.0,0.0,0.0,0.0,0.0,0.0,0.0,0.0,0.0,0.0,0.0,0.0,0.0,0.0,0.0,0.0,0.0,0.0,0.0,0.0,0.0,0.0,0.0,0.0,-1.9509,-1.8549,-1.9692,-2.0661,0.0,0.0,-1.9169,-1.986,-1.9368,0.0,0.0,0.0,0.0,0.0,0.0,0.0,0.0,0.0,0.0,0.0,0.0,0.0,0.0,0.0,0.0,0.0,0.0,0.0,0.0,0.0,0.0,0.0,0.0,0.0,0.0,0.0,0.0,0.0,0.0,0.0,0.0,0.0,0.0,0.0,0.0,0.0,0.0,0.0,0.0,0.0,0.0,0.0,0.0,0.0,0.0,0.0,0.0,0.0,0.0,0.0,0.0,0.0,0.0,0.0,-1.801,-1.9074,-1.9988,-2.0281,-1.9927,-2.0067,-2.0284,-2.0465,-1.9662,-1.9488,0.0,0.0,0.0,0.0,0.0,0.0,0.0,0.0,0.0,0.0,0.0,0.0,0.0,0.0,0.0,0.0,0.0,0.0,0.0,0.0,0.0,0.0,0.0,0.0,0.0,0.0,0.0,0.0,0.0,0.0,0.0,0.0,0.0,0.0,0.0,0.0,0.0,0.0,0.0,0.0,0.0,0.0,-2.0374,-2.1165,0.0,0.0,0.0,-2.0704,-2.1033,0.0,0.0,0.0,0.0,0.0,0.0,0.0,0.0,0.0,0.0,0.0,0.0,0.0,0.0,0.0,0.0,0.0,0.0,0.0,0.0,0.0,0.0,0.0,0.0,0.0,0.0,0.0,0.0,0.0,0.0,0.0,0.0,0.0,0.0,0.0,0.0,0.0,0.0,0.0,0.0,0.0,0.0,0.0,0.0,0.0,0.0,0.0,0.0,0.0,0.0,0.0,0.0,0.0,0.0,0.0,0.0,0.0,-1.8879,-1.9994,-2.0187,-1.946,-1.9443,-1.9516,-1.9641,-1.859,0.0,0.0,0.0,0.0,0.0,0.0,0.0,0.0,0.0,0.0,0.0,0.0,0.0,0.0,0.0,0.0,0.0,0.0,0.0,0.0,0.0,0.0,0.0,0.0,0.0,0.0,0.0,-1.0972,0.0,0.0,0.0,0.0,0.0,0.0,0.0,0.0,0.0,0.0,0.0,0.0,0.0,0.0,-2.1339,-2.165,-2.2025,-2.2346,0.0,0.0,-2.1879,-2.198,-2.1815,-2.1438,0.0,0.0,0.0,0.0,0.0,0.0,0.0,0.0,0.0,0.0,0.0,0.0,0.0,0.0,0.0,0.0,0.0,0.0,0.0,0.0,0.0,0.0,0.0,0.0,0.0,0.0,0.0,0.0,0.0,0.0,0.0,0.0,0.0,0.0,0.0,0.0,0.0,0.0,0.0,0.0,0.0,0.0,0.0,0.0,0.0,0.0,0.0,0.0,0.0,0.0,0.0,0.0,0.0,0.0,0.0,-1.8285,-1.9201,-1.9306,-1.8531,-1.8478,-1.8302,-1.7874,-1.7781,-1.7823,0.0,0.0,0.0,0.0,0.0,0.0,0.0,0.0,0.0,0.0,0.0,0.0,0.0,0.0,0.0,0.0,0.0,0.0,0.0,0.0,0.0,0.0,0.0,0.0,0.0,0.0,0.0,0.0,0.0,0.0,0.0,0.0,0.0,0.0,0.0,0.0,0.0,0.0,0.0,0.0,0.0,-2.1659,-2.1687,-2.2025,-2.2593,0.0,0.0,-2.2373,-2.2767,-2.3096,-2.2684,-2.0781,0.0,0.0,0.0,0.0,0.0,0.0,0.0,0.0,0.0,0.0,0.0,0.0,0.0,0.0,0.0,0.0,0.0,0.0,0.0,0.0,0.0,0.0,0.0,0.0,0.0,0.0,0.0,0.0,0.0,0.0,0.0,0.0,0.0,0.0,0.0,0.0,0.0,0.0,0.0,0.0,0.0,0.0,0.0,0.0,0.0,0.0,0.0,0.0,0.0,0.0,0.0,0.0,0.0,-1.7513,-1.8182,-1.8922,-1.9012,-1.8392,-1.8123,-1.7874,-1.7709,-1.7191,-1.6915,0.0,0.0,0.0,0.0,0.0,0.0,0.0,0.0,0.0,0.0,0.0,0.0,0.0,0.0,0.0,0.0,0.0,0.0,0.0,0.0,0.0,0.0,0.0,0.0,0.0,0.0,0.0,0.0,-1.1602,-1.1615,-1.1866,0.0,0.0,0.0,0.0,0.0,0.0,0.0,0.0,0.0,0.0,-2.1185,-2.198,-2.24,0.0,0.0,-2.3023,-2.2629,-2.2538,-2.2446,-2.187,-2.0351,-2.0063,0.0,0.0,0.0,0.0,0.0,0.0,0.0,0.0,0.0,0.0,0.0,0.0,0.0,0.0,0.0,0.0,0.0,0.0,0.0,0.0,0.0,0.0,0.0,0.0,0.0,0.0,0.0,0.0,0.0,0.0,0.0,0.0,0.0,0.0,0.0,0.0,0.0,0.0,0.0,0.0,0.0,0.0,0.0,0.0,0.0,0.0,0.0,0.0,0.0,0.0,0.0,0.0,-1.698,-1.8072,-1.8627,-1.8654,-1.8195,-1.7854,-1.7575,-1.7285,-1.657,-1.6205,0.0,0.0,0.0,0.0,0.0,0.0,0.0,0.0,0.0,0.0,0.0,0.0,0.0,0.0,0.0,0.0,0.0,0.0,0.0,0.0,0.0,0.0,0.0,0.0,0.0,0.0,0.0,0.0,-1.2037,-1.206,-1.2392,0.0,0.0,0.0,0.0,0.0,0.0,0.0,0.0,0.0,0.0,-2.0403,-2.1713,-2.211,-2.2528,-2.3213,-2.2977,-2.2584,-2.2172,-2.2071,-2.1559,-2.0122,0.0,0.0,0.0,0.0,0.0,0.0,0.0,0.0,0.0,0.0,0.0,0.0,0.0,0.0,0.0,0.0,0.0,0.0,0.0,0.0,0.0,0.0,0.0,0.0,0.0,0.0,0.0,0.0,0.0,0.0,-1.5941,0.0,0.0,0.0,0.0,0.0,0.0,0.0,0.0,0.0,0.0,0.0,0.0,0.0,0.0,0.0,0.0,0.0,0.0,0.0,0.0,0.0,0.0,-1.684,-1.7896,-1.8195,-1.8137,-1.774,-1.7709,-1.7285,-1.6496,-1.5949,-1.5711,-1.5711,0.0,0.0,0.0,0.0,0.0,0.0,0.0,0.0,0.0,0.0,0.0,0.0,0.0,0.0,0.0,0.0,0.0,0.0,0.0,0.0,0.0,0.0,0.0,0.0,0.0,0.0,-1.2285,-1.2087,-1.2141,0.0,0.0,0.0,0.0,0.0,0.0,0.0,0.0,0.0,0.0,-1.7847,-1.9339,-2.0725,-2.0941,-2.1386,-2.2688,-2.2528,-2.2172,-2.1752,-2.2309,-2.2199,0.0,0.0,0.0,0.0,0.0,0.0,0.0,0.0,0.0,0.0,0.0,0.0,0.0,0.0,0.0,0.0,0.0,0.0,0.0,0.0,0.0,0.0,0.0,0.0,0.0,0.0,0.0,-1.877,-1.8798,0.0,0.0,0.0,0.0,0.0,0.0,0.0,0.0,0.0,0.0,0.0,-1.4901,-1.5174,0.0,0.0,0.0,0.0,0.0,0.0,0.0,0.0,0.0,0.0,0.0,0.0,-1.6961,-1.749,-1.7873,-1.793,-1.7556,-1.6992,-1.6616,-1.6405,-1.565,-1.524,-1.524,0.0,0.0,0.0,0.0,0.0,0.0,0.0,0.0,0.0,0.0,0.0,0.0,0.0,0.0,0.0,0.0,0.0,0.0,0.0,0.0,0.0,0.0,0.0,0.0,0.0,-1.2529,0.0,0.0,0.0,0.0,0.0,0.0,0.0,0.0,0.0,0.0,0.0,-1.5308,-1.625,-1.7266,-1.8326,-1.9372,-1.9731,-2.0225,0.0,0.0,0.0,0.0,0.0,0.0,0.0,0.0,0.0,0.0,0.0,0.0,0.0,0.0,-1.8036,-1.6667,-1.6259,-1.6099,-1.5992,0.0,0.0,0.0,0.0,0.0,0.0,0.0,0.0,0.0,0.0,0.0,0.0,0.0,0.0,-1.9177,0.0,-1.8514,0.0,0.0,0.0,0.0,0.0,0.0,0.0,0.0,-1.5626,-1.5289,-1.4612,-1.5038,-1.5053,0.0,-1.4924,-1.4996,0.0,0.0,0.0,0.0,0.0,0.0,0.0,0.0,-1.6853,-1.7141,-1.7244,-1.7232,-1.7019,-1.6351,-1.5959,-1.5866,-1.5151,-1.4661,-1.4515,-1.422,-1.4242,0.0,0.0,0.0,0.0,0.0,0.0,0.0,0.0,0.0,0.0,0.0,0.0,0.0,0.0,0.0,0.0,0.0,0.0,0.0,0.0,0.0,0.0,0.0,-1.2904,0.0,0.0,0.0,0.0,0.0,0.0,0.0,0.0,0.0,-1.4432,-1.4643,-1.5187,-1.6246,-1.6757,-1.7428,-1.8431,0.0,0.0,0.0,0.0,0.0,0.0,0.0,-1.9851,-1.8816,-1.9083,-1.9326,-1.9017,-1.9287,-1.945,-1.9203,0.0,0.0,-1.7648,-1.7181,-1.7007,-1.6927,-1.7048,-1.7192,-1.7265,-1.721,-1.7139,0.0,0.0,0.0,0.0,0.0,0.0,0.0,0.0,-1.9262,-1.9212,0.0,-1.8559,0.0,0.0,0.0,0.0,0.0,-1.6337,0.0,0.0,-1.4082,-1.3647,-1.3634,-1.3654,-1.3514,-1.3287,-1.3849,-1.4227,-1.4586,-1.5996,0.0,0.0,0.0,0.0,0.0,0.0,-1.6472,-1.6866,-1.634,-1.6072,-1.6207,-1.5791,-1.5336,-1.4874,-1.4506,-1.4091,-1.3687,-1.4392,-1.4675,-1.4279,-1.4616,0.0,0.0,0.0,0.0,0.0,0.0,0.0,0.0,0.0,0.0,0.0,0.0,0.0,0.0,0.0,0.0,0.0,0.0,0.0,0.0,-1.3058,0.0,0.0,0.0,0.0,0.0,0.0,0.0,0.0,0.0,0.0,-1.483,-1.5178,-1.5605,-1.6194,0.0,0.0,0.0,0.0,-1.8201,-1.9416,-1.9311,-1.9099,-1.9058,-1.9713,-1.9886,-1.8977,0.0,0.0,-1.8192,-1.8517,-1.8798,-1.8531,-1.8975,-1.9397,-1.9279,-1.8771,-1.8531,-1.8744,-1.8315,-1.8135,-1.839,-1.817,-1.7923,-2.4106,0.0,0.0,0.0,0.0,-2.2117,-2.1582,-2.1059,-2.0679,-2.0361,-2.0145,-1.9632,0.0,0.0,0.0,0.0,0.0,0.0,-1.5855,-1.4684,-1.4825,-1.4406,-1.3613,-1.3861,-1.3789,-1.3585,-1.3743,-1.3671,-1.3518,-1.4717,-1.5519,-1.5964,0.0,0.0,0.0,0.0,-1.5956,-1.6426,-1.6331,-1.6192,-1.5987,-1.5313,-1.4662,-1.3977,-1.4143,-1.4034,-1.3604,-1.3823,-1.3849,-1.3752,-1.3985,0.0,0.0,0.0,0.0,0.0,0.0,0.0,0.0,0.0,0.0,0.0,0.0,0.0,0.0,0.0,0.0,0.0,0.0,0.0,-1.3046,-1.2959,-1.3146,0.0,0.0,0.0,0.0,0.0,0.0,0.0,0.0,0.0,-1.3565,-1.4647,-1.5458,0.0,0.0,-1.6081,-1.645,-1.6436,-1.6739,-1.7766,-1.7654,0.0,-1.7997,-1.8383,-1.8489,-1.8011,-1.8243,-1.8353,-1.8043,-1.8357,-1.8517,-1.8175,-1.8484,-1.8738,-1.8744,-1.8791,-1.8744,-1.8651,-1.8631,-1.8628,-1.8758,-1.8571,-1.8337,-2.2461,-2.2124,-2.2757,-2.2764,-2.2271,-2.1665,-2.1132,-2.075,-2.0493,-2.0347,-2.0246,-1.9655,-1.9149,-1.8611,-1.7783,0.0,0.0,0.0,-1.5442,-1.442,-1.4733,-1.4434,-1.3703,-1.3827,-1.3828,-1.361,-1.3568,-1.34,-1.3025,-1.371,-1.4413,-1.5122,0.0,0.0,-1.5692,-1.5368,-1.526,-1.5327,-1.5227,-1.5023,-1.472,-1.3965,-1.333,-1.2796,-1.3262,-1.3399,-1.3156,-1.3391,-1.339,-1.31,-1.3299,-1.3171,0.0,0.0,0.0,0.0,0.0,0.0,0.0,0.0,0.0,0.0,0.0,-1.2378,-1.2596,0.0,0.0,0.0,-1.2717,-1.2911,-1.3186,-1.3146,0.0,0.0,0.0,0.0,0.0,0.0,0.0,-1.2163,-1.2309,-1.2539,-1.2737,-1.3653,-1.4555,-1.521,-1.5726,-1.6046,-1.6159,0.0,-1.6406,-1.7105,-1.6901,-1.6874,-1.738,-1.7459,-1.7493,-1.7593,-1.7736,-1.7856,-1.7975,-1.811,-1.8103,-1.8076,-1.819,-1.8357,-1.847,-1.8637,-1.8711,-1.8537,-1.8631,-1.8744,-1.8751,-1.8611,-1.8464,-2.0373,-2.0128,-2.1707,-2.2136,-2.168,-2.0806,-2.0035,-1.9408,-1.9301,-1.9443,-1.9702,-1.891,-1.8479,-1.8345,-1.6924,0.0,-1.5311,-1.5005,-1.4538,-1.4013,-1.4013,-1.3866,-1.3623,-1.3617,-1.3503,-1.3328,-1.3286,-1.3201,-1.3026,-1.2983,-1.3098,-1.3418,-1.4735,-1.526,-1.5053,-1.4776,-1.4406,-1.39,-1.3513,-1.3172,-1.2889,-1.2257,-1.1771,-1.156,-1.212,-1.242,-1.2443,-1.3009,-1.307,-1.2481,-1.2628,-1.2444,-1.1854,0.0,0.0,0.0,0.0,0.0,0.0,0.0,0.0,0.0,0.0,0.0,0.0,0.0,0.0,0.0,-1.2567,0.0,-1.3101,-1.3278,0.0,0.0,0.0,-1.2357,-1.1622,-1.1767,-1.187,-1.1718,0.0,0.0,-1.2131,-1.2368,-1.3133,-1.4654,-1.5555,-1.6088,-1.6344,-1.6394,-1.664,-1.6848,-1.679,-1.6774,-1.7048,-1.683,-1.6722,-1.7153,-1.7351,-1.7219,-1.7428,-1.7317,-1.7371,-1.7589,-1.7708,-1.772,-1.8125,-1.8003,-1.8123,-1.7954,-1.8307,-1.8504,-1.851,-1.8437,-1.829,-1.8483,-1.8253,-1.8576,-1.9436,-2.0572,-2.0226,-2.0119,-2.0114,-1.9177,-1.8786,-1.8744,-1.7612,-1.7029,-1.6851,-1.565,-1.4991,-1.4838,-1.4097,-1.3487,-1.3051,-1.3211,-1.3095,-1.2856,-1.2849,-1.2768,-1.2566,-1.2566,-1.2438,-1.2188,-1.2188,-1.2199,-1.2299,-1.2637,-1.3387,-1.442,-1.3638,-1.3449,-1.3893,-1.3623,-1.3273,-1.2917,-1.2257,-1.1887,-1.18,-1.1781,-1.1734,-1.1726,-1.1888,-1.1919,-1.1764,-1.2012,-1.2017,-1.1614,-1.1694,0.0,0.0,0.0,0.0,0.0,0.0,0.0,0.0,0.0,-1.2799,-1.2338,0.0,-1.2899,0.0,-1.2285,-1.2172,-1.2478,-1.194,0.0,0.0,-1.2003,-1.1732,-1.0959,-1.1037,-1.0906,-1.0206,-1.0249,-1.0345,-1.0441,-1.1093,-1.1693,-1.2146,-1.2948,-1.3565,-1.3676,-1.4376,-1.4967,-1.527,-1.589,-1.648,-1.6627,-1.6099,-1.5575,-1.5769,-1.511,-1.4608,-1.4665,-1.4636,-1.4819,-1.5612,-1.52,-1.5074,-1.5851,-1.5353,-1.4833,-1.4931,-1.675,-1.8497,-1.849,-1.8123,-1.7769,-1.6985,-1.6917,-1.6737,-1.7223,-1.8238,-1.8513,-1.8629,-1.8611,-1.7983,-1.7584,-1.7331,-1.6209,-1.5701,-1.5572,-1.4503,-1.4048,-1.4048,-1.3519,-1.3119,-1.2867,-1.2943,-1.2791,-1.2452,-1.2452,-1.2326,-1.2126,-1.2126,-1.2046,-1.192,-1.1886,-1.1946,-1.2054,-1.2054,-1.2597,-1.3513,-1.2875,-1.279,-1.3347,-1.2887,-1.2456,-1.2087,-1.1511,-1.1176,-1.1196,-1.1102,-1.1126,-1.1227,-1.1409,-1.1426,-1.1252,-1.1482,-1.1471,-1.1129,-1.1283,-1.1377,0.0,0.0,0.0,0.0,0.0,0.0,0.0,0.0,0.0,0.0,0.0,-1.2282,-1.1973,-1.1589,-1.1535,-1.1828,-1.1382,-1.107,-1.0968,-1.1037,-1.078,-1.0033,-1.0137,-1.0097,-0.9653,-0.9624,-0.9661,-0.9754,-1.0173,-1.0498,-1.0493,-1.0984,-1.1663,-1.2597,-1.3359,-1.388,-1.4063,-1.453,-1.4924,-1.4924,-1.4473,-1.4167,-1.4209,-1.3696,-1.3252,-1.34,-1.329,-1.3452,-1.4115,-1.3791,-1.3623,-1.4281,-1.4055,-1.3636,-1.3861,-1.5007,-1.6182,-1.6332,-1.6039,-1.5823,-1.5501,-1.569,-1.5507,-1.5413,-1.5498,-1.6211,-1.6451,-1.6317,-1.6272,-1.597,-1.549,-1.4726,-1.44,-1.44,-1.3451,-1.3167,-1.3298,-1.3087,-1.2925,-1.2807,-1.2795,-1.2569,-1.2147,-1.2141,-1.2022,-1.1817,-1.1778,-1.1817,-1.1784,-1.1814,-1.1992,-1.2204,-1.2252,-1.2326,-1.251,-1.2356,-1.2421,-1.2644,-1.195,-1.1423,-1.1214,-1.0671,-1.0376,-1.0363,-1.039,-1.0515,-1.0712,-1.1117,-1.1142,-1.0804,-1.0989,-1.0975,-1.0617,-1.0949,-1.108,0.0,-1.1185,0.0,0.0,0.0,0.0,0.0,0.0,0.0,0.0,-1.1439,-1.1209,-1.0982,-1.0852,-1.0852,-1.109,-1.1025,-1.0651,-0.9897,-0.9895,-0.9772,-0.9198,-0.9242,-0.9401,-0.9554,-0.9525,-0.9476,-0.9484,-0.948,-0.9525,-0.9525,-0.9624,-1.0256,-1.177,-1.2545,-1.2908,-1.294,-1.3089,-1.3254,-1.2959,-1.2705,-1.2623,-1.2826,-1.2506,-1.2417,-1.2566,-1.2392,-1.2417,-1.2793,-1.2741,-1.2804,-1.3207,-1.3177,-1.3025,-1.2903,-1.3051,-1.3308,-1.3737,-1.3811,-1.3542,-1.3837,-1.3692,-1.3862,-1.3925,-1.3925,-1.385,-1.4673,-1.5911,-1.4937,-1.3955,-1.2994,-1.2829,-1.2876,-1.3067,-1.2862,-1.2807,-1.2812,-1.2557,-1.2219,-1.1757,-1.1757,-1.1617,-1.1312,-1.1344,-1.1306,-1.1268,-1.1262,-1.1268,-1.1268,-1.1453,-1.1591,-1.1645,-1.185,-1.1822,-1.159,0.0,0.0,0.0,-1.2029,-1.1823,-1.1712,-1.1244,-1.0827,-1.0641,-1.0242,0.0,-0.9794,-1.0027,-1.0172,-1.0107,-1.0479,0.0,0.0,0.0,0.0,0.0,0.0,0.0,0.0,0.0,0.0,0.0,-1.0875,-1.0703,-1.067,-1.0868,-1.108,-1.1187,-1.0532,-1.0115,-1.0159,-0.9519,-0.9103,-0.9016,-0.8945,-0.9017,-0.9282,-0.9064,-0.8926,-0.9243,-0.908,-0.8973,-0.8977,-0.8928,-0.8977,-0.8977,-0.913,-0.9324,-0.9509,-1.077,-1.1575,-1.1624,-1.2178,-1.2694,-1.2689,-1.195,-1.1526,-1.1467,-1.078,-1.0323,-1.0407,-1.0349,-1.06,-1.1388,-1.0847,-1.0668,-1.149,-1.1001,-1.054,-1.0369,-1.0423,-1.1002,-1.3143,-1.3433,-1.3302,-1.2857,0.0,-1.2945,-1.3027,0.0,-1.297,-1.3459,-1.4285,-1.35,-1.285,-1.2312,-1.2312,-1.2426,-1.2686,-1.2687,-1.2717,-1.2673,-1.2414,-1.1851,-1.1129,-1.1039,-1.0662,-1.0001,-1.0075,-1.0069,-1.0034,-0.9991,-0.9975,-0.9922,-1.0143,-1.0276,-1.0439,-1.0635,-1.0669,-1.0611,-1.0937,-1.1562,-1.2464,-1.2246,-1.2012,-1.1868,-1.1006,-1.0456,-1.0288,-0.9411,0.0,0.0,0.0,0.0,0.0,0.0,0.0,0.0,0.0,0.0,-0.9383,-0.9301,-0.9372,-0.9631,-0.9885,-1.0044,-1.0069,-0.9736,-0.962,-0.9929,-0.9836,-0.9838,-0.9937,-0.9519,-0.9209,-0.903,-0.8644,-0.8372,-0.837,-0.8407,-0.857,-0.88,-0.8774,-0.8836,-0.8985,-0.8981,-0.8981,-0.8825,-0.8931,-0.8931,-0.8829,-0.8928,-0.8931,-0.8924,-0.971,-1.04,-1.04,-1.0788,-1.1179,-1.113,-1.0788,-1.0395,-1.0301,-0.9965,-0.9673,-0.9624,-0.9624,-0.9821,-1.0256,-0.9965,-0.9821,-1.0207,-0.9969,-0.9624,-0.9624,-0.9624,-0.9912,-1.1403,-1.1511,-1.1439,-1.2293,-1.268,-1.2284,-1.2186,-1.2308,-1.218,-1.2066,-1.2105,0.0,0.0,0.0,-1.2058,-1.2093,-1.2116,-1.2157,-1.2157,-1.2105,-1.1902,-1.1301,-1.0414,-1.0282,-0.9777,-0.8948,-0.9071,-0.9039,-0.8922,-0.8918,-0.8854,-0.8718,-0.8896,-0.9094,-0.9308,-0.9503,-0.9672,-0.987,-0.9749,-1.0486,-1.2083,-1.1972,-1.1769,-1.152,-1.0443,-0.9794,-0.971,-0.8602,-0.8082,-0.8202,-0.805,-0.8054,-0.829,-0.8337,-0.8458,-0.867,-0.8599,-0.8642,-0.8793,-0.8751,-0.8899,-0.9238,-0.9437,-0.9352,-0.8995,-0.8691,-0.8717,-0.9285,-0.8822,-0.8524,-0.8524,-0.8524,-0.8384,-0.8157,-0.8157,-0.8084,-0.7941,-0.8139,-0.8264,-0.8342,-0.8363,-0.8322,-0.8418,-0.8329,-0.8428,-0.8326,-0.823,-0.8428,-0.8329,-0.8077,-0.8223,-0.8322,-0.8973,-0.9628,-0.9628,-0.9772,-0.9723,-0.9624,-0.9723,-0.9624,-0.9673,-0.9673,-0.9624,-0.9624,-0.9624,-0.9624,-0.9673,-0.9624,-0.9628,-0.9628,-0.9624,-0.9624,-0.9624,-0.9624,-0.9624,-0.9624,-0.9628,-0.9731,-1.2184,-1.2373,-1.1327,-1.0869,-1.0826,-1.0038,-0.9685,-0.9836,-1.153,-1.1857,-1.1102,-1.1102,-1.0653,-0.9963,-1.0186,-1.0172,-0.9958,-0.9887,-0.9673,-0.9313,-0.9308,-0.9217,-0.9068,-0.9095,-0.9039,-0.8927,-0.8918,-0.8815,-0.8755,-0.9037,-0.9275,-0.9305,-0.9644,-0.9851,-0.9836,-0.9104,-0.9235,-1.0269,-1.024,-1.0211,-1.0177,-0.9774,-0.9394,-0.9042,-0.8613,-0.8254,-0.798,-0.8115,-0.8271,-0.8304,-0.8515,-0.8585,-0.8503,-0.8294,-0.8161,-0.8041,-0.7845,-0.782,-0.8023,-0.8003,-0.8038,-0.8095,-0.8046,-0.8197,-0.8663,-0.8452,-0.8248,-0.8248,-0.8116,-0.7988,-0.7944,-0.7904,-0.7916,-0.8001,-0.8064,-0.8197,-0.8365,-0.7524,-0.6963,-0.7065,-0.6074,-0.5927,-0.6581,-0.6126,-0.6027,-0.6481,-0.6379,-0.5877,-0.6473,-0.7928,-0.9133,-0.9282,-0.948,-0.9579,-0.9377,-0.9579,-0.9476,-0.9624,-0.9476,-0.943,-0.9377,-0.9426,-0.9426,-0.9529,-0.9426,-0.948,-0.948,-0.9624,-0.9476,-0.9426,-0.9377,-0.9476,-0.9426,-0.9426,-0.9525,-1.0246,-1.0409,-0.9927,-0.9744,-0.9822,-0.9387,-0.9151,-0.917,-1.0154,-1.0435,-1.0171,-1.0129,-0.9978,-0.9743,-0.9837,-0.9827,-0.9691,-0.9583,-0.9191,-0.8693,-0.8572,-0.8321,-0.7957,-0.7955,-0.7903,-0.7699,-0.7782,-0.7684,-0.7475,-0.7809,-0.7976,-0.7912,-0.8228,-0.836,-0.828,-0.7928,-0.7925,-0.8404,-0.9401,-0.9827,-0.9672,-0.9117,-0.8689,-0.8371,-0.7841,-0.7454,-0.7258,-0.7312,-0.7338,-0.7338,-0.7369,-0.7367,-0.7324,-0.7246,-0.7192,-0.7123,-0.7119,-0.7167,-0.7363,-0.7526,-0.7723,-0.7878,-0.7404,-0.7177,-0.7397,-0.7801,-0.8025,-0.8028,-0.794,-0.7856,-0.7683,-0.7258,-0.6882,-0.6855,-0.6479,-0.6275,-0.6332,-0.6018,-0.5671,-0.5667,-0.5327,-0.5177,-0.5477,-0.5227,-0.5077,-0.5479,-0.5177,-0.5024,-0.5125,-0.6174,-0.7077,-0.7223,-0.7571,-0.7819,-0.7925,-0.8127,-0.828,-0.8283,-0.8283,-0.8283,-0.8283,-0.8333,-0.8329,-0.8283,-0.8333,-0.8283,-0.8333,-0.828,-0.8283,-0.8283,-0.828,-0.828,-0.8283,-0.8283,-0.8581,-0.8671,-0.889,-0.8584,-0.8464,-0.838,-0.8456,-0.8418,-0.8326,-0.8576,-0.875,-0.8892,-0.9134,-0.9215,-0.9261,-0.927,-0.9274,-0.9252,-0.9077,-0.8628,-0.8076,-0.7912,-0.7529,-0.7026,-0.7048,-0.6957,-0.6787,-0.6832,-0.6715,-0.6436,-0.6729,-0.6888,-0.6831,-0.6987,-0.7041,-0.6937,-0.7041,-0.7095,-0.7183,-0.8532,-0.9156,-0.893,-0.8339,-0.7912,-0.7628,-0.7005,-0.6647,-0.6644,-0.6505,-0.6463,-0.6457,-0.6358,-0.63,-0.6303,-0.6441,-0.6517,-0.6558,-0.6705,-0.6761,-0.6742,-0.6802,-0.693,-0.7082,-0.6375,-0.5927,-0.5974,-0.6643,-0.7139,-0.7139,-0.7007,-0.6918,-0.6669,-0.6139,-0.5619,-0.545,-0.497,-0.4736,-0.4655,-0.4523,-0.4425,-0.4474,-0.4425,-0.4325,-0.4425,-0.4375,-0.4227,-0.4026,-0.4074,-0.4074,-0.4124,-0.4277,-0.4477,-0.4824,-0.5522,-0.6271,-0.6224,-0.6578,-0.6883,-0.6983,-0.708,-0.7182,-0.7285,-0.7285,-0.7235,-0.7335,-0.7285,-0.7335,-0.7235,-0.7285,-0.7285,-0.7385,-0.7385,-0.7285,-0.7335,-0.7338,-0.7683,-0.8627,-0.8715,-0.7709,-0.6711,-0.6007,-0.6292,-0.6396,-0.6337,-0.6768,-0.7007,-0.7204,-0.7943,-0.7943,-0.7401,-0.7445,-0.7445,-0.7445,-0.7342,-0.7332,-0.7285,-0.7207,-0.7163,-0.7071,-0.7088,-0.7014,-0.6876,-0.684,-0.6647,-0.6321,-0.6644,-0.6897,-0.7045,-0.7085,-0.6997,-0.7027,-0.7041,-0.7095,-0.7095,-0.7272,-0.7349,-0.7332,-0.712,-0.7008,-0.6991,-0.6678,-0.6491,-0.6549,-0.6395,-0.6323,-0.632,-0.6271,-0.6261,-0.63,-0.6465,-0.661,-0.6708,-0.69,-0.6729,-0.5968,-0.5142,-0.4761,-0.463,-0.4599,-0.451,-0.451,-0.4554,-0.4734,-0.483,-0.4739,-0.4832,-0.4607,-0.4561,-0.4486,-0.4457,-0.4409,-0.46,-0.4371,-0.3833,-0.3324,-0.3323,-0.2674,-0.227,-0.3074,-0.2723,-0.212,-0.222,-0.2315,-0.2266,-0.227,-0.2266,-0.2315,-0.2568,-0.3974,-0.5375,-0.5525,-0.5675,-0.5827,-0.6224,-0.6423,-0.6426,-0.6581,-0.6886,-0.7135,-0.6587,-0.6986,-0.6936,-0.7036,-0.7185,-0.7086,-0.6836,-0.6936,-0.7089,-0.7185,-0.7036,-0.7385,-0.6918,-0.6962,-0.6482,-0.5964,-0.5525,-0.5736,-0.5752,-0.5676,-0.5996,-0.6219,-0.6349,-0.6201,-0.6464,-0.7095,-0.7095,-0.7095,-0.7095,-0.7095,-0.7095,-0.7095,-0.7095,-0.7095,-0.7095,-0.7095,-0.6755,-0.6119,-0.6135,-0.5738,-0.5061,-0.5122,-0.5264,-0.5308,-0.5414,-0.5414,-0.5318,-0.5411,-0.5445,-0.5445,-0.5447,-0.5414,-0.5521,-0.6393,-0.6886,-0.6866,-0.6719,-0.6607,-0.6593,-0.6501,-0.6426,-0.638,-0.5872,-0.5512,-0.5515,-0.5227,-0.5089,-0.5146,-0.5311,-0.5246,-0.4927,-0.4542,-0.4337,-0.4287,-0.3799,-0.3446,-0.3446,-0.2953,-0.2653,-0.2866,-0.369,-0.4296,-0.4306,-0.387,-0.3534,-0.35,-0.3138,-0.2841,-0.2842,-0.251,-0.222,-0.222,-0.1869,-0.1718,-0.207,-0.1869,-0.1617,-0.1564,-0.1603,-0.1596,-0.1612,-0.1603,-0.1591,-0.1691,-0.2601,-0.3271,-0.3673,-0.3977,-0.4279,-0.4429,-0.4479,-0.4632,-0.4883,-0.5133,-0.5284,-0.5386,-0.5687,-0.5887,-0.5687,-0.5787,-0.5787,-0.5834,-0.5784,-0.5787,-0.5784,-0.5784,-0.6134,-0.4924,-0.4921,-0.494,-0.4841,-0.4674,-0.4862,-0.4841,-0.4688,-0.4934,-0.5102,-0.523,-0.4694,-0.5134,-0.6113,-0.6201,-0.6204,-0.6245,-0.629,-0.6337,-0.6337,-0.6337,-0.6337,-0.6337,-0.6337,-0.5934,-0.5305,-0.5274,-0.4837,-0.4024,-0.4046,-0.413,-0.4158,-0.4259,-0.4257,-0.4166,-0.4261,-0.4289,-0.4334,-0.4289,-0.4291,-0.4381,-0.5464,-0.6135,-0.6126,-0.6005,-0.5932,-0.5932,-0.5842,-0.5769,-0.5726,-0.5048,-0.4691,-0.4654,-0.4214,-0.3955,-0.3977,-0.3881,-0.3869,-0.3929,-0.3666,-0.3532,-0.3443,-0.2822,-0.2509,-0.2378,-0.1848,-0.1507,-0.1629,-0.2761,-0.3492,-0.3514,-0.3001,-0.2643,-0.255,-0.1946,-0.1616,-0.1616,-0.1566,-0.1617,-0.1566,-0.1617,-0.1566,-0.1615,-0.161,-0.1605,-0.1612,-0.1585,-0.1576,-0.1603,-0.1593,-0.1573,-0.1573,-0.1641,-0.1801,-0.2155,-0.2566,-0.2773,-0.2978,-0.3078,-0.3229,-0.3281,-0.3833,-0.4183,-0.4935,-0.4784,-0.4832,-0.5085,-0.4985,-0.4834,-0.4784,-0.4784,-0.4834,-0.4983,-0.4834,-0.5085,-0.3001,-0.3037,-0.3025,-0.3039,-0.286,-0.3045,-0.2998,-0.3029,-0.3236,-0.3355,-0.3532,-0.3708,-0.3929,-0.4061,-0.4061,-0.4061,-0.4152,-0.4421,-0.4599,-0.4556,-0.451,-0.4467,-0.4423,-0.4423,-0.4419,-0.436,-0.437,-0.4239,-0.4132,-0.4073,-0.416,-0.4237,-0.416,-0.42,-0.4099,-0.4105,-0.4243,-0.4111,-0.4067,-0.4152,-0.4111,-0.4117,-0.421,-0.4268,-0.4106,-0.4136,-0.4169,-0.4045,-0.3958,-0.3956,-0.3912,-0.3869,-0.3832,-0.38,-0.3764,-0.3839,-0.3314,-0.2949,-0.2819,-0.2195,-0.1704,-0.1614,-0.1659,-0.1525,-0.1616,-0.1547,-0.1483,-0.1519,-0.1732,-0.1887,-0.1871,-0.1899,-0.1771,-0.1773,-0.1649,-0.1564,-0.1566,-0.1566,-0.1566,-0.1566,-0.1566,-0.1566,-0.1566,-0.1592,-0.1593,-0.1597,-0.1565,-0.15,-0.1588,-0.1585,-0.1567,-0.1566,-0.157,-0.1623,-0.1674,-0.1891,-0.2061,-0.2271,-0.2523,-0.2672,-0.3429,-0.4034,-0.4234,-0.4435,-0.4483,-0.4533,-0.4734,-0.4734,-0.4634,-0.4583,-0.4533,-0.4533,-0.4383,-0.4684,-0.4834,-0.2911,-0.291,-0.2888,-0.2812,-0.2741,-0.2856,-0.2846,-0.2701,-0.2922,-0.3077,-0.3045,-0.2596,-0.2371,-0.2503,-0.1923,-0.2503,-0.384,-0.4018,-0.4018,-0.4063,-0.4063,-0.4154,-0.4289,-0.4289,-0.3935,-0.3446,-0.3401,-0.3066,-0.2554,-0.2448,-0.2449,-0.2508,-0.2512,-0.2497,-0.2424,-0.2462,-0.2463,-0.2462,-0.2462,-0.2422,-0.2394,-0.235,-0.2315,-0.2419,-0.3306,-0.3801,-0.388,-0.381,-0.3832,-0.3791,-0.3288,-0.2978,-0.2943,-0.2466,-0.2237,-0.2265,-0.2075,-0.1944,-0.1878,-0.1614,-0.1391,-0.1391,-0.1391,-0.1391,-0.1392,-0.1401,-0.1464,-0.1495,-0.1525,-0.1541,-0.1561,-0.1583,-0.16,-0.1602,-0.1609,-0.1566,-0.1566,-0.1566,-0.1566,-0.1566,-0.1566,-0.1566,-0.1463,-0.1556,-0.1597,-0.1585,-0.1552,-0.1493,-0.1498,-0.1534,-0.1469,-0.1522,-0.1594,-0.1564,-0.1543,-0.1568,-0.169,-0.1809,-0.1918,-0.1967,-0.247,-0.2874,-0.3126,-0.3175,-0.3476,-0.378,-0.378,-0.3932,-0.3932,-0.383,-0.3831,-0.4033,-0.3783,-0.4234,-0.4334,-0.1972,-0.1971,-0.1958,-0.1908,-0.1822,-0.1948,-0.1905,-0.1839,-0.1934,-0.2034,-0.2011,-0.1362,-0.1181,-0.1275,-0.0857,-0.1349,-0.2794,-0.2915,-0.3051,-0.3115,-0.3117,-0.3217,-0.3375,-0.3377,-0.3059,-0.2514,-0.2469,-0.2075,-0.1586,-0.1495,-0.1491,-0.1527,-0.148,-0.1466,-0.144,-0.1391,-0.1391,-0.1391,-0.1391,-0.1366,-0.1327,-0.1327,-0.1344,-0.1442,-0.2441,-0.3015,-0.2974,-0.3013,-0.3013,-0.2896,-0.2431,-0.2087,-0.2028,-0.1584,-0.1331,-0.1359,-0.1388,-0.1413,-0.1387,-0.1391,-0.1391,-0.1391,-0.1391,-0.1391,-0.1391,-0.1444,-0.1464,-0.1493,-0.1523,-0.1553,-0.1531,-0.1354,-0.1313,-0.1516,-0.1566,-0.1566,-0.1566,-0.1566,-0.1465,-0.1212,-0.0858,-0.0808,-0.0807,-0.0803,-0.0746,-0.0834,-0.0817,-0.0757,-0.0807,-0.0797,-0.0786,-0.0788,-0.0715,-0.0674,-0.0529,-0.0487,-0.1132,-0.1393,-0.1502,-0.1455,-0.1409,-0.1762,-0.1966,-0.2017,-0.2218,-0.2622,-0.2875,-0.3027,-0.2977,-0.2825,-0.3228,-0.3581,-0.3632,-0.3831,-0.3982,0.0,0.0,0.0,0.0,0.0,0.0,0.0,0.0,0.0,-0.0332,-0.047,-0.0372,-0.0511,-0.0563,-0.0821,-0.0998,-0.1055,-0.1272,-0.1455,-0.1613,-0.1664,-0.1681,-0.1706,-0.1799,-0.1799,-0.1611,-0.157,-0.1523,-0.1525,-0.1525,-0.1513,-0.1489,-0.1536,-0.1431,-0.1349,-0.1307,-0.1303,-0.1214,-0.1214,-0.133,-0.1391,-0.1325,-0.1298,-0.1304,-0.1438,-0.1501,-0.1417,-0.1454,-0.1534,-0.146,-0.1418,-0.1312,-0.1423,-0.1331,-0.136,-0.1385,-0.1416,-0.1388,-0.139,-0.1391,-0.1391,-0.1391,-0.1392,-0.1259,-0.1259,-0.1234,-0.1258,-0.1229,-0.1305,-0.1431,-0.1252,-0.0807,-0.0656,-0.1364,-0.1364,-0.1263,-0.1364,-0.1515,-0.1263,-0.0505,0.0101,0.0706,0.0754,0.0548,0.0493,0.0439,0.0478,0.047,0.0332,0.0328,0.0602,0.0604,0.0378,0.0191,0.0529,0.0725,-0.0195,-0.0983,-0.1088,-0.1092,-0.0849,-0.0951,-0.0855,-0.0907,-0.1108,-0.146,-0.1511,-0.1663,-0.1865,-0.1865,-0.2521,-0.2825,-0.2875,-0.3025,-0.3729,0.0,0.0,0.0,0.0,0.0,0.0,0.0,0.0,0.0,0.0,-0.0234,-0.0186,-0.0323,-0.055,-0.064,-0.0598,-0.0694,-0.0838,-0.0932,-0.0929,-0.1173,-0.128,-0.1287,-0.1431,-0.1478,-0.1478,-0.1478,-0.149,-0.1554,-0.1508,-0.1551,-0.1545,-0.1542,-0.1241,-0.0654,-0.0646,-0.0504,0.0,-0.0452,-0.0666,-0.0696,-0.1122,-0.1321,-0.1295,-0.1324,-0.1311,-0.133,-0.1308,-0.1318,-0.1314,-0.1299,-0.1302,-0.1332,-0.1361,-0.138,-0.1391,-0.1418,-0.1391,-0.1391,-0.1391,-0.1347,-0.1305,-0.0954,-0.0681,-0.0632,-0.0185,0.0047,0.0047,0.0096,0.0148,0.0148,0.025,0.0101,-0.0707,-0.0303,-0.005,-0.0101,0.0,0.0151,0.0353,0.0655,0.0756,0.0806,0.09,0.0943,0.0932,0.0968,0.0914,0.0857,0.0938,0.0793,0.0848,0.0809,0.1007,0.1209,0.1317,0.0835,0.0197,-0.0099,-0.0247,-0.005,0.005,0.0151,0.0151,-0.0101,-0.0201,-0.0252,-0.0403,-0.0655,-0.0655,-0.0857,-0.116,-0.1513,-0.2068,-0.272,0.0,0.0,0.0,0.0,0.0,0.0384,0.0,0.058,0.1032,0.1066,0.0939,0.1028,0.0932,0.0741,0.074,0.0699,0.0614,0.0287,0.0191,0.0095,-0.0861,-0.1209,-0.1265,-0.1413,-0.156,-0.1462,-0.1219,-0.1128,-0.114,-0.0843,-0.0692,-0.0638,-0.0687,-0.0388,0.0095,0.0094,0.0374,0.07,0.0323,0.0091,0.0,-0.0309,-0.0522,-0.0512,-0.0507,-0.0503,-0.0541,-0.053,-0.0773,-0.1201,-0.1322,-0.133,-0.1306,-0.1115,-0.0999,-0.0959,-0.0753,-0.0585,-0.0589,-0.05,-0.0547,-0.0459,-0.0093,0.014,0.0185,0.066,0.0853,0.0856,0.0821,0.0884,0.0842,0.115,0.0958,0.0555,0.0605,0.0806,0.0857,0.1058,0.121,0.1311,0.1513,0.1664,0.1714,0.1713,0.1701,0.1724,0.1715,0.1703,0.1723,0.1745,0.1657,0.1668,0.1874,0.1938,0.1809,0.1821,0.1832,0.1438,0.1092,0.099,0.1039,0.11,0.1159,0.1159,0.1008,0.0957,0.0907,0.0605,0.0353,0.0504,0.0605,-0.005,-0.0605,-0.0908,-0.1461,0.0,0.0185,0.0,0.0,0.0438,0.1265,0.1606,0.1669,0.2539,0.2851,0.2774,0.2714,0.2828,0.2844,0.2448,0.2367,0.2628,0.1862,0.1521,0.1225,0.0147,-0.0842,-0.1102,-0.1153,-0.1153,-0.1155,-0.0603,-0.0353,-0.0302,0.0251,0.0849,0.069,0.0639,0.0876,0.0912,0.0955,0.1001,0.1188,0.1044,0.089,0.0829,0.0769,0.071,0.0653,0.0642,0.0597,0.0601,0.0551,0.0083,-0.0947,-0.1007,-0.0976,-0.102,-0.056,-0.0262,-0.0218,0.0355,0.0544,0.0691,0.0556,0.0606,0.0662,0.0809,0.0954,0.0998,0.1148,0.1304,0.1264,0.1225,0.1188,0.1254,0.1663,0.1967,0.1967,0.1563,0.121,0.1058,0.1664,0.2017,0.2169,0.2725,0.318,0.2978,0.2978,0.2953,0.2923,0.2858,0.2837,0.2808,0.2739,0.2966,0.2939,0.2681,0.2596,0.2421,0.2485,0.2449,0.2298,0.2048,0.1993,0.1936,0.2005,0.2068,0.2068,0.2017,0.2017,0.1967,0.1664,0.1563,0.1765,0.1462,0.0756,0.0353,0.005,-0.0302,0.2271,0.2354,0.2275,0.2201,0.2243,0.2501,0.2577,0.259,0.2903,0.324,0.3156,0.3158,0.3186,0.2925,0.2889,0.262,0.2502,0.2188,0.1702,0.1451,0.1402,0.0752,0.0302,0.0151,0.0151,0.0151,0.0303,0.0504,0.0504,0.0806,0.0905,0.0851,0.0949,0.1189,0.1561,0.1655,0.1979,0.2333,0.1879,0.1633,0.1528,0.1046,0.0761,0.0712,0.0795,0.0789,0.0783,0.0777,0.0688,0.0343,0.0218,0.0176,0.0132,0.031,0.0444,0.0489,0.0679,0.0827,0.0834,0.0939,0.0948,0.0954,0.15,0.1741,0.1765,0.2251,0.2516,0.2568,0.2579,0.2556,0.2571,0.2725,0.2826,0.2876,0.2522,0.2422,0.2472,0.2725,0.2876,0.2927,0.3079,0.318,0.318,0.318,0.3224,0.3207,0.3198,0.3195,0.3159,0.3135,0.312,0.3149,0.3028,0.3082,0.3094,0.3114,0.3124,0.3021,0.2869,0.2816,0.276,0.2768,0.2826,0.2876,0.2675,0.2624,0.2775,0.2725,0.2826,0.2675,0.2219,0.1563,0.1361,0.1109,0.0756,0.312,0.3219,0.3062,0.2976,0.3072,0.3469,0.3608,0.369,0.4166,0.4388,0.438,0.4475,0.4425,0.4338,0.4285,0.4179,0.3915,0.3657,0.337,0.3171,0.3171,0.2416,0.146,0.1108,0.1007,0.0857,0.1159,0.1311,0.1361,0.1613,0.1765,0.1865,0.1816,0.2056,0.2434,0.2481,0.2617,0.298,0.2655,0.2442,0.2324,0.1971,0.1751,0.169,0.1679,0.1664,0.1679,0.1674,0.1453,0.0927,0.0712,0.0715,0.0798,0.1027,0.1161,0.1199,0.15,0.1762,0.1783,0.1813,0.184,0.1904,0.2371,0.2514,0.2554,0.2994,0.3158,0.3093,0.3164,0.3176,0.318,0.318,0.318,0.313,0.318,0.318,0.318,0.313,0.318,0.318,0.318,0.318,0.318,0.318,0.318,0.3179,0.3175,0.3225,0.3218,0.3146,0.3132,0.3149,0.316,0.3158,0.3158,0.3173,0.3229,0.3179,0.3179,0.318,0.318,0.318,0.318,0.318,0.318,0.318,0.318,0.318,0.313,0.2927,0.2624,0.2472,0.227,0.2017,0.1664,0.3507,0.3508,0.3343,0.3303,0.3538,0.4372,0.4668,0.4795,0.5674,0.6058,0.5905,0.6155,0.5994,0.6333,0.5907,0.6194,0.6126,0.5377,0.5381,0.5083,0.4782,0.3823,0.2365,0.2063,0.1863,0.1562,0.1916,0.2068,0.2219,0.2775,0.3079,0.2978,0.3029,0.3122,0.3006,0.3115,0.3176,0.3152,0.3085,0.3008,0.2974,0.2853,0.2757,0.2747,0.2736,0.2763,0.2775,0.2761,0.2307,0.1038,0.0944,0.1114,0.1188,0.1697,0.1926,0.2012,0.2479,0.2874,0.3008,0.2872,0.3019,0.3006,0.3069,0.318,0.3119,0.3176,0.3177,0.3171,0.318,0.318,0.318,0.318,0.318,0.318,0.318,0.318,0.318,0.318,0.318,0.318,0.318,0.318,0.318,0.318,0.318,0.318,0.318,0.318,0.318,0.3168,0.3161,0.3169,0.3176,0.3177,0.3177,0.318,0.318,0.318,0.318,0.318,0.318,0.318,0.318,0.318,0.318,0.318,0.318,0.318,0.318,0.318,0.2927,0.3029,0.3079,0.2826,0.2522,0.5479,0.5491,0.5334,0.5257,0.5322,0.556,0.5631,0.5724,0.6131,0.6309,0.6323,0.6327,0.6393,0.6399,0.6341,0.6169,0.5884,0.5684,0.5584,0.5584,0.5534,0.4983,0.4076,0.3626,0.3376,0.3126,0.2976,0.2927,0.3029,0.3029,0.318,0.318,0.3177,0.3157,0.3126,0.3162,0.3154,0.312,0.3114,0.3114,0.3094,0.3105,0.3117,0.3077,0.3073,0.307,0.3062,0.3058,0.2916,0.2661,0.2426,0.2305,0.2411,0.2564,0.2671,0.2752,0.29,0.3102,0.3077,0.3118,0.3164,0.3176,0.318,0.318,0.318,0.318,0.318,0.318,0.318,0.318,0.318,0.318,0.318,0.318,0.318,0.318,0.318,0.318,0.318,0.318,0.318,0.318,0.318,0.318,0.318,0.318,0.318,0.318,0.318,0.318,0.318,0.318,0.318,0.318,0.318,0.318,0.318,0.318,0.318,0.318,0.318,0.318,0.318,0.318,0.318,0.318,0.318,0.318,0.318,0.318,0.318,0.318,0.318,0.318,0.318,0.6185,0.6075,0.5956,0.5901,0.5912,0.5964,0.5994,0.6048,0.6252,0.6347,0.6369,0.641,0.6387,0.6387,0.6387,0.6234,0.6034,0.5987,0.5987,0.5987,0.5937,0.5684,0.5135,0.4585,0.4183,0.3682,0.3331,0.323,0.318,0.323,0.318,0.318,0.318,0.3168,0.3138,0.3165,0.3164,0.3144,0.3132,0.3133,0.3125,0.3154,0.3115,0.3137,0.3115,0.3098,0.3094,0.3095,0.3095,0.3081,0.3039,0.3015,0.3039,0.3048,0.3066,0.3098,0.3106,0.3136,0.3103,0.3142,0.3179,0.318,0.318,0.318,0.318,0.318,0.318,0.318,0.318,0.318,0.318,0.318,0.318,0.318,0.318,0.318,0.318,0.318,0.318,0.318,0.318,0.318,0.318,0.318,0.318,0.318,0.318,0.318,0.318,0.318,0.318,0.318,0.318,0.318,0.318,0.318,0.318,0.318,0.318,0.318,0.318,0.318,0.318,0.318,0.318,0.318,0.318,0.318,0.318,0.318,0.318,0.318,0.318,0.318,0.318,0.6188,0.6024,0.592,0.5885,0.5923,0.6029,0.6043,0.6029,0.6295,0.6382,0.6325,0.6349,0.6387,0.6387,0.6387,0.6387,0.6387,0.6387,0.6337,0.6337,0.6337,0.5987,0.5536,0.5035,0.4384,0.343,0.323,0.323,0.3331,0.323,0.318,0.318,0.318,0.3176,0.3177,0.318,0.3177,0.3171,0.3169,0.3171,0.3173,0.3168,0.3192,0.3155,0.312,0.3144,0.3145,0.3141,0.3133,0.3124,0.3124,0.3126,0.3123,0.3113,0.3119,0.3127,0.3138,0.311,0.3122,0.3153,0.318,0.318,0.318,0.318,0.318,0.318,0.318,0.318,0.318,0.318,0.318,0.318,0.318,0.318,0.318,0.318,0.318,0.318,0.318,0.318,0.318,0.318,0.318,0.318,0.318,0.318,0.318,0.318,0.318,0.318,0.318,0.318,0.318,0.318,0.318,0.318,0.318,0.318,0.318,0.318,0.318,0.318,0.318,0.318,0.318,0.318,0.318,0.318,0.318,0.318,0.318,0.318,0.318,0.318,0.318,0.5896,0.5745,0.5723,0.5772,0.5915,0.6037,0.6132,0.6225,0.6314,0.6376,0.6412,0.6426,0.6387,0.6387,0.6387,0.6387,0.6387,0.6387,0.6387,0.6387,0.6387,0.6137,0.5636,0.5336,0.4784,0.3984,0.3482,0.3381,0.3581,0.3482,0.323,0.318,0.318,0.318,0.318,0.318,0.318,0.318,0.318,0.318,0.318,0.3229,0.3226,0.3204,0.3187,0.3184,0.3189,0.3195,0.32,0.3149,0.3149,0.3198,0.318,0.3146,0.3149,0.3177,0.3196,0.3154,0.316,0.3169,0.318,0.318,0.318,0.318,0.318,0.318,0.318,0.318,0.318,0.318,0.318,0.318,0.318,0.318,0.318,0.318,0.318,0.318,0.318,0.318,0.318,0.318,0.318,0.318,0.318,0.318,0.318,0.318,0.318,0.318,0.318,0.318,0.318,0.318,0.318,0.318,0.318,0.318,0.318,0.318,0.318,0.318,0.318,0.318,0.318,0.318,0.318,0.318,0.318,0.318,0.318,0.318,0.318,0.318,0.318,0.5896,0.5704,0.586,0.5909,0.5937,0.6153,0.6211,0.6328,0.6385,0.6387,0.6387,0.6387,0.6387,0.6387,0.6387,0.6387,0.6437,0.6387,0.6387,0.6387,0.6387,0.6134,0.5636,0.5436,0.4935,0.4284,0.3682,0.3383,0.3531,0.3331,0.323,0.318,0.318,0.318,0.318,0.318,0.3281,0.3281,0.3281,0.3281,0.323,0.323,0.323,0.323,0.323,0.318,0.318,0.318,0.3229,0.3177,0.3179,0.323,0.3221,0.326,0.3199,0.3275,0.323,0.318,0.318,0.318,0.318,0.318,0.323,0.318,0.318,0.318,0.3331,0.3281,0.323,0.318,0.318,0.3281,0.318,0.318,0.3281,0.3281,0.323,0.3281,0.3331,0.343,0.3381,0.3381,0.318,0.318,0.318,0.318,0.318,0.318,0.318,0.318,0.318,0.318,0.318,0.318,0.318,0.318,0.318,0.318,0.318,0.318,0.318,0.318,0.318,0.318,0.318,0.318,0.318,0.318,0.318,0.318,0.318,0.318,0.318,0.318,0.318,0.6056,0.5964,0.6089,0.6043,0.6015,0.6181,0.6428,0.6562,0.6644,0.6783,0.6883,0.6933,0.6983,0.6933,0.6933,0.6933,0.6886,0.6936,0.7033,0.7033,0.7033,0.6681,0.6234,0.5784,0.5634,0.5536,0.4918,0.3794,0.3482,0.3281,0.323,0.3331,0.3331,0.3533,0.3632,0.4031,0.3781,0.3831,0.3831,0.3831,0.3831,0.3632,0.3682,0.3781,0.3632,0.3682,0.4081,0.4131,0.4131,0.4081,0.4031,0.393,0.388,0.3831,0.3831,0.3781,0.3481,0.323,0.318,0.318,0.3331,0.3632,0.3581,0.3632,0.3981,0.4182,0.4031,0.3831,0.393,0.4031,0.418,0.393,0.3981,0.3981,0.4029,0.393,0.4081,0.4182,0.428,0.418,0.3831,0.3581,0.3481,0.318,0.318,0.318,0.318,0.318,0.318,0.318,0.318,0.318,0.318,0.318,0.318,0.318,0.318,0.318,0.318,0.318,0.318,0.318,0.318,0.318,0.318,0.318,0.318,0.318,0.318,0.318,0.318,0.318,0.318,0.318,0.318,0.6377,0.6803,0.6359,0.6185,0.6313,0.6403,0.677,0.74,0.7468,0.7879,0.8276,0.8425,0.8379,0.8379,0.8379,0.8425,0.8425,0.8276,0.8226,0.8177,0.8226,0.8187,0.8237,0.8131,0.7369,0.6944,0.6808,0.5759,0.4525,0.3755,0.3391,0.3649,0.4362,0.464,0.4754,0.5253,0.6024,0.5977,0.5924,0.5874,0.5727,0.5031,0.5131,0.5379,0.5179,0.4933,0.5527,0.5625,0.5675,0.5774,0.5874,0.5974,0.6024,0.6024,0.6024,0.5477,0.4479,0.323,0.343,0.3581,0.3882,0.4481,0.4583,0.5131,0.5377,0.5627,0.5675,0.6024,0.5877,0.5727,0.5625,0.5874,0.5974,0.5774,0.5575,0.5675,0.5774,0.5129,0.5227,0.5377,0.5127,0.4379,0.393,0.3531,0.318,0.318,0.323,0.3381,0.3531,0.3781,0.3281,0.323,0.3781,0.388,0.3432,0.3381,0.3381,0.3331,0.323,0.323,0.318,0.318,0.318,0.318,0.323,0.323,0.318,0.318,0.318,0.318,0.318,0.318,0.318,0.318,0.318,0.7699,0.7827,0.7692,0.7631,0.7627,0.7654,0.7921,0.8216,0.8276,0.8474,0.8726,0.8775,0.8775,0.8874,0.8775,0.8775,0.8775,0.8882,0.8775,0.8882,0.8889,0.8927,0.8794,0.856,0.8177,0.8064,0.7556,0.6848,0.5815,0.5552,0.5348,0.5339,0.5752,0.5987,0.5933,0.6329,0.6435,0.6398,0.6371,0.6371,0.6271,0.6027,0.5929,0.6373,0.5927,0.6077,0.6323,0.642,0.642,0.642,0.642,0.642,0.6371,0.6371,0.6371,0.6274,0.5627,0.5079,0.5077,0.4977,0.5229,0.5527,0.5729,0.5927,0.6321,0.647,0.647,0.6371,0.6371,0.647,0.652,0.642,0.642,0.647,0.6719,0.6672,0.6623,0.642,0.6171,0.6321,0.642,0.5774,0.5279,0.5179,0.4979,0.4728,0.4828,0.4929,0.5129,0.5327,0.4431,0.3232,0.4031,0.4828,0.4131,0.3732,0.3731,0.3682,0.3381,0.3331,0.323,0.318,0.3381,0.3281,0.323,0.323,0.323,0.318,0.318,0.318,0.318,0.318,0.318,0.318,0.318,0.9074,0.9147,0.8916,0.875,0.8646,0.8769,0.892,0.9076,0.9122,0.9225,0.9369,0.9464,0.9468,0.9434,0.9561,0.9677,0.9468,0.9462,0.9482,0.9482,0.9502,0.9694,0.979,0.9434,0.9127,0.8846,0.8927,0.8355,0.8114,0.7862,0.7699,0.7118,0.7119,0.7249,0.7297,0.757,0.7779,0.7598,0.749,0.7425,0.7322,0.6974,0.7024,0.7074,0.6974,0.6924,0.7173,0.7273,0.7322,0.7372,0.7422,0.7521,0.7471,0.7521,0.7521,0.7475,0.7223,0.7223,0.6924,0.6672,0.6623,0.6772,0.712,0.7422,0.7372,0.7173,0.722,0.7471,0.7422,0.7372,0.722,0.7319,0.7471,0.7521,0.7468,0.7273,0.7179,0.7397,0.759,0.7819,0.7872,0.7621,0.7273,0.7223,0.6921,0.647,0.642,0.647,0.647,0.6473,0.5727,0.4381,0.488,0.5625,0.5177,0.458,0.4431,0.4232,0.3932,0.3984,0.4237,0.3984,0.3883,0.3732,0.354,0.323,0.318,0.318,0.318,0.318,0.318,0.318,0.318,0.318,0.318,1.0228,1.0907,0.9456,0.8867,0.8894,0.8768,0.927,0.992,0.992,1.031,1.0752,1.0949,1.0801,1.0941,1.0902,1.0966,1.0967,1.1202,1.1066,1.1139,1.1313,1.1207,1.1111,1.1018,1.0884,1.0745,1.0485,1.0297,1.0226,0.9973,0.8947,0.7461,0.8289,0.8443,0.8657,0.9053,0.9293,0.9142,0.9033,0.9004,0.8794,0.8485,0.8273,0.8825,0.8474,0.8322,0.9225,0.9092,0.8985,0.8981,0.8924,0.8924,0.8775,0.8825,0.8825,0.8825,0.8825,0.8825,0.8623,0.7723,0.7173,0.7822,0.8538,0.8947,0.8825,0.9191,0.929,0.9065,0.8846,0.9045,0.9172,0.9335,0.8957,0.8822,0.8697,0.8743,0.8743,0.8872,0.9107,0.9298,0.9164,0.8825,0.874,0.861,0.8105,0.7593,0.7322,0.7372,0.6971,0.6921,0.6623,0.6027,0.6224,0.6423,0.6271,0.5974,0.5777,0.5577,0.5277,0.5536,0.5847,0.5443,0.4764,0.4626,0.454,0.3856,0.3332,0.3635,0.3687,0.3332,0.318,0.318,0.318,0.318,0.318,1.0875,1.1145,1.0502,1.0256,1.0256,1.0261,1.0453,1.0708,1.0752,1.09,1.1194,1.1194,1.1194,1.126,1.1411,1.1482,1.143,1.1609,1.168,1.1704,1.1728,1.1831,1.1897,1.1877,1.176,1.1638,1.1639,1.1404,1.0879,1.1046,1.0568,0.9745,0.9585,0.9705,0.9979,0.9966,1.0072,1.0094,0.9888,0.9786,0.9662,0.9371,0.9175,0.9426,0.95,0.9257,0.9565,0.9692,0.9709,0.9661,0.9644,0.9648,0.9644,0.964,0.9636,0.9628,0.9624,0.9632,0.964,0.8783,0.8623,0.8847,0.9456,0.9754,0.9701,0.9811,0.9855,0.9817,0.988,0.9904,0.9949,0.9906,0.9824,0.9961,0.9941,0.992,0.9904,0.988,0.988,0.9758,0.987,0.9784,0.9832,0.9875,0.9256,0.8674,0.8443,0.8177,0.7839,0.7637,0.7494,0.7378,0.7471,0.7241,0.7045,0.7086,0.7126,0.6942,0.6698,0.6888,0.708,0.6537,0.6004,0.5811,0.5716,0.5342,0.4957,0.451,0.4142,0.3685,0.3383,0.318,0.318,0.318,0.318,1.1194,1.1194,1.1194,1.1194,1.1194,1.1194,1.1194,1.1194,1.1194,1.1194,1.1194,1.1194,1.1241,1.1331,1.151,1.1614,1.1661,1.1803,1.1888,1.1917,1.1935,1.1991,1.2109,1.2135,1.207,1.2041,1.1946,1.1664,1.1055,1.1126,1.0777,1.0609,1.0684,1.054,1.0451,1.0343,1.0245,1.0201,1.0075,1.002,0.9949,0.9817,0.9756,0.9819,0.987,0.9817,0.9819,0.986,0.9868,0.9803,0.9762,0.9762,0.973,0.9697,0.9677,0.9648,0.9632,0.9599,0.9689,0.9705,0.9705,0.9638,0.9829,0.9884,0.9892,1.0022,1.0038,1.0002,1.0135,1.022,1.0224,1.0171,1.0155,1.0071,1.0075,1.0067,1.0075,1.0063,1.0083,1.0091,1.0184,1.0175,1.0167,1.0139,0.9884,0.9446,0.9333,0.912,0.8887,0.8721,0.8689,0.861,0.8623,0.8254,0.7829,0.8159,0.8405,0.8551,0.8303,0.8102,0.8032,0.7583,0.7288,0.7202,0.7047,0.6875,0.644,0.5847,0.4908,0.3939,0.3638,0.3338,0.318,0.318,0.318,1.1194,1.1194,1.1194,1.1194,1.1194,1.1194,1.1194,1.1198,1.1217,1.1222,1.1236,1.1241,1.135,1.1524,1.1723,1.1756,1.1865,1.1977,1.2081,1.2076,1.2186,1.2222,1.2311,1.2387,1.2338,1.2064,1.2019,1.1784,1.1181,1.1186,1.1004,1.0835,1.0741,1.0704,1.0668,1.0521,1.044,1.04,1.0241,1.0172,1.0148,1.0103,1.0067,1.0071,1.0123,1.0067,1.0016,1.0059,1.0038,0.988,0.9989,0.9973,0.9855,0.9872,0.9823,0.9705,0.9685,0.9742,0.986,0.9876,0.99,0.9912,1.0046,1.0159,1.018,1.0228,1.0253,1.018,1.0269,1.0269,1.0245,1.0245,1.0273,1.0294,1.031,1.0318,1.0331,1.0339,1.0363,1.0327,1.0294,1.0228,1.0233,1.0233,1.0253,1.0116,1.0156,1.0011,0.9713,0.961,0.9485,0.9466,0.938,0.9252,0.8994,0.9411,0.9729,0.9904,0.9744,0.9302,0.9112,0.8884,0.8689,0.8548,0.8325,0.8052,0.7577,0.699,0.6098,0.5184,0.396,0.3495,0.3337,0.3243,0.3256,1.1194,1.1194,1.1194,1.1194,1.1194,1.1194,1.1194,1.1222,1.1335,1.1411,1.1444,1.1539,1.1633,1.177,1.186,1.1973,1.202,1.218,1.2283,1.2302,1.2465,1.2465,1.254,1.2631,1.2595,1.2334,1.2255,1.2075,1.1507,1.1346,1.1141,1.0986,1.0886,1.0806,1.0757,1.0704,1.0749,1.0599,1.0448,1.0339,1.0331,1.0245,1.0233,1.0245,1.0286,1.0249,1.0151,1.0245,1.0197,0.9998,1.0115,1.0103,0.9985,0.9985,1.0086,0.9977,0.9973,1.0053,1.0151,1.0148,1.018,1.0176,1.0221,1.0286,1.0249,1.0408,1.042,1.04,1.0424,1.0456,1.0521,1.0521,1.0534,1.0542,1.055,1.0546,1.055,1.055,1.0558,1.0566,1.0517,1.0497,1.0485,1.0497,1.0501,1.0412,1.0437,1.029,0.9983,1.0015,0.9951,0.9947,0.9931,0.9987,1.0102,1.0063,1.0119,1.0189,1.014,0.9987,0.9869,0.9899,0.9904,0.9695,0.9509,0.9218,0.8859,0.8408,0.7478,0.6482,0.5498,0.4702,0.4558,0.399,0.3318,1.1194,1.1194,1.1194,1.1241,1.1302,1.1307,1.134,1.1406,1.1491,1.1553,1.1638,1.1761,1.186,1.1897,1.2015,1.2156,1.2203,1.2455,1.255,1.2583,1.2772,1.2772,1.2814,1.2899,1.2876,1.2631,1.2443,1.2252,1.192,1.1612,1.1304,1.1073,1.0996,1.0947,1.0867,1.0923,1.1001,1.0863,1.0741,1.0639,1.0586,1.0489,1.0367,1.0396,1.0436,1.044,1.0359,1.0355,1.0391,1.0209,1.0188,1.0241,1.0168,1.0164,1.0277,1.0193,1.0229,1.0237,1.0294,1.042,1.0428,1.0387,1.0473,1.0456,1.0441,1.055,1.0582,1.059,1.0647,1.0672,1.0692,1.0704,1.0737,1.0737,1.0781,1.0773,1.0834,1.083,1.0761,1.0773,1.0716,1.0729,1.0789,1.0838,1.0846,1.0724,1.0657,1.0498,1.0298,1.0282,1.0314,1.029,1.0233,1.0225,1.0233,1.0253,1.0322,1.0428,1.0448,1.0456,1.0577,1.0588,1.0715,1.0834,1.0457,1.0229,1.0245,0.9776,0.8996,0.8251,0.7458,0.6643,0.6006,0.5079,0.4162,1.1194,1.1194,1.1194,1.1321,1.1491,1.151,1.1628,1.1784,1.1633,1.1666,1.1831,1.186,1.1987,1.2071,1.2109,1.2227,1.2446,1.2658,1.2734,1.2828,1.2989,1.3008,1.3027,1.3069,1.3012,1.2885,1.2663,1.2339,1.2221,1.1719,1.1343,1.1109,1.1023,1.1004,1.1017,1.109,1.1139,1.1033,1.0944,1.0838,1.0761,1.0737,1.0639,1.0643,1.068,1.0623,1.057,1.0582,1.055,1.0509,1.055,1.0521,1.0427,1.0387,1.0331,1.0294,1.0375,1.0416,1.0465,1.0599,1.0635,1.0595,1.0672,1.0688,1.0664,1.0655,1.0651,1.0676,1.0712,1.0716,1.0729,1.0785,1.0838,1.0891,1.0964,1.1021,1.1106,1.1074,1.0976,1.0903,1.0798,1.0814,1.0956,1.1033,1.107,1.098,1.0863,1.0785,1.0643,1.053,1.0493,1.0453,1.0449,1.0396,1.0428,1.0546,1.0635,1.0773,1.0838,1.0879,1.107,1.1131,1.107,1.1057,1.1155,1.1049,1.0815,1.0755,1.0632,0.9886,0.8989,0.784,0.6905,0.6221,0.5441,1.1194,1.1194,1.1194,1.1316,1.152,1.1671,1.177,1.1822,1.185,1.1949,1.2001,1.2147,1.2208,1.2297,1.2302,1.2484,1.2616,1.2809,1.2866,1.2999,1.315,1.3154,1.3164,1.3178,1.3053,1.2855,1.2596,1.2413,1.2125,1.1686,1.1312,1.1031,1.1023,1.1057,1.1098,1.1191,1.1135,1.1074,1.0997,1.0923,1.0871,1.083,1.0773,1.0769,1.0915,1.083,1.0729,1.0802,1.0733,1.0534,1.0619,1.0607,1.0403,1.0542,1.057,1.0562,1.0599,1.0619,1.0627,1.0668,1.0716,1.0765,1.0822,1.0789,1.0745,1.0724,1.0729,1.0757,1.0834,1.0875,1.0907,1.0956,1.1021,1.1098,1.1155,1.1204,1.1273,1.124,1.1139,1.1013,1.0907,1.1001,1.1143,1.1212,1.1232,1.1179,1.1118,1.1045,1.096,1.0834,1.0761,1.0668,1.0692,1.0729,1.0854,1.0976,1.1041,1.1114,1.1147,1.1171,1.1224,1.1252,1.1232,1.1261,1.1325,1.1277,1.1098,1.1122,1.1102,1.111,1.0303,0.9011,0.788,0.7359,0.6572,1.1194,1.1194,1.1194,1.1364,1.1642,1.186,1.193,1.2063,1.2071,1.2118,1.2217,1.2321,1.2382,1.2372,1.2382,1.2502,1.2621,1.288,1.2984,1.2942,1.3249,1.3255,1.3197,1.3183,1.3097,1.285,1.2643,1.2499,1.2099,1.1578,1.118,1.1056,1.0974,1.1028,1.1057,1.1094,1.1057,1.1009,1.0956,1.0895,1.0875,1.085,1.0798,1.0867,1.1062,1.096,1.0863,1.0972,1.0858,1.0647,1.0745,1.0818,1.0716,1.0806,1.0903,1.0903,1.0911,1.0919,1.0923,1.0915,1.0911,1.0923,1.0997,1.0997,1.0972,1.0952,1.0895,1.0871,1.0984,1.1074,1.111,1.1155,1.1236,1.1321,1.1346,1.137,1.1374,1.137,1.1265,1.1131,1.1139,1.1228,1.1313,1.1378,1.1399,1.1354,1.1305,1.1244,1.1167,1.1066,1.1025,1.098,1.1045,1.1118,1.1236,1.1281,1.1281,1.1293,1.1325,1.1354,1.1386,1.1443,1.1484,1.148,1.1476,1.1415,1.1354,1.133,1.1313,1.1305,1.1149,1.006,0.925,0.9033,0.8076,1.1194,1.1198,1.1231,1.1477,1.1817,1.1982,1.218,1.2349,1.2165,1.2194,1.2349,1.2382,1.2382,1.2382,1.2387,1.2507,1.2658,1.2866,1.3017,1.2875,1.3145,1.3264,1.3165,1.3112,1.3022,1.2965,1.281,1.2451,1.2071,1.1534,1.1122,1.1072,1.0877,1.0806,1.0923,1.0944,1.094,1.0984,1.0968,1.0944,1.0923,1.0854,1.0806,1.0956,1.1013,1.0988,1.1009,1.1041,1.1062,1.0936,1.0952,1.1078,1.107,1.1074,1.1155,1.1175,1.1139,1.1139,1.1131,1.1126,1.1151,1.1175,1.1232,1.1196,1.1155,1.1114,1.1045,1.1041,1.1143,1.1228,1.1277,1.1358,1.1443,1.15,1.1529,1.1561,1.1585,1.1537,1.1419,1.1317,1.133,1.1423,1.1508,1.1569,1.1581,1.1537,1.15,1.1443,1.139,1.1309,1.1273,1.1269,1.1342,1.1395,1.139,1.1427,1.1435,1.1455,1.1492,1.1545,1.1585,1.1667,1.182,1.1691,1.1614,1.1606,1.1565,1.1533,1.1484,1.1427,1.1203,1.0786,1.0439,1.0293,0.9524,1.1194,1.1227,1.1539,1.1737,1.1836,1.1996,1.2198,1.2358,1.217,1.2203,1.2358,1.2382,1.2382,1.2382,1.2387,1.2495,1.2833,1.2833,1.3008,1.3036,1.3188,1.3107,1.3089,1.297,1.2862,1.2772,1.2598,1.2266,1.1867,1.1375,1.1017,1.0857,1.0747,1.08,1.0865,1.0869,1.0863,1.0988,1.1033,1.1029,1.1069,1.109,1.1135,1.1151,1.1143,1.1057,1.107,1.111,1.0984,1.0826,1.1062,1.1159,1.1167,1.1204,1.122,1.1224,1.1244,1.1256,1.1281,1.1285,1.1281,1.1301,1.1317,1.1305,1.1277,1.1244,1.1232,1.1244,1.1293,1.1378,1.1435,1.1529,1.161,1.165,1.1695,1.1796,1.1837,1.1675,1.1561,1.1549,1.1541,1.1598,1.1683,1.1719,1.174,1.1732,1.1715,1.1683,1.1658,1.1593,1.152,1.1524,1.1606,1.1638,1.1598,1.1569,1.1577,1.161,1.165,1.1711,1.1768,1.1772,1.1837,1.1837,1.18,1.1707,1.1695,1.1715,1.1658,1.1573,1.1494,1.1217,1.1252,1.1185,1.0421,1.1194,1.1227,1.1439,1.1652,1.1822,1.195,1.2109,1.233,1.2264,1.2278,1.2372,1.2382,1.2382,1.2382,1.2387,1.2471,1.28,1.2786,1.2781,1.2885,1.3051,1.2932,1.2843,1.2776,1.2701,1.2611,1.2362,1.2064,1.1728,1.1514,1.124,1.1076,1.097,1.0898,1.0951,1.0937,1.0903,1.1078,1.1147,1.1196,1.1167,1.1183,1.1187,1.1179,1.1143,1.1066,1.1078,1.1102,1.098,1.0854,1.0972,1.1143,1.1179,1.1216,1.1269,1.1325,1.1366,1.1378,1.1427,1.1439,1.1407,1.1431,1.1508,1.1537,1.1439,1.1403,1.1358,1.1378,1.1516,1.161,1.1468,1.1496,1.1561,1.161,1.1695,1.182,1.1772,1.1727,1.1679,1.1679,1.1675,1.1683,1.1744,1.1748,1.1824,1.1824,1.1772,1.1784,1.1784,1.1821,1.1764,1.1756,1.1825,1.1797,1.1711,1.1703,1.1719,1.182,1.1877,1.1788,1.1792,1.178,1.1837,1.1837,1.1837,1.1828,1.1828,1.1837,1.1837,1.1699,1.1711,1.1736,1.1841,1.1849,1.1207,1.1194,1.1194,1.1236,1.1563,1.199,1.2029,1.2422,1.2866,1.2832,1.2778,1.2708,1.2708,1.2599,1.2387,1.2387,1.2405,1.2517,1.263,1.2606,1.2724,1.2857,1.2795,1.272,1.2635,1.2573,1.2412,1.2178,1.2055,1.1946,1.1678,1.1514,1.1463,1.1351,1.1194,1.126,1.1182,1.109,1.1265,1.139,1.1524,1.1415,1.1244,1.1269,1.1224,1.1106,1.1009,1.1066,1.1049,1.0992,1.0915,1.0895,1.1135,1.1273,1.1338,1.1411,1.148,1.1537,1.1606,1.1683,1.1699,1.1638,1.1622,1.1723,1.1711,1.1602,1.1557,1.1512,1.1537,1.1679,1.1703,1.1561,1.1508,1.1569,1.1622,1.1715,1.1824,1.1756,1.1788,1.1817,1.1825,1.1841,1.1837,1.1817,1.1817,1.1805,1.1861,1.1792,1.1801,1.1825,1.1894,1.1906,1.1935,1.2004,1.1943,1.1882,1.1882,1.1918,1.1947,1.1987,1.189,1.1813,1.1801,1.1849,1.1837,1.1837,1.1853,1.1841,1.1837,1.1837,1.1821,1.1837,1.1849,1.1845,1.1841,1.1849,1.1194,1.1208,1.1383,1.2102,1.3079,1.3203,1.392,1.5081,1.4907,1.4554,1.397,1.3792,1.3413,1.2441,1.2382,1.2429,1.2587,1.2611,1.2781,1.2956,1.301,1.2802,1.2856,1.3173,1.2602,1.2559,1.254,1.211,1.2377,1.2001,1.1468,1.1316,1.1368,1.1272,1.1101,1.1171,1.1363,1.1496,1.1714,1.1841,1.1792,1.1687,1.1654,1.152,1.1293,1.1273,1.1256,1.1126,1.0928,1.0822,1.0895,1.1208,1.1382,1.1464,1.1508,1.1606,1.1667,1.1695,1.1748,1.1801,1.174,1.1675,1.1744,1.1772,1.1711,1.1719,1.1663,1.1589,1.1695,1.176,1.1683,1.1679,1.1775,1.174,1.1801,1.1744,1.1707,1.1861,1.1987,1.2032,1.2085,1.2044,1.1987,1.1967,1.1926,1.191,1.1861,1.1878,1.1979,1.2016,1.2048,1.2125,1.219,1.2219,1.2207,1.2146,1.2158,1.2178,1.2158,1.2073,1.1963,1.1833,1.1813,1.1886,1.1849,1.1833,1.1817,1.1886,1.1906,1.1947,1.1825,1.1801,1.1882,1.1935,1.1918]},{"header":{"parameterUnit":"m.s-1","parameterCategory":1,"la1":31.0,"la2":29.5877,"lo1":-88.7671,"lo2":-86.6584,"dy":0.0162,"dx":0.0185,"nx":115,"ny":88,"refTime":"2023-08-18T06:00:00:Z","depth":0,"parameterNumber":3,"parameterNumberName":"V-component_of_WINDS"},"data":[0.0,0.0,0.0,0.0,0.0,0.0,0.0,0.0,0.0,0.0,0.0,0.0,0.0,0.0,0.0,0.0,0.0,0.0,0.0,0.0,0.0,0.0,0.0,0.0,0.0,0.0,0.0,0.0,0.0,0.0,0.0,0.0,0.0,0.0,0.0,0.0,0.0,0.0,0.0,0.0,0.0,0.0,0.0,0.0,0.0,0.0,0.0,0.0,0.0,0.0,0.0,0.0,0.0,0.0,0.0,0.0,0.0,0.0,0.0,0.0,0.0,0.0,0.0,0.0,0.0,0.0,0.0,0.0,0.0,0.0,0.0,0.0,0.0,0.0,0.0,0.0,0.0,0.0,0.0,0.0,0.0,0.0,0.0,0.0,0.0,0.0,0.0,0.0,0.0,0.0,0.0,0.0,0.0,0.0,0.0,0.0,0.0,0.0,0.0,0.0,0.0,0.0,0.0,0.0,0.0,0.0,0.0,0.0,0.0,0.0,0.0,0.0,0.0,0.0,0.0,0.0,0.0,0.0,0.0,0.0,0.0,0.0,0.0,0.0,0.0,0.0,0.0,0.0,0.0,0.0,0.0,0.0,0.0,0.0,0.0,0.0,0.0,0.0,0.0,0.0,0.0,0.0,0.0,0.0,0.0,0.0,0.0,0.0,0.0,0.0,0.0,0.0,0.0,0.0,0.0,0.0,0.0,0.0,0.0,0.0,0.0,0.0,0.0,0.0,0.0,0.0,0.0,0.0,0.0,0.0,0.0,0.0,0.0,0.0,0.0,0.0,0.0,0.0,0.0,0.0,0.0,0.0,0.0,0.0,0.0,0.0,0.0,0.0,0.0,0.0,0.0,0.0,0.0,0.0,0.0,0.0,0.0,0.0,0.0,0.0,0.0,0.0,0.0,0.0,0.0,0.0,0.0,0.0,0.0,0.0,0.0,0.0,0.0,0.0,0.0,0.0,0.0,0.0,0.0,0.0,0.0,0.0,0.0,0.0,0.0,0.0,0.0,0.0,0.0,0.0,0.0,0.0,0.0,0.0,0.0,0.0,0.0,0.0,0.0,0.0,0.0,0.0,0.0,0.0,0.0,0.0,0.0,0.0,0.0,0.0,0.0,0.0,0.0,0.0,0.0,0.0,0.0,0.0,0.0,0.0,0.0,0.0,0.0,0.0,0.0,0.0,0.0,0.0,0.0,0.0,0.0,0.0,0.0,0.0,0.0,0.0,0.0,0.0,0.0,0.0,0.0,0.0,0.0,0.0,0.0,0.0,0.0,0.0,0.0,0.0,0.0,0.0,0.0,0.0,0.0,0.0,0.0,0.0,0.0,0.0,0.0,0.0,0.0,0.0,0.0,0.0,0.0,0.0,0.0,0.0,0.0,0.0,0.0,0.0,0.0,0.0,0.0,0.0,0.0,0.0,0.0,0.0,0.0,0.0,0.0,0.0,0.0,0.0,0.0,0.0,0.0,0.0,0.0,0.0,0.0,0.0,0.0,0.0,0.0,0.0,0.0,0.0,0.0,0.0,0.0,0.0,0.0,0.0,0.0,0.0,0.0,0.0,0.0,0.0,0.0,0.0,0.0,0.0,0.0,0.0,0.0,0.0,0.0,0.0,0.0,0.0,0.0,0.0,0.0,0.0,0.0,0.0,0.0,0.0,0.0,0.0,0.0,0.0,0.0,0.0,0.0,0.0,0.0,0.0,0.0,0.0,0.0,0.0,0.0,0.0,0.0,0.0,0.0,0.0,0.0,0.0,0.0,0.0,0.0,0.0,0.0,0.0,0.0,0.0,0.0,0.0,0.0,0.0,0.0,0.0,0.0,0.0,0.0,0.0,0.0,0.0,0.0,0.0,0.0,0.0,0.0,0.0,0.0,0.0,0.0,0.0,0.0,0.0,0.0,0.0,0.0,0.0,0.0,0.0,0.0,0.0,0.0,0.0,0.0,0.0,0.0,0.0,0.0,0.0,0.0,0.0,0.0,0.0,0.0,0.0,0.0,0.0,0.0,0.0,0.0,0.0,0.0,0.0,0.0,0.0,0.0,0.0,0.0,0.0,0.0,0.0,0.0,0.0,0.0,0.0,0.0,0.0,0.0,0.0,0.0,0.0,0.0,0.0,0.0,0.0,0.0,0.0,0.0,0.0,0.0,0.0,0.0,0.0,0.0,0.0,0.0,0.0,0.0,0.0,0.0,0.0,0.0,0.0,0.0,0.0,0.0,0.0,0.0,0.0,0.0,0.0,0.0,0.0,0.0,0.0,0.0,0.0,0.0,0.0,0.0,0.0,0.0,0.0,0.0,0.0,0.0,0.0,0.0,0.0,0.0,0.0,0.0,0.0,0.0,0.0,0.0,0.0,0.0,0.0,0.0,0.0,0.0,0.0,0.0,0.0,0.0,0.0,0.0,0.0,0.0,0.0,0.0,0.0,0.0,0.0,0.0,0.0,0.0,0.0,0.0,0.0,0.0,0.0,0.0,0.0,0.0,0.0,0.0,0.0,0.0,0.0,0.0,0.0,0.0,0.0,0.0,0.0,0.0,0.0,0.0,0.0,0.0,0.0,0.0,0.0,0.0,0.0,0.0,0.0,0.0,0.0,0.0,0.0,0.0,0.0,0.0,0.0,0.0,0.0,0.0,0.0,0.0,0.0,0.0,0.0,0.0,0.0,0.0,0.0,0.0,0.0,0.0,0.0,0.0,0.0,0.0,0.0,0.0,0.0,0.0,0.0,0.0,0.0,0.0,0.0,0.0,0.0,0.0,0.0,0.0,0.0,0.0,0.0,0.0,0.0,0.0,0.0,0.0,0.0,0.0,0.0,0.0,0.0,0.0,0.0,0.0,0.0,0.0,0.0,0.0,0.0,0.0,0.0,0.0,0.0,0.0,0.0,0.0,0.0,0.0,0.0,0.0,0.0,0.0,0.0,0.0,0.0,0.0,0.0,0.0,0.0,0.0,0.0,0.0,0.0,0.0,0.0,0.0,0.0,0.0,0.0,0.0,0.0,0.0,0.0,0.0,0.0,0.0,0.0,0.0,0.0,0.0,0.0,0.0,0.0,0.0,0.0,0.0,0.0,0.0,0.0,0.0,0.0,0.0,0.0,0.0,0.0,0.0,0.0,0.0,0.0,0.0,0.0,0.0,0.0,0.0,0.0,0.0,0.0,0.0,0.0,0.0,0.0,0.0,0.0,0.0,0.0,0.0,0.0,0.0,0.0,0.0,0.0,0.0,0.0,0.0,0.0,0.0,0.0,0.0,0.0,0.0,0.0,0.0,0.0,0.0,0.0,0.0,0.0,0.0,0.0,0.0,0.0,0.0,0.0,0.0,0.0,0.0,0.0,0.0,0.0,0.0,0.0,0.0,0.0,0.0,0.0,0.0,0.0,0.0,0.0,0.0,0.0,0.0,0.0,0.0,0.0,0.0,0.0,0.0,0.0,0.0,0.0,0.0,0.0,0.0,0.0,0.0,0.0,0.0,0.0,0.0,0.0,0.0,0.0,0.0,0.0,0.0,0.0,0.0,0.0,0.0,0.0,0.0,0.0,0.0,0.0,0.0,0.0,0.0,0.0,0.0,0.0,0.0,0.0,0.0,0.0,0.0,0.0,0.0,0.0,0.0,0.0,0.0,0.0,0.0,0.0,0.0,0.0,0.0,0.0,0.0,0.0,0.0,0.0,0.0,0.0,0.0,0.0,0.0,0.0,0.0,0.0,0.0,0.0,0.0,0.0,0.0,0.0,0.0,0.0,0.0,0.0,0.0,0.0,0.0,0.0,0.0,0.0,0.0,0.0,0.0,0.0,0.0,0.0,0.0,0.0,0.0,0.0,0.0,0.0,0.0,0.0,0.0,0.0,0.0,0.0,0.0,0.0,0.0,0.0,0.0,0.0,0.0,0.0,0.0,0.0,0.0,0.0,0.0,0.0,0.0,0.0,0.0,0.0,0.0,0.0,0.0,0.0,0.0,0.0,0.0,0.0,0.0,0.0,0.0,0.0,0.0,0.0,0.0,0.0,0.0,0.0,0.0,0.0,0.0,0.0,0.0,0.0,0.0,0.0,0.0,0.0,0.0,0.0,0.0,0.0,0.0,0.0,0.0,0.0,0.0,0.0,0.0,0.0,0.0,0.0,0.0,0.0,0.0,0.0,0.0,0.0,0.0,0.0,0.0,0.0,0.0,0.0,0.0,0.0,0.0,0.0,0.0,0.0,0.0,0.0,0.0,0.0,0.0,0.0,0.0,0.0,0.0,0.0,0.0,0.0,0.0,0.0,0.0,0.0,2.9214,0.0,0.0,0.0,0.0,0.0,0.0,0.0,0.0,0.0,0.0,0.0,0.0,0.0,0.0,0.0,0.0,0.0,0.0,0.0,0.0,0.0,0.0,0.0,0.0,0.0,0.0,0.0,0.0,0.0,0.0,0.0,0.0,0.0,0.0,0.0,0.0,0.0,0.0,0.0,0.0,0.0,0.0,0.0,0.0,0.0,0.0,0.0,0.0,0.0,0.0,0.0,0.0,0.0,0.0,0.0,0.0,0.0,0.0,0.0,0.0,0.0,0.0,0.0,0.0,0.0,0.0,0.0,0.0,0.0,0.0,0.0,0.0,0.0,0.0,0.0,0.0,0.0,0.0,0.0,0.0,0.0,0.0,0.0,0.0,0.0,0.0,0.0,0.0,0.0,0.0,0.0,0.0,0.0,0.0,0.0,0.0,0.0,0.0,0.0,0.0,0.0,0.0,0.0,0.0,0.0,0.0,0.0,0.0,0.0,0.0,3.0813,2.9933,3.0823,3.0511,2.8714,0.0,0.0,0.0,0.0,0.0,0.0,0.0,0.0,0.0,0.0,0.0,0.0,0.0,0.0,0.0,0.0,0.0,0.0,0.0,0.0,0.0,0.0,0.0,0.0,0.0,0.0,0.0,0.0,0.0,0.0,0.0,0.0,0.0,0.0,0.0,0.0,0.0,0.0,0.0,0.0,0.0,0.0,0.0,0.0,0.0,0.0,0.0,0.0,0.0,0.0,0.0,0.0,0.0,0.0,0.0,0.0,0.0,0.0,0.0,0.0,0.0,0.0,0.0,0.0,0.0,0.0,0.0,0.0,0.0,0.0,0.0,0.0,0.0,0.0,0.0,0.0,0.0,0.0,0.0,0.0,0.0,0.0,0.0,0.0,0.0,0.0,0.0,0.0,0.0,0.0,0.0,0.0,0.0,0.0,0.0,0.0,0.0,0.0,0.0,0.0,0.0,0.0,0.0,0.0,0.0,0.0,0.0,0.0,0.0,0.0,0.0,0.0,3.1174,3.09,2.839,0.0,0.0,0.0,0.0,0.0,0.0,0.0,0.0,0.0,0.0,0.0,0.0,0.0,0.0,0.0,0.0,0.0,0.0,0.0,0.0,0.0,0.0,0.0,0.0,0.0,0.0,0.0,0.0,0.0,0.0,0.0,0.0,0.0,0.0,0.0,0.0,0.0,0.0,0.0,0.0,0.0,0.0,0.0,0.0,0.0,0.0,0.0,0.0,0.0,0.0,0.0,0.0,0.0,0.0,0.0,0.0,0.0,0.0,0.0,0.0,0.0,0.0,0.0,0.0,0.0,0.0,0.0,0.0,0.0,0.0,0.0,0.0,0.0,0.0,0.0,0.0,0.0,0.0,0.0,0.0,0.0,0.0,0.0,0.0,0.0,0.0,0.0,0.0,0.0,0.0,0.0,0.0,0.0,0.0,0.0,0.0,0.0,0.0,0.0,0.0,0.0,0.0,0.0,0.0,0.0,0.0,0.0,0.0,0.0,0.0,2.8068,3.0119,2.9673,0.0,2.8956,0.0,0.0,0.0,0.0,0.0,0.0,0.0,0.0,0.0,0.0,0.0,0.0,0.0,0.0,0.0,0.0,0.0,0.0,0.0,0.0,0.0,0.0,0.0,0.0,0.0,0.0,0.0,0.0,0.0,0.0,0.0,0.0,0.0,0.0,0.0,0.0,0.0,0.0,0.0,0.0,0.0,0.0,0.0,0.0,0.0,0.0,0.0,0.0,0.0,0.0,0.0,0.0,0.0,0.0,0.0,0.0,0.0,0.0,0.0,0.0,0.0,0.0,0.0,0.0,0.0,0.0,0.0,0.0,0.0,0.0,0.0,0.0,0.0,0.0,0.0,0.0,0.0,0.0,0.0,0.0,0.0,0.0,0.0,0.0,0.0,0.0,0.0,0.0,0.0,0.0,0.0,0.0,0.0,0.0,0.0,0.0,0.0,0.0,0.0,0.0,0.0,0.0,0.0,0.0,0.0,0.0,0.0,0.0,0.0,0.0,2.7816,2.9205,2.8979,2.8651,0.0,0.0,0.0,0.0,0.0,0.0,0.0,0.0,0.0,0.0,0.0,0.0,0.0,0.0,0.0,0.0,0.0,0.0,0.0,0.0,0.0,0.0,0.0,0.0,0.0,0.0,0.0,0.0,0.0,0.0,0.0,0.0,0.0,0.0,0.0,0.0,0.0,0.0,0.0,0.0,0.0,0.0,0.0,0.0,0.0,0.0,0.0,0.0,0.0,0.0,0.0,0.0,0.0,0.0,0.0,0.0,0.0,0.0,0.0,0.0,0.0,0.0,0.0,0.0,0.0,0.0,0.0,0.0,0.0,0.0,0.0,0.0,0.0,0.0,0.0,0.0,0.0,0.0,0.0,0.0,0.0,0.0,0.0,0.0,0.0,0.0,0.0,0.0,0.0,0.0,0.0,0.0,0.0,0.0,0.0,0.0,0.0,0.0,0.0,0.0,0.0,0.0,0.0,0.0,0.0,0.0,0.0,0.0,0.0,0.0,2.6961,2.7803,2.8649,2.8399,2.8046,2.7689,0.0,0.0,0.0,0.0,0.0,0.0,0.0,0.0,0.0,0.0,0.0,0.0,0.0,0.0,0.0,0.0,0.0,0.0,0.0,0.0,0.0,0.0,0.0,0.0,0.0,0.0,0.0,0.0,0.0,0.0,0.0,0.0,0.0,0.0,0.0,0.0,0.0,0.0,0.0,0.0,0.0,0.0,0.0,0.0,0.0,0.0,0.0,0.0,0.0,0.0,0.0,0.0,0.0,0.0,0.0,0.0,0.0,0.0,0.0,0.0,0.0,0.0,0.0,0.0,0.0,0.0,0.0,0.0,0.0,0.0,0.0,0.0,0.0,0.0,0.0,0.0,0.0,0.0,0.0,0.0,0.0,0.0,0.0,0.0,0.0,0.0,0.0,0.0,0.0,0.0,0.0,0.0,0.0,0.0,0.0,0.0,0.0,0.0,0.0,0.0,0.0,0.0,0.0,0.0,0.0,0.0,0.0,0.0,2.9017,2.7773,2.7746,2.9179,2.7858,2.7169,0.0,0.0,0.0,0.0,0.0,0.0,0.0,0.0,0.0,0.0,0.0,0.0,0.0,0.0,0.0,0.0,0.0,0.0,0.0,0.0,0.0,0.0,0.0,0.0,0.0,0.0,0.0,0.0,0.0,0.0,0.0,0.0,0.0,0.0,0.0,0.0,0.0,0.0,0.0,0.0,0.0,0.0,0.0,0.0,0.0,0.0,0.0,0.0,0.0,0.0,0.0,0.0,0.0,0.0,0.0,0.0,0.0,0.0,0.0,0.0,0.0,0.0,0.0,0.0,0.0,0.0,0.0,0.0,0.0,0.0,0.0,0.0,0.0,0.0,0.0,0.0,0.0,0.0,0.0,0.0,0.0,0.0,0.0,0.0,0.0,0.0,0.0,0.0,0.0,0.0,0.0,0.0,0.0,0.0,0.0,0.0,0.0,0.0,0.0,0.0,0.0,0.0,0.0,0.0,0.0,0.0,0.0,0.0,0.0,2.6252,2.6581,2.7582,2.9216,2.7754,2.7195,0.0,0.0,0.0,0.0,0.0,0.0,0.0,0.0,0.0,0.0,0.0,0.0,0.0,0.0,0.0,0.0,0.0,0.0,0.0,0.0,0.0,0.0,0.0,0.0,0.0,0.0,0.0,0.0,0.0,0.0,0.0,0.0,0.0,0.0,0.0,0.0,0.0,0.0,0.0,0.0,0.0,0.0,0.0,0.0,0.0,0.0,0.0,0.0,0.0,0.0,0.0,0.0,0.0,0.0,0.0,0.0,0.0,0.0,0.0,0.0,0.0,0.0,0.0,0.0,0.0,0.0,0.0,0.0,0.0,0.0,0.0,0.0,0.0,0.0,0.0,0.0,0.0,0.0,0.0,0.0,0.0,0.0,0.0,0.0,0.0,0.0,0.0,0.0,0.0,0.0,0.0,0.0,0.0,0.0,0.0,0.0,0.0,0.0,0.0,0.0,0.0,0.0,0.0,0.0,0.0,0.0,0.0,0.0,0.0,2.5514,0.0,2.8189,2.8642,2.7582,2.6964,0.0,0.0,0.0,0.0,0.0,0.0,0.0,0.0,0.0,0.0,0.0,0.0,0.0,0.0,0.0,0.0,0.0,0.0,0.0,0.0,0.0,0.0,0.0,0.0,0.0,0.0,0.0,0.0,0.0,0.0,0.0,0.0,0.0,0.0,0.0,0.0,0.0,0.0,0.0,0.0,0.0,0.0,0.0,0.0,0.0,0.0,0.0,0.0,0.0,0.0,0.0,0.0,0.0,0.0,0.0,0.0,0.0,0.0,0.0,0.0,0.0,0.0,0.0,0.0,0.0,0.0,0.0,0.0,0.0,0.0,0.0,0.0,0.0,0.0,0.0,0.0,0.0,0.0,0.0,0.0,0.0,0.0,0.0,0.0,0.0,0.0,0.0,0.0,0.0,0.0,0.0,0.0,0.0,0.0,0.0,0.0,0.0,0.0,0.0,0.0,0.0,0.0,0.0,0.0,0.0,0.0,0.0,0.0,2.5362,2.746,2.9431,2.9386,2.7429,2.7266,2.6304,0.0,0.0,0.0,0.0,0.0,0.0,0.0,0.0,0.0,0.0,0.0,0.0,0.0,0.0,0.0,0.0,0.0,0.0,0.0,0.0,0.0,0.0,0.0,0.0,0.0,0.0,0.0,0.0,0.0,0.0,0.0,0.0,0.0,0.0,0.0,0.0,0.0,0.0,0.0,0.0,0.0,0.0,0.0,0.0,0.0,0.0,0.0,0.0,0.0,0.0,0.0,0.0,0.0,0.0,0.0,0.0,0.0,0.0,0.0,0.0,0.0,0.0,0.0,0.0,0.0,0.0,0.0,0.0,0.0,0.0,0.0,0.0,0.0,0.0,0.0,0.0,0.0,0.0,0.0,0.0,0.0,0.0,0.0,0.0,0.0,0.0,0.0,0.0,0.0,0.0,0.0,0.0,0.0,0.0,0.0,0.0,0.0,0.0,0.0,0.0,0.0,0.0,0.0,0.0,0.0,0.0,0.0,0.0,0.0,2.5494,2.6573,2.7633,2.8487,2.6542,2.5973,0.0,0.0,0.0,0.0,0.0,0.0,0.0,0.0,0.0,0.0,0.0,0.0,0.0,0.0,0.0,0.0,0.0,0.0,0.0,0.0,0.0,0.0,0.0,0.0,0.0,0.0,0.0,0.0,0.0,0.0,0.0,0.0,0.0,0.0,0.0,0.0,0.0,0.0,0.0,0.0,0.0,0.0,0.0,0.0,0.0,0.0,0.0,0.0,0.0,0.0,0.0,0.0,0.0,0.0,0.0,0.0,0.0,0.0,0.0,0.0,0.0,0.0,0.0,0.0,0.0,0.0,0.0,0.0,0.0,0.0,0.0,0.0,0.0,0.0,0.0,0.0,0.0,0.0,0.0,0.0,0.0,0.0,0.0,0.0,0.0,0.0,0.0,0.0,0.0,0.0,0.0,0.0,0.0,0.0,0.0,0.0,0.0,0.0,0.0,0.0,0.0,0.0,0.0,0.0,0.0,0.0,0.0,0.0,0.0,2.5383,2.6823,2.7953,2.8608,2.6747,2.6077,2.6793,0.0,0.0,0.0,0.0,0.0,0.0,0.0,0.0,0.0,0.0,0.0,0.0,0.0,0.0,0.0,0.0,0.0,0.0,0.0,0.0,0.0,0.0,0.0,0.0,0.0,0.0,0.0,0.0,0.0,0.0,0.0,0.0,0.0,0.0,0.0,0.0,0.0,0.0,0.0,0.0,0.0,0.0,0.0,0.0,0.0,0.0,0.0,0.0,0.0,0.0,0.0,0.0,0.0,0.0,0.0,0.0,0.0,0.0,0.0,0.0,0.0,0.0,0.0,0.0,0.0,0.0,0.0,0.0,0.0,0.0,0.0,0.0,0.0,0.0,0.0,0.0,0.0,0.0,0.0,0.0,0.0,0.0,0.0,0.0,0.0,0.0,0.0,0.0,0.0,0.0,0.0,0.0,0.0,0.0,0.0,0.0,0.0,0.0,0.0,0.0,0.0,0.0,0.0,0.0,0.0,0.0,0.0,0.0,2.6624,2.9437,2.9892,2.7894,2.7552,2.6501,0.0,0.0,0.0,0.0,0.0,0.0,0.0,0.0,0.0,0.0,0.0,0.0,0.0,0.0,0.0,0.0,0.0,0.0,0.0,0.0,0.0,0.0,0.0,0.0,0.0,0.0,0.0,0.0,0.0,0.0,0.0,0.0,0.0,0.0,0.0,0.0,0.0,0.0,0.0,0.0,0.0,0.0,0.0,0.0,0.0,0.0,0.0,0.0,0.0,0.0,0.0,0.0,0.0,0.0,0.0,0.0,0.0,0.0,0.0,0.0,0.0,0.0,0.0,0.0,0.0,0.0,0.0,0.0,0.0,0.0,0.0,0.0,0.0,0.0,0.0,0.0,0.0,0.0,0.0,0.0,0.0,0.0,0.0,0.0,0.0,0.0,0.0,0.0,0.0,0.0,0.0,0.0,0.0,0.0,0.0,0.0,0.0,0.0,0.0,0.0,0.0,0.0,0.0,0.0,0.0,0.0,0.0,0.0,0.0,2.6708,2.8242,2.8977,2.8841,2.679,2.5876,0.0,0.0,0.0,0.0,0.0,0.0,0.0,0.0,0.0,0.0,0.0,0.0,0.0,0.0,0.0,0.0,0.0,0.0,0.0,0.0,0.0,0.0,0.0,0.0,0.0,0.0,0.0,0.0,0.0,0.0,0.0,0.0,0.0,0.0,0.0,0.0,0.0,0.0,0.0,0.0,0.0,0.0,0.0,0.0,0.0,0.0,0.0,0.0,0.0,0.0,0.0,0.0,0.0,0.0,0.0,0.0,0.0,0.0,0.0,0.0,0.0,0.0,0.0,0.0,0.0,0.0,0.0,0.0,0.0,0.0,0.0,0.0,0.0,0.0,0.0,0.0,0.0,0.0,0.0,0.0,0.0,0.0,0.0,0.0,0.0,0.0,0.0,0.0,0.0,0.0,0.0,0.0,0.0,0.0,0.0,0.0,0.0,0.0,0.0,0.0,0.0,0.0,0.0,0.0,0.0,0.0,0.0,0.0,2.6313,2.6656,2.7542,2.8114,2.8354,2.6775,2.5979,0.0,0.0,0.0,0.0,0.0,0.0,0.0,0.0,0.0,0.0,0.0,0.0,0.0,0.0,0.0,0.0,0.0,0.0,0.0,0.0,0.0,0.0,0.0,0.0,0.0,0.0,0.0,0.0,0.0,0.0,0.0,0.0,0.0,0.0,0.0,0.0,0.0,0.0,0.0,0.0,0.0,0.0,0.0,0.0,0.0,0.0,0.0,0.0,0.0,0.0,0.0,0.0,0.0,0.0,0.0,0.0,0.0,0.0,0.0,0.0,0.0,0.0,0.0,0.0,0.0,0.0,0.0,0.0,0.0,0.0,0.0,0.0,0.0,0.0,0.0,0.0,0.0,0.0,0.0,0.0,0.0,0.0,0.0,0.0,0.0,0.0,0.0,0.0,0.0,0.0,0.0,0.0,0.0,0.0,0.0,0.0,0.0,0.0,0.0,0.0,0.0,0.0,0.0,0.0,0.0,0.0,0.0,0.0,2.6885,2.6616,2.7139,2.7272,2.7015,2.7035,2.6405,0.0,0.0,0.0,0.0,0.0,0.0,0.0,0.0,0.0,0.0,0.0,0.0,0.0,0.0,0.0,0.0,0.0,0.0,0.0,0.0,0.0,0.0,0.0,0.0,0.0,0.0,0.0,0.0,0.0,0.0,0.0,0.0,0.0,0.0,0.0,0.0,0.0,0.0,0.0,0.0,0.0,0.0,0.0,0.0,0.0,0.0,0.0,0.0,0.0,0.0,0.0,0.0,0.0,0.0,0.0,0.0,0.0,0.0,0.0,0.0,0.0,0.0,0.0,0.0,0.0,0.0,0.0,0.0,0.0,0.0,0.0,0.0,0.0,0.0,0.0,0.0,0.0,0.0,0.0,0.0,0.0,0.0,0.0,0.0,0.0,0.0,0.0,0.0,0.0,0.0,0.0,0.0,0.0,0.0,0.0,0.0,0.0,0.0,0.0,0.0,0.0,0.0,0.0,0.0,0.0,0.0,0.0,0.0,2.6097,2.6564,2.6426,2.6297,2.623,2.6236,2.5725,0.0,0.0,0.0,0.0,0.0,0.0,0.0,0.0,0.0,0.0,0.0,0.0,0.0,0.0,0.0,0.0,0.0,0.0,0.0,0.0,0.0,0.0,0.0,0.0,0.0,0.0,0.0,0.0,0.0,0.0,0.0,0.0,0.0,0.0,0.0,0.0,0.0,0.0,0.0,0.0,0.0,0.0,0.0,0.0,0.0,0.0,0.0,0.0,3.6937,0.0,0.0,0.0,0.0,0.0,0.0,0.0,0.0,0.0,0.0,0.0,0.0,0.0,0.0,0.0,0.0,0.0,0.0,0.0,0.0,0.0,0.0,0.0,0.0,0.0,0.0,0.0,0.0,0.0,0.0,0.0,0.0,0.0,0.0,0.0,0.0,0.0,0.0,0.0,0.0,0.0,0.0,0.0,0.0,0.0,0.0,0.0,0.0,0.0,0.0,0.0,0.0,0.0,0.0,0.0,0.0,0.0,0.0,0.0,2.5683,2.6064,2.5707,2.5392,2.5118,2.5821,2.5641,0.0,0.0,0.0,0.0,0.0,0.0,0.0,0.0,0.0,0.0,0.0,0.0,0.0,0.0,0.0,0.0,0.0,0.0,0.0,0.0,0.0,0.0,0.0,0.0,0.0,0.0,0.0,0.0,0.0,0.0,0.0,0.0,0.0,0.0,0.0,0.0,0.0,0.0,0.0,0.0,0.0,0.0,0.0,0.0,0.0,0.0,0.0,0.0,0.0,0.0,0.0,0.0,0.0,0.0,0.0,0.0,0.0,0.0,0.0,0.0,0.0,0.0,0.0,0.0,0.0,0.0,0.0,0.0,0.0,0.0,0.0,0.0,0.0,0.0,0.0,0.0,0.0,0.0,0.0,0.0,0.0,0.0,0.0,0.0,0.0,0.0,0.0,0.0,0.0,0.0,0.0,0.0,0.0,0.0,0.0,0.0,0.0,0.0,0.0,0.0,0.0,0.0,0.0,0.0,0.0,0.0,0.0,2.5874,2.5449,2.5635,2.5212,2.4696,2.4164,2.5564,2.5649,2.4293,0.0,0.0,0.0,0.0,0.0,0.0,0.0,0.0,0.0,0.0,0.0,0.0,0.0,0.0,0.0,0.0,0.0,0.0,0.0,0.0,0.0,0.0,0.0,0.0,0.0,0.0,0.0,0.0,0.0,0.0,0.0,0.0,0.0,0.0,0.0,0.0,0.0,0.0,3.4884,3.5535,0.0,0.0,0.0,0.0,0.0,0.0,0.0,0.0,3.8361,0.0,0.0,0.0,0.0,0.0,0.0,0.0,0.0,0.0,0.0,0.0,0.0,0.0,0.0,0.0,0.0,0.0,0.0,0.0,0.0,0.0,0.0,0.0,0.0,0.0,0.0,0.0,0.0,0.0,0.0,0.0,0.0,0.0,0.0,0.0,0.0,0.0,0.0,0.0,0.0,0.0,0.0,0.0,0.0,0.0,0.0,0.0,0.0,0.0,0.0,0.0,0.0,0.0,0.0,0.0,0.0,2.8362,2.5889,2.5153,2.628,2.5397,2.4864,2.4773,2.5181,2.5053,2.4368,0.0,0.0,0.0,0.0,0.0,0.0,0.0,0.0,0.0,0.0,0.0,0.0,0.0,0.0,0.0,0.0,0.0,0.0,0.0,0.0,0.0,0.0,0.0,0.0,0.0,0.0,0.0,0.0,0.0,0.0,0.0,0.0,0.0,0.0,0.0,0.0,0.0,0.0,0.0,3.7631,3.8526,0.0,0.0,0.0,0.0,0.0,0.0,0.0,0.0,3.9102,0.0,0.0,0.0,0.0,0.0,0.0,0.0,0.0,0.0,0.0,0.0,0.0,0.0,0.0,0.0,0.0,0.0,0.0,0.0,0.0,0.0,0.0,0.0,0.0,0.0,0.0,0.0,0.0,0.0,0.0,0.0,0.0,0.0,0.0,0.0,0.0,0.0,0.0,0.0,0.0,0.0,0.0,0.0,0.0,0.0,0.0,0.0,0.0,0.0,0.0,0.0,0.0,0.0,0.0,0.0,2.7662,2.614,2.5584,2.6279,2.5138,2.4514,2.4582,2.4843,2.4902,0.0,0.0,0.0,0.0,0.0,0.0,0.0,0.0,0.0,0.0,0.0,0.0,0.0,0.0,0.0,0.0,0.0,0.0,0.0,0.0,0.0,0.0,0.0,0.0,0.0,0.0,0.0,0.0,0.0,0.0,0.0,0.0,0.0,0.0,0.0,0.0,0.0,0.0,0.0,0.0,3.7311,3.8436,3.849,0.0,0.0,0.0,0.0,0.0,0.0,3.8594,3.8841,0.0,0.0,0.0,0.0,0.0,0.0,0.0,0.0,0.0,0.0,0.0,0.0,0.0,0.0,0.0,0.0,0.0,0.0,0.0,0.0,0.0,0.0,0.0,0.0,0.0,0.0,0.0,0.0,0.0,0.0,0.0,0.0,0.0,0.0,0.0,0.0,0.0,0.0,0.0,0.0,0.0,0.0,0.0,0.0,0.0,0.0,0.0,0.0,0.0,0.0,0.0,0.0,0.0,0.0,0.0,2.7068,2.6505,2.6312,2.654,2.5455,2.4886,2.497,2.5258,2.5361,0.0,0.0,0.0,0.0,0.0,0.0,0.0,0.0,0.0,0.0,0.0,0.0,0.0,0.0,0.0,0.0,0.0,0.0,0.0,0.0,0.0,0.0,0.0,0.0,0.0,0.0,0.0,0.0,0.0,0.0,0.0,0.0,0.0,0.0,0.0,0.0,0.0,0.0,0.0,0.0,0.0,3.8393,3.8645,3.935,0.0,0.0,0.0,0.0,3.9171,3.9228,0.0,0.0,0.0,0.0,0.0,0.0,0.0,0.0,0.0,0.0,0.0,0.0,0.0,0.0,0.0,0.0,0.0,0.0,0.0,0.0,0.0,0.0,0.0,0.0,0.0,0.0,0.0,0.0,0.0,0.0,0.0,0.0,0.0,0.0,0.0,0.0,0.0,0.0,0.0,0.0,0.0,0.0,0.0,0.0,0.0,0.0,0.0,0.0,0.0,0.0,0.0,0.0,0.0,0.0,0.0,0.0,2.7257,2.6918,2.7152,2.7999,2.7534,2.7285,2.73,2.733,2.6915,0.0,0.0,0.0,0.0,0.0,0.0,0.0,0.0,0.0,0.0,0.0,0.0,0.0,0.0,0.0,0.0,0.0,0.0,0.0,0.0,0.0,0.0,0.0,0.0,0.0,0.0,0.0,0.0,0.0,0.0,0.0,0.0,0.0,0.0,0.0,0.0,0.0,0.0,0.0,0.0,0.0,4.0334,3.8456,3.9068,3.969,0.0,0.0,3.9631,4.0945,4.1418,0.0,0.0,0.0,0.0,0.0,0.0,0.0,0.0,0.0,0.0,0.0,0.0,0.0,0.0,0.0,0.0,0.0,0.0,0.0,0.0,0.0,0.0,0.0,0.0,0.0,0.0,0.0,0.0,0.0,0.0,0.0,0.0,0.0,0.0,0.0,0.0,0.0,0.0,0.0,0.0,0.0,0.0,0.0,0.0,0.0,0.0,0.0,0.0,0.0,0.0,0.0,0.0,0.0,0.0,0.0,2.6205,2.7368,2.7894,2.8237,2.8393,2.762,2.7413,2.791,2.6755,2.6277,0.0,0.0,0.0,0.0,0.0,0.0,0.0,0.0,0.0,0.0,0.0,0.0,0.0,0.0,0.0,0.0,0.0,0.0,0.0,0.0,0.0,0.0,0.0,0.0,0.0,0.0,0.0,0.0,0.0,0.0,0.0,0.0,0.0,0.0,0.0,0.0,0.0,0.0,0.0,0.0,0.0,0.0,3.9772,4.0441,0.0,0.0,0.0,4.0416,4.1059,0.0,0.0,0.0,0.0,0.0,0.0,0.0,0.0,0.0,0.0,0.0,0.0,0.0,0.0,0.0,0.0,0.0,0.0,0.0,0.0,0.0,0.0,0.0,0.0,0.0,0.0,0.0,0.0,0.0,0.0,0.0,0.0,0.0,0.0,0.0,0.0,0.0,0.0,0.0,0.0,0.0,0.0,0.0,0.0,0.0,0.0,0.0,0.0,0.0,0.0,0.0,0.0,0.0,0.0,0.0,0.0,0.0,2.7598,2.8822,2.9235,2.8715,2.7897,2.7679,2.8116,2.6611,0.0,0.0,0.0,0.0,0.0,0.0,0.0,0.0,0.0,0.0,0.0,0.0,0.0,0.0,0.0,0.0,0.0,0.0,0.0,0.0,0.0,0.0,0.0,0.0,0.0,0.0,0.0,3.1751,0.0,0.0,0.0,0.0,0.0,0.0,0.0,0.0,0.0,0.0,0.0,0.0,0.0,0.0,4.0239,4.0825,4.1533,4.2137,0.0,0.0,4.1257,4.1447,4.1136,4.0319,0.0,0.0,0.0,0.0,0.0,0.0,0.0,0.0,0.0,0.0,0.0,0.0,0.0,0.0,0.0,0.0,0.0,0.0,0.0,0.0,0.0,0.0,0.0,0.0,0.0,0.0,0.0,0.0,0.0,0.0,0.0,0.0,0.0,0.0,0.0,0.0,0.0,0.0,0.0,0.0,0.0,0.0,0.0,0.0,0.0,0.0,0.0,0.0,0.0,0.0,0.0,0.0,0.0,0.0,0.0,2.8089,2.9426,2.9871,2.9369,2.9287,2.8936,2.8398,2.8249,2.7643,0.0,0.0,0.0,0.0,0.0,0.0,0.0,0.0,0.0,0.0,0.0,0.0,0.0,0.0,0.0,0.0,0.0,0.0,0.0,0.0,0.0,0.0,0.0,0.0,0.0,0.0,0.0,0.0,0.0,0.0,0.0,0.0,0.0,0.0,0.0,0.0,0.0,0.0,0.0,0.0,0.0,4.0843,4.0894,4.1533,4.2492,0.0,0.0,4.2189,4.293,4.3552,4.2775,3.9186,0.0,0.0,0.0,0.0,0.0,0.0,0.0,0.0,0.0,0.0,0.0,0.0,0.0,0.0,0.0,0.0,0.0,0.0,0.0,0.0,0.0,0.0,0.0,0.0,0.0,0.0,0.0,0.0,0.0,0.0,0.0,0.0,0.0,0.0,0.0,0.0,0.0,0.0,0.0,0.0,0.0,0.0,0.0,0.0,0.0,0.0,0.0,0.0,0.0,0.0,0.0,0.0,0.0,2.8439,2.8132,2.963,3.0059,2.9433,2.9003,2.8674,2.8409,2.7512,2.6809,0.0,0.0,0.0,0.0,0.0,0.0,0.0,0.0,0.0,0.0,0.0,0.0,0.0,0.0,0.0,0.0,0.0,0.0,0.0,0.0,0.0,0.0,0.0,0.0,0.0,0.0,0.0,0.0,3.1984,3.2021,3.2823,0.0,0.0,0.0,0.0,0.0,0.0,0.0,0.0,0.0,0.0,4.1354,4.1557,4.224,0.0,0.0,4.3414,4.2672,4.2499,4.2327,4.124,3.8375,3.7732,0.0,0.0,0.0,0.0,0.0,0.0,0.0,0.0,0.0,0.0,0.0,0.0,0.0,0.0,0.0,0.0,0.0,0.0,0.0,0.0,0.0,0.0,0.0,0.0,0.0,0.0,0.0,0.0,0.0,0.0,0.0,0.0,0.0,0.0,0.0,0.0,0.0,0.0,0.0,0.0,0.0,0.0,0.0,0.0,0.0,0.0,0.0,0.0,0.0,0.0,0.0,0.0,2.919,2.8642,2.9954,3.0144,2.9118,2.8641,2.8194,2.7729,2.6518,2.5871,0.0,0.0,0.0,0.0,0.0,0.0,0.0,0.0,0.0,0.0,0.0,0.0,0.0,0.0,0.0,0.0,0.0,0.0,0.0,0.0,0.0,0.0,0.0,0.0,0.0,0.0,0.0,0.0,3.3073,3.3023,3.4045,0.0,0.0,0.0,0.0,0.0,0.0,0.0,0.0,0.0,0.0,4.1832,4.2159,4.2701,4.3276,4.3888,4.3327,4.2585,4.1809,4.1619,4.0653,3.7944,0.0,0.0,0.0,0.0,0.0,0.0,0.0,0.0,0.0,0.0,0.0,0.0,0.0,0.0,0.0,0.0,0.0,0.0,0.0,0.0,0.0,0.0,0.0,0.0,0.0,0.0,0.0,0.0,0.0,0.0,2.9437,0.0,0.0,0.0,0.0,0.0,0.0,0.0,0.0,0.0,0.0,0.0,0.0,0.0,0.0,0.0,0.0,0.0,0.0,0.0,0.0,0.0,0.0,3.0303,2.9783,3.0583,3.0185,2.8528,2.8409,2.7729,2.6334,2.5524,2.5143,2.5143,0.0,0.0,0.0,0.0,0.0,0.0,0.0,0.0,0.0,0.0,0.0,0.0,0.0,0.0,0.0,0.0,0.0,0.0,0.0,0.0,0.0,0.0,0.0,0.0,0.0,0.0,3.3752,3.3096,3.3243,0.0,0.0,0.0,0.0,0.0,0.0,0.0,0.0,0.0,0.0,4.1416,4.2313,4.261,4.27,4.2894,4.3237,4.2593,4.1809,4.1125,4.2178,4.1861,0.0,0.0,0.0,0.0,0.0,0.0,0.0,0.0,0.0,0.0,0.0,0.0,0.0,0.0,0.0,0.0,0.0,0.0,0.0,0.0,0.0,0.0,0.0,0.0,0.0,0.0,0.0,3.4391,3.4531,0.0,0.0,0.0,0.0,0.0,0.0,0.0,0.0,0.0,0.0,0.0,3.3666,3.4485,0.0,0.0,0.0,0.0,0.0,0.0,0.0,0.0,0.0,0.0,0.0,0.0,3.1239,3.0991,3.1672,3.1213,2.9508,2.9138,2.8068,2.6253,2.5663,2.5363,2.5363,0.0,0.0,0.0,0.0,0.0,0.0,0.0,0.0,0.0,0.0,0.0,0.0,0.0,0.0,0.0,0.0,0.0,0.0,0.0,0.0,0.0,0.0,0.0,0.0,0.0,3.4307,0.0,0.0,0.0,0.0,0.0,0.0,0.0,0.0,0.0,0.0,0.0,3.9878,4.0347,4.1683,4.2528,4.2384,4.28,4.3496,0.0,0.0,0.0,0.0,0.0,0.0,0.0,0.0,0.0,0.0,0.0,0.0,0.0,0.0,4.9554,4.5792,4.4672,4.4232,4.3938,0.0,0.0,0.0,0.0,0.0,0.0,0.0,0.0,0.0,0.0,0.0,0.0,0.0,0.0,3.5503,0.0,3.4729,0.0,0.0,0.0,0.0,0.0,0.0,0.0,0.0,3.5096,3.5479,3.5277,3.6305,3.6342,0.0,3.6141,3.5328,0.0,0.0,0.0,0.0,0.0,0.0,0.0,0.0,3.2116,3.1653,3.1842,3.1247,2.9776,2.9122,2.8065,2.6536,2.5915,2.5522,2.5268,2.5458,2.5892,0.0,0.0,0.0,0.0,0.0,0.0,0.0,0.0,0.0,0.0,0.0,0.0,0.0,0.0,0.0,0.0,0.0,0.0,0.0,0.0,0.0,0.0,0.0,3.5334,0.0,0.0,0.0,0.0,0.0,0.0,0.0,0.0,0.0,3.9517,4.023,4.1029,4.1776,4.2814,4.3409,4.329,0.0,0.0,0.0,0.0,0.0,0.0,0.0,4.2938,4.2762,4.3114,4.4052,4.6052,4.8808,5.0505,4.97,0.0,0.0,4.8323,4.7205,4.6728,4.6507,4.6838,4.7076,4.68,4.6965,4.6929,0.0,0.0,0.0,0.0,0.0,0.0,0.0,0.0,3.5568,3.5662,0.0,3.4904,0.0,0.0,0.0,0.0,0.0,3.5847,0.0,0.0,3.7293,3.7496,3.7459,3.7514,3.7129,3.6505,3.7921,3.8052,3.691,3.5509,0.0,0.0,0.0,0.0,0.0,0.0,3.2948,3.1888,3.1305,3.0386,2.9314,2.8562,2.7809,2.6971,2.6304,2.5619,2.4949,2.6233,2.668,2.6028,2.7489,0.0,0.0,0.0,0.0,0.0,0.0,0.0,0.0,0.0,0.0,0.0,0.0,0.0,0.0,0.0,0.0,0.0,0.0,0.0,0.0,3.5756,0.0,0.0,0.0,0.0,0.0,0.0,0.0,0.0,0.0,0.0,4.1305,4.1844,4.2873,4.4342,0.0,0.0,0.0,0.0,4.4213,4.4653,4.4017,4.3534,4.3701,4.48,4.5193,4.3906,0.0,0.0,4.9476,5.0875,5.1646,5.0912,5.1956,5.3112,5.2968,5.1573,5.0912,5.1499,5.0492,4.9996,5.0527,4.9921,4.9242,3.8391,0.0,0.0,0.0,0.0,3.7453,3.8146,3.9503,3.8687,3.8193,3.7887,3.6922,0.0,0.0,0.0,0.0,0.0,0.0,3.7127,3.7039,3.7635,3.7776,3.7529,3.8083,3.8275,3.8099,3.8541,3.8339,3.7522,3.7362,3.623,3.4234,0.0,0.0,0.0,0.0,3.3547,3.3036,3.2844,3.1951,3.0387,2.9813,2.8544,2.6567,2.6811,2.6603,2.5925,2.6911,2.7402,2.721,2.7596,0.0,0.0,0.0,0.0,0.0,0.0,0.0,0.0,0.0,0.0,0.0,0.0,0.0,0.0,0.0,0.0,0.0,0.0,0.0,3.5844,3.5605,3.5995,0.0,0.0,0.0,0.0,0.0,0.0,0.0,0.0,0.0,4.4196,4.3148,4.247,0.0,0.0,4.3885,4.3998,4.3815,4.4328,4.6131,4.5692,0.0,4.6732,4.6078,4.5761,4.6769,4.8311,4.9417,4.9572,5.0435,5.0875,5.0106,5.0784,5.1481,5.1499,5.1628,5.1499,5.1242,5.1187,5.1355,5.1536,5.1022,5.038,3.9399,3.7653,3.7594,3.7886,3.8381,3.8099,3.8419,3.9026,3.8543,3.8267,3.8077,3.7064,3.6492,3.6331,3.5764,0.0,0.0,0.0,3.7745,3.7687,3.8132,3.8225,3.8036,3.8511,3.878,3.8837,3.8851,3.8641,3.8233,3.8449,3.7669,3.5953,0.0,0.0,3.4038,3.472,3.4682,3.3925,3.3606,3.2776,3.1388,3.0467,2.9083,2.7285,2.7496,2.7473,2.7048,2.7455,2.776,2.7855,2.7803,2.8166,0.0,0.0,0.0,0.0,0.0,0.0,0.0,0.0,0.0,0.0,0.0,3.4009,3.4491,0.0,0.0,0.0,3.4821,3.5353,3.6229,3.6119,0.0,0.0,0.0,0.0,0.0,0.0,0.0,4.2594,4.3284,4.3909,4.4604,4.38,4.3344,4.3863,4.3951,4.4085,4.4397,0.0,4.5076,4.6837,4.6434,4.6361,4.759,4.654,4.6172,4.8011,4.8728,4.9225,4.9555,4.9756,4.9738,4.9664,4.9976,5.0435,5.0747,5.1206,5.1408,5.093,5.1187,5.1499,5.1518,5.1132,5.0729,3.9663,3.8977,3.886,3.8437,3.7933,3.8419,3.7879,3.6598,3.6588,3.6955,3.7547,3.6132,3.6464,3.8033,3.779,0.0,3.8135,3.8214,3.8373,3.8631,3.8631,3.8621,3.8604,3.8586,3.8667,3.8707,3.8722,3.875,3.8789,3.8803,3.8311,3.7371,3.7649,3.7418,3.668,3.6687,3.5994,3.4513,3.3763,3.3016,3.2204,3.0626,2.9412,2.8612,2.8295,2.8143,2.8112,2.7897,2.7869,2.8116,2.8115,2.8282,2.8619,0.0,0.0,0.0,0.0,0.0,0.0,0.0,0.0,0.0,0.0,0.0,0.0,0.0,0.0,0.0,3.4646,0.0,3.6364,3.711,0.0,0.0,0.0,3.9642,4.0697,4.1549,4.2089,4.2253,0.0,0.0,4.3557,4.4038,4.4875,4.6126,4.5335,4.4962,4.5679,4.5662,4.603,4.6765,4.6287,4.6085,4.6838,4.6397,4.6415,4.7776,4.8161,4.8457,4.9046,4.8733,4.8548,4.8989,4.932,4.9523,5.0311,5.0314,5.0478,5.0352,5.064,5.0839,5.0857,5.0655,5.0251,4.1393,4.064,4.0644,3.9849,3.8589,3.875,3.8959,3.9159,3.8888,3.884,3.8969,3.8314,3.7914,3.7737,3.8018,3.8178,3.8279,3.86,3.8486,3.8038,3.7962,3.763,3.7072,3.7054,3.7082,3.7151,3.7151,3.7173,3.7236,3.7236,3.7129,3.6891,3.6962,3.6655,3.603,3.5644,3.5152,3.4495,3.3719,3.2955,3.2172,3.0626,2.9702,2.9484,2.8797,2.8415,2.8397,2.835,2.8337,2.8402,2.8298,2.8657,2.9579,2.9127,0.0,0.0,0.0,0.0,0.0,0.0,0.0,0.0,0.0,3.5165,3.3899,0.0,3.544,0.0,3.5678,3.6644,3.7428,3.7869,0.0,0.0,4.0199,4.0747,4.181,4.2678,4.3538,4.4429,4.484,4.5258,4.5677,4.5121,4.4808,4.5132,4.4787,4.4543,4.4733,4.4575,4.473,4.5473,4.5343,4.5278,4.5993,4.6263,4.638,4.6789,4.7027,4.7226,4.7413,4.7319,4.718,4.7171,4.7306,4.7448,4.7545,4.7605,4.777,4.7903,4.9344,5.082,5.0802,4.9793,4.882,4.0382,4.022,3.9914,3.9259,3.8453,3.9143,3.9499,3.9572,3.9347,3.9035,3.8699,3.8653,3.8377,3.7945,3.8407,3.8597,3.8597,3.8848,3.851,3.7771,3.7724,3.7281,3.655,3.655,3.6572,3.6639,3.6639,3.6666,3.6686,3.6718,3.6904,3.7238,3.7238,3.7244,3.7254,3.6611,3.6371,3.6545,3.505,3.3876,3.3096,3.1518,3.0705,3.0656,2.9399,2.8889,2.9247,2.8778,2.8729,2.9217,2.9148,2.9593,3.0681,3.0583,3.0735,0.0,0.0,0.0,0.0,0.0,0.0,0.0,0.0,0.0,0.0,0.0,3.6051,3.6443,3.7038,3.7729,3.8538,3.8733,3.925,4.0231,4.0657,4.1312,4.2403,4.3262,4.4173,4.5171,4.5277,4.5449,4.5889,4.5418,4.5023,4.5004,4.4887,4.4695,4.4481,4.4564,4.4875,4.5289,4.5223,4.5094,4.5259,4.5385,4.5624,4.5938,4.587,4.5838,4.6161,4.5969,4.5779,4.5988,4.6188,4.636,4.6529,4.67,4.6784,4.6982,4.7961,4.8895,4.899,4.8285,4.7636,3.8732,3.9203,3.8624,3.8389,3.848,3.9625,3.9716,3.9031,3.8923,3.8435,3.7746,3.8113,3.8259,3.8259,3.8789,3.8927,3.8759,3.883,3.8349,3.7461,3.7424,3.7026,3.6303,3.6284,3.6324,3.637,3.6383,3.637,3.6402,3.6495,3.6909,3.7559,3.7708,3.8218,3.9082,3.8311,3.8228,3.8915,3.6779,3.5287,3.4513,3.2964,3.2054,3.1894,3.0175,2.949,3.0042,2.9247,2.9217,3.0196,3.0295,3.0674,3.1501,3.2255,3.2293,0.0,3.2256,0.0,0.0,0.0,0.0,0.0,0.0,0.0,0.0,3.6143,3.6522,3.83,3.8479,3.8804,3.9488,3.9587,3.975,4.0065,4.0629,4.1502,4.2812,4.3482,4.4227,4.5192,4.5298,4.5309,4.5347,4.5328,4.5298,4.5298,4.5277,4.5098,4.4707,4.5043,4.5388,4.55,4.5458,4.5105,4.4641,4.4491,4.4758,4.5289,4.5095,4.4775,4.5504,4.5065,4.4775,4.5359,4.5556,4.5782,4.644,4.6529,4.6572,4.6525,4.6666,4.6797,4.6937,4.6814,4.6648,4.0618,4.0193,4.0692,4.0877,4.0877,4.051,3.9907,3.9135,3.8786,3.834,3.7872,3.7928,3.7933,3.795,3.872,3.8697,3.8016,3.8081,3.7328,3.5918,3.5918,3.5491,3.4686,3.4655,3.4668,3.468,3.4661,3.468,3.468,3.538,3.5807,3.5974,3.6606,3.7783,3.9283,0.0,0.0,0.0,3.7021,3.6389,3.6179,3.4606,3.3447,3.2748,3.1173,0.0,2.9593,2.9968,3.0291,3.0539,3.1094,0.0,0.0,0.0,0.0,0.0,0.0,0.0,0.0,0.0,0.0,0.0,3.7009,3.6571,3.6906,3.7439,3.817,3.9176,3.9479,3.9648,3.9818,4.0036,4.0433,4.1093,4.0768,4.1312,4.3433,4.334,4.3627,4.5177,4.539,4.5371,4.539,4.54,4.539,4.539,4.538,4.532,4.5222,4.5079,4.496,4.4947,4.4861,4.4636,4.4435,4.4599,4.477,4.4947,4.5117,4.5163,4.5304,4.5278,4.5019,4.5048,4.5181,4.5304,4.5243,4.5385,4.5654,4.5593,4.5601,4.5827,4.66,4.6273,4.5823,4.0468,0.0,4.044,4.0393,0.0,3.9918,3.9508,3.9114,3.8523,3.8127,3.7894,3.7894,3.8103,3.847,3.8901,3.885,3.8433,3.8066,3.7303,3.626,3.6247,3.585,3.5168,3.5573,3.5555,3.5138,3.513,3.4932,3.4602,3.5371,3.5983,3.6404,3.7242,3.8308,3.9599,3.9105,3.8721,3.8502,3.7689,3.7108,3.6662,3.5174,3.4199,3.3781,3.2289,0.0,0.0,0.0,0.0,0.0,0.0,0.0,0.0,0.0,0.0,3.2724,3.3539,3.4228,3.4582,3.5343,3.6373,3.7742,3.8334,3.8403,3.788,3.8731,3.9456,3.9854,4.0036,4.0089,4.0109,4.0234,4.0471,4.091,4.1321,4.2125,4.3254,4.3858,4.4423,4.517,4.5409,4.5409,4.54,4.5419,4.5419,4.5419,4.54,4.5419,4.5381,4.5199,4.5045,4.5045,4.4934,4.4838,4.485,4.4934,4.5026,4.5068,4.5184,4.5267,4.5277,4.5277,4.5235,4.5098,4.5184,4.5235,4.5109,4.5203,4.5277,4.5277,4.5277,4.5415,4.595,4.5742,4.5458,3.9744,4.0216,3.9562,3.9245,3.9187,3.9227,3.916,3.8984,0.0,0.0,0.0,3.7955,3.8353,3.9021,3.9152,3.9152,3.8984,3.8331,3.7698,3.7081,3.7077,3.681,3.6397,3.707,3.6937,3.6121,3.6102,3.5676,3.4965,3.5846,3.6642,3.7334,3.8291,3.9155,3.977,3.984,3.9652,3.9216,3.8555,3.7902,3.7243,3.5976,3.5166,3.4864,3.3564,3.3029,3.3362,3.2897,3.2916,3.3562,3.3751,3.4083,3.4614,3.4813,3.4823,3.4623,3.4775,3.4879,3.4932,3.5687,3.6658,3.7832,3.9404,3.9939,3.9048,3.9795,4.032,4.032,4.032,4.0309,4.0316,4.0316,4.041,4.0618,4.1872,4.2763,4.3166,4.4315,4.5177,4.5418,4.5494,4.5475,4.5475,4.5512,4.5475,4.5494,4.5519,4.5473,4.5455,4.5371,4.5297,4.5297,4.5246,4.5256,4.5277,4.5256,4.5277,4.5267,4.5267,4.5277,4.5277,4.5277,4.5277,4.5267,4.5277,4.5297,4.5297,4.5277,4.5277,4.5277,4.5277,4.5277,4.5277,4.5297,4.5295,3.9389,3.9392,3.9502,3.9529,3.9541,3.9708,3.9393,3.8731,3.8159,3.8039,3.8245,3.8245,3.8413,3.8699,3.9388,3.9331,3.868,3.8577,3.8088,3.7353,3.7334,3.7316,3.7232,3.7346,3.6937,3.614,3.6102,3.5685,3.5116,3.6415,3.7201,3.7495,3.886,3.9694,3.9819,4.0032,4.0002,3.9709,3.9596,3.9482,3.935,3.8485,3.7332,3.593,3.5031,3.3892,3.2612,3.3162,3.3486,3.3618,3.4311,3.4434,3.379,3.4546,3.4658,3.3983,3.467,3.5456,3.6192,3.7056,3.8226,3.979,4.0219,4.0288,4.011,4.0195,4.0317,4.0317,4.0344,4.0389,4.0398,4.0426,4.0722,4.1402,4.1728,4.2418,4.3798,4.4366,4.4913,4.5569,4.5751,4.579,4.574,4.5764,4.5777,4.5754,4.5749,4.5796,4.5696,4.5545,4.5399,4.5369,4.5328,4.5307,4.5329,4.5307,4.5309,4.5277,4.5309,4.5338,4.5329,4.5319,4.5319,4.5317,4.5319,4.5328,4.5328,4.5277,4.5309,4.5319,4.5329,4.5309,4.5319,4.5319,4.5298,3.9796,3.9713,3.9816,3.9821,3.9762,3.9867,3.9441,3.8754,3.8912,3.8777,3.8463,3.8474,3.8756,3.9258,3.9637,3.9599,3.9231,3.8795,3.8468,3.8223,3.827,3.8326,3.8463,3.8882,3.8414,3.722,3.7621,3.6944,3.5551,3.7337,3.814,3.7834,3.9344,3.9975,3.9593,4.0083,4.0302,4.0185,3.9924,3.9599,3.9155,3.8907,3.8204,3.6994,3.6691,3.6233,3.5476,3.5345,3.528,3.528,3.5234,3.5035,3.4644,3.5419,3.5748,3.5404,3.6201,3.6868,3.7228,3.8052,3.9048,4.0292,4.0441,4.0442,4.0403,4.0366,4.0342,4.0362,4.0379,4.0415,4.0468,4.0904,4.1404,4.1805,4.2714,4.3613,4.4355,4.495,4.5369,4.5744,4.5863,4.5881,4.5846,4.5875,4.5892,4.5865,4.5881,4.5878,4.5867,4.5737,4.5646,4.5603,4.5547,4.5505,4.5526,4.551,4.5503,4.5522,4.5522,4.5522,4.5522,4.5513,4.5494,4.5522,4.5513,4.5522,4.5513,4.5503,4.5522,4.5522,4.5503,4.5503,4.5522,4.5522,4.5467,4.0148,4.0101,4.0167,4.0033,3.9851,3.9995,3.9603,3.8964,3.9709,3.9672,3.9099,3.8983,3.9325,3.9916,3.9954,3.9973,3.9878,3.9317,3.9118,3.9256,3.9329,3.9424,3.9596,4.0227,3.9708,3.8488,3.8996,3.8084,3.6269,3.8161,3.9065,3.8738,3.9881,4.0189,3.9592,4.0189,4.0496,4.0481,4.0138,3.966,3.907,3.9021,3.8672,3.8131,3.7794,3.77,3.768,3.6892,3.6423,3.6385,3.5827,3.55,3.5519,3.607,3.6493,3.6724,3.7312,3.7858,3.8238,3.8823,3.9554,4.0419,4.0537,4.0565,4.0578,4.0514,4.0489,4.0489,4.0512,4.0527,4.0668,4.1383,4.1969,4.211,4.3624,4.4593,4.4758,4.542,4.5959,4.5935,4.5959,4.5969,4.5959,4.5964,4.5998,4.6016,4.5992,4.5992,4.5987,4.5993,4.5974,4.5899,4.5801,4.5705,4.5731,4.572,4.5715,4.57,4.5665,4.5669,4.5673,4.5673,4.568,4.5665,4.5673,4.5665,4.568,4.5673,4.5673,4.5657,4.5657,4.5673,4.5665,4.5684,4.5607,4.0158,4.0139,4.0364,4.0106,3.9605,4.0293,4.0099,3.9455,4.0176,4.0512,4.0338,4.0159,4.0159,4.0422,4.0414,4.0414,4.0414,4.0353,4.0295,4.0284,4.0358,4.0365,4.0362,4.0458,4.0035,3.9246,3.9292,3.8433,3.6785,3.8414,3.9619,4.0208,4.0439,4.0454,4.0369,4.0446,4.0496,4.0496,4.0465,4.0391,4.0295,3.9619,3.9242,3.9146,3.7635,3.6815,3.6904,3.6038,3.5635,3.5615,3.5565,3.5507,3.55,3.553,3.5881,3.6637,3.678,3.7447,3.9058,3.9392,3.9853,4.0635,4.0757,4.0767,4.0767,4.0762,4.0761,4.0809,4.08,4.0828,4.0835,4.1645,4.2243,4.2403,4.3782,4.4705,4.4885,4.5522,4.6091,4.6072,4.6192,4.6214,4.6128,4.617,4.624,4.6216,4.6094,4.6116,4.6214,4.6116,4.6094,4.612,4.6,4.5838,4.582,4.5802,4.5803,4.5731,4.5703,4.5722,4.574,4.5734,4.5696,4.5778,4.5719,4.5727,4.5712,4.5688,4.5704,4.5742,4.5727,4.5723,4.5688,4.5712,4.5657,4.0527,4.0519,4.0639,3.9908,3.9005,4.0178,3.9979,3.8845,4.0121,4.0699,4.066,4.0584,4.0523,4.0496,4.0496,4.0496,4.0496,4.0496,4.0496,4.0496,4.0496,4.0496,4.0496,4.0496,4.0099,3.947,3.9863,3.927,3.8122,3.8903,3.9652,3.9981,4.044,4.044,4.0059,4.0421,4.0672,4.0672,4.0692,4.044,3.9913,3.9525,3.9304,3.9188,3.8104,3.7469,3.7392,3.6635,3.6212,3.618,3.5811,3.5552,3.5571,3.6049,3.6502,3.6909,3.7793,3.8866,4.0128,4.0252,4.0412,4.0791,4.0859,4.0929,4.0929,4.0948,4.1165,4.164,4.1653,4.1752,4.2301,4.3147,4.3685,4.3864,4.4871,4.5634,4.5654,4.5967,4.6216,4.6216,4.6271,4.6296,4.6243,4.6271,4.63,4.6223,4.5909,4.5695,4.6163,4.589,4.5558,4.5574,4.5805,4.6056,4.6025,4.6039,4.6012,4.5998,4.5993,4.5998,4.5972,4.5944,4.5927,4.5935,4.5899,4.5874,4.5899,4.5886,4.5886,4.5861,4.5867,4.5886,4.5867,4.5867,4.5822,4.0837,4.0818,4.0599,3.9785,3.8762,3.9959,3.9785,3.8878,4.0186,4.0815,4.0759,4.0805,4.0713,4.0597,4.0584,4.0603,4.0577,4.057,4.0582,4.0582,4.0582,4.0582,4.0582,4.0582,4.0308,3.9962,4.0399,4.0119,3.911,3.9324,3.9708,3.998,4.0519,4.0499,4.0057,4.0538,4.081,4.0806,4.081,4.0398,3.9602,3.9191,3.9013,3.8955,3.8183,3.772,3.772,3.6884,3.6421,3.6408,3.5916,3.563,3.5654,3.6279,3.6859,3.7446,3.8967,4.0185,4.0807,4.0871,4.0883,4.089,4.0997,4.1017,4.1083,4.1287,4.1848,4.2645,4.2841,4.316,4.3432,4.4312,4.4824,4.4908,4.572,4.628,4.628,4.6302,4.63,4.6302,4.63,4.6302,4.6261,4.6105,4.5948,4.6163,4.5382,4.5129,4.5909,4.5617,4.5051,4.5031,4.5556,4.5843,4.5906,4.6081,4.6167,4.6213,4.6187,4.6176,4.6192,4.613,4.608,4.5986,4.6002,4.5977,4.5969,4.598,4.5997,4.6002,4.6002,4.5997,4.5961,4.5997,4.5969,4.0984,4.0864,4.012,3.9728,3.9663,3.9805,3.975,3.9591,4.0555,4.0917,4.0883,4.0848,4.0807,4.0775,4.0775,4.0775,4.0785,4.0777,4.0757,4.0781,4.0767,4.0791,4.0796,4.0796,4.0757,4.0626,4.0723,4.0757,4.0591,4.0008,3.9999,4.0737,4.0863,4.082,4.0712,4.077,4.0795,4.0829,4.0833,4.0353,3.9533,3.8766,3.8442,3.82,3.7491,3.7016,3.6953,3.62,3.5778,3.5758,3.5724,3.5689,3.5713,3.5775,3.6584,3.8127,3.9882,4.089,4.0958,4.1035,4.1078,4.1081,4.108,4.1104,4.1121,4.169,4.2454,4.3489,4.4087,4.4335,4.3944,4.4608,4.5082,4.5121,4.5791,4.6243,4.6302,4.6302,4.6302,4.6302,4.6302,4.6302,4.6282,4.5578,4.5617,4.5734,4.4816,4.433,4.548,4.5382,4.4875,4.4836,4.4953,4.5068,4.5125,4.5586,4.6048,4.6233,4.622,4.6173,4.6142,4.6113,4.6075,4.6056,4.6032,4.6027,4.6007,4.6007,4.6017,4.6022,4.6027,4.6027,4.6042,4.6012,4.5997,4.099,4.0971,4.0659,4.0214,3.9828,4.0838,4.0701,3.9869,4.1146,4.1409,4.0981,4.0972,4.0967,4.092,4.097,4.092,4.0816,4.0799,4.0799,4.0794,4.0794,4.0805,4.081,4.081,4.0866,4.0929,4.0933,4.1253,4.1758,4.151,4.1529,4.1761,4.1819,4.1566,4.11,4.0981,4.1,4.0981,4.0981,4.0318,3.9146,3.9129,3.8544,3.6913,3.6413,3.6168,3.616,3.5872,3.5713,3.5698,3.5787,3.5833,3.5895,3.6401,3.7237,3.841,3.9594,4.0481,4.0972,4.1081,4.1109,4.1109,4.1109,4.1109,4.1148,4.1422,4.1927,4.2825,4.3684,4.4133,4.4699,4.5324,4.5831,4.587,4.6085,4.6302,4.6302,4.6302,4.6302,4.6302,4.6302,4.6302,4.6246,4.6009,4.5734,4.5402,4.4445,4.4135,4.4271,4.3918,4.3432,4.3587,4.4249,4.4797,4.4192,4.4914,4.5554,4.6039,4.6249,4.6208,4.6164,4.6161,4.6144,4.6121,4.6099,4.6095,4.6095,4.6102,4.6102,4.6091,4.6111,4.6093,4.6134,4.6075,4.6066,4.1046,4.1027,4.0773,4.0639,4.0701,4.1497,4.1558,4.1092,4.2182,4.2353,4.1866,4.1618,4.1624,4.1719,4.1339,4.1208,4.1253,4.1049,4.1059,4.1308,4.1328,4.1457,4.1719,4.1739,4.1783,4.1858,4.1861,4.2234,4.2744,4.2825,4.2689,4.2394,4.2396,4.1967,4.1244,4.1109,4.1109,4.1109,4.1109,4.0387,3.9216,3.9235,3.8492,3.669,3.6031,3.5811,3.5795,3.5791,3.5791,3.5801,3.5894,3.6053,3.6408,3.7212,3.8102,3.8921,3.9761,4.0464,4.0992,4.1109,4.1109,4.1109,4.1109,4.1109,4.1109,4.1342,4.1927,4.2747,4.3606,4.4484,4.5267,4.5957,4.629,4.6303,4.6302,4.6302,4.6302,4.6302,4.6305,4.6293,4.6281,4.6262,4.6223,4.5989,4.558,4.4992,4.4035,4.3372,4.3508,4.2981,4.2395,4.2512,4.3666,4.4135,4.4079,4.4607,4.5122,4.5584,4.5893,4.5973,4.6111,4.6138,4.6189,4.6186,4.6177,4.6176,4.618,4.619,4.6193,4.6183,4.6157,4.615,4.6146,4.6111,4.6098,4.1191,4.1094,4.0273,4.0898,4.1992,4.1719,4.2246,4.3301,4.3613,4.3534,4.3122,4.2655,4.2594,4.2984,4.1789,4.1589,4.2037,4.1621,4.1674,4.2215,4.235,4.2779,4.3423,4.3381,4.3381,4.3427,4.3585,4.3626,4.3684,4.3684,4.3333,4.265,4.2648,4.23,4.1208,4.1307,4.119,4.1193,4.1193,4.0642,3.9819,3.9157,3.8357,3.734,3.6593,3.618,3.6066,3.6006,3.6041,3.6142,3.6085,3.6441,3.7258,3.8121,3.8941,3.9663,4.0561,4.1031,4.109,4.1109,4.1109,4.1129,4.1148,4.1211,4.1211,4.1896,4.2696,4.3322,4.4297,4.5231,4.5901,4.6223,4.6284,4.6288,4.6288,4.6291,4.6288,4.6284,4.6291,4.6286,4.625,4.6205,4.6048,4.57,4.5212,4.4763,4.3806,4.3064,4.3514,4.2948,4.2476,4.2613,4.3319,4.3867,4.4079,4.433,4.4707,4.5067,4.5319,4.5495,4.5754,4.5869,4.6125,4.6182,4.6158,4.6149,4.6167,4.6181,4.6193,4.6173,4.6181,4.6183,4.618,4.6151,4.6099,4.1191,4.1172,4.0918,4.1406,4.2402,4.2754,4.3262,4.375,4.4316,4.3926,4.2909,4.2519,4.2245,4.2028,4.189,4.2144,4.2416,4.2667,4.2724,4.2568,4.3011,4.3458,4.3692,4.3726,4.3705,4.3705,4.3705,4.4037,4.4504,4.4584,4.4426,4.4231,4.4153,4.3732,4.2827,4.2319,4.1989,4.1914,4.1404,4.0678,3.9877,3.9554,3.904,3.8279,3.7906,3.7536,3.6929,3.6324,3.6597,3.7633,3.7204,3.7282,3.8141,3.898,3.9527,3.9839,4.062,4.1109,4.1109,4.1129,4.115,4.1229,4.1649,4.1635,4.1362,4.2441,4.3086,4.3105,4.4062,4.5078,4.5351,4.5898,4.6211,4.6303,4.6249,4.623,4.623,4.623,4.623,4.6229,4.6206,4.6205,4.6184,4.5831,4.5498,4.4971,4.4345,4.4092,4.3624,4.2997,4.2746,4.3195,4.3606,4.3953,4.4339,4.4707,4.5012,4.5214,4.5312,4.5292,4.5488,4.582,4.6074,4.6172,4.6152,4.6152,4.6171,4.617,4.6187,4.6187,4.6203,4.6216,4.6225,4.6204,4.6131,4.1367,4.1641,4.1641,4.2324,4.3359,4.3963,4.4141,4.4273,4.5047,4.4421,4.3056,4.282,4.2705,4.2474,4.2415,4.2689,4.3296,4.3905,4.3847,4.3457,4.3859,4.4319,4.4591,4.4665,4.466,4.4663,4.4671,4.4947,4.5435,4.5461,4.5288,4.5015,4.4956,4.451,4.375,4.3203,4.2889,4.2787,4.2362,4.164,4.0898,4.0448,3.9899,3.9137,3.8727,3.8454,3.8141,3.7398,3.7277,3.795,3.7848,3.8082,3.8611,3.932,3.9792,3.9969,4.0579,4.1226,4.15,4.1638,4.1754,4.2087,4.2578,4.2675,4.2363,4.3237,4.3429,4.3605,4.427,4.503,4.5422,4.5845,4.6201,4.6266,4.6226,4.6204,4.6203,4.6199,4.6215,4.6212,4.6206,4.62,4.6199,4.6179,4.5847,4.5123,4.4889,4.4596,4.3853,4.3207,4.3386,4.3679,4.4023,4.4391,4.4788,4.51,4.5373,4.5446,4.5475,4.536,4.5359,4.5846,4.6196,4.6196,4.618,4.6181,4.6182,4.6187,4.619,4.6228,4.6226,4.623,4.6226,4.6221,4.6168,4.1738,4.2421,4.2402,4.3242,4.4588,4.4591,4.46,4.4969,4.5593,4.5007,4.3779,4.3587,4.3874,4.4127,4.3114,4.3353,4.4571,4.4903,4.4955,4.4905,4.5058,4.5383,4.5905,4.5962,4.5942,4.604,4.609,4.617,4.6132,4.6093,4.5793,4.517,4.5093,4.4601,4.4014,4.3779,4.3699,4.3538,4.3483,4.294,4.2218,4.1458,4.0697,3.9877,3.9233,3.9097,3.9351,3.8824,3.8164,3.7722,3.8444,3.8894,3.8951,3.9488,3.996,4.0038,4.0721,4.1539,4.2201,4.2438,4.275,4.3354,4.3606,4.37,4.3563,4.3833,4.4278,4.4572,4.4925,4.5355,4.5959,4.6181,4.6208,4.6208,4.6204,4.6215,4.6199,4.62,4.6206,4.6199,4.6209,4.6199,4.6213,4.6213,4.5823,4.5355,4.5105,4.4773,4.4325,4.3997,4.3786,4.4101,4.4626,4.4847,4.5248,4.5518,4.5774,4.5763,4.5755,4.564,4.5486,4.5913,4.6204,4.6204,4.6206,4.6206,4.6208,4.62,4.6204,4.6216,4.6207,4.6205,4.6209,4.6211,4.619,4.2439,4.3119,4.2517,4.2893,4.3712,4.3209,4.3694,4.4749,4.5043,4.4922,4.4439,4.4458,4.4182,4.3887,4.4085,4.4434,4.493,4.5553,4.5867,4.5856,4.5896,4.597,4.619,4.623,4.623,4.623,4.6229,4.6247,4.6228,4.6204,4.6065,4.589,4.5771,4.5414,4.4699,4.4598,4.4213,4.3609,4.3045,4.2762,4.2433,4.1666,4.1028,4.0794,4.05,4.0168,3.9875,3.9582,3.9408,3.9256,3.998,4.0429,4.0312,4.0565,4.0662,4.0739,4.1498,4.2121,4.2453,4.3017,4.3466,4.37,4.433,4.4321,4.3714,4.4826,4.5184,4.522,4.5415,4.5905,4.6159,4.6209,4.6203,4.62,4.6201,4.6206,4.6203,4.6209,4.62,4.6196,4.6206,4.6199,4.6199,4.6199,4.6098,4.5864,4.5728,4.5689,4.5183,4.4832,4.4618,4.5027,4.5446,4.5501,4.5676,4.5969,4.6125,4.6092,4.6083,4.6047,4.5952,4.6089,4.6203,4.62,4.6212,4.6215,4.6206,4.6209,4.6203,4.6212,4.6197,4.6204,4.621,4.6198,4.6205,4.3266,4.3964,4.3114,4.3237,4.3936,4.3475,4.3424,4.3829,4.4807,4.455,4.3982,4.4443,4.4429,4.4045,4.4501,4.4943,4.5319,4.5831,4.6029,4.6063,4.6063,4.6108,4.6149,4.6158,4.6161,4.6203,4.6196,4.6212,4.621,4.6202,4.6197,4.6173,4.6214,4.593,4.5501,4.544,4.5217,4.4725,4.4198,4.3858,4.3434,4.2982,4.2229,4.1841,4.1587,4.1197,4.0492,4.0356,4.0345,4.0439,4.0794,4.0951,4.0637,4.0944,4.0921,4.0685,4.1653,4.2483,4.299,4.3712,4.4356,4.4725,4.525,4.5145,4.4986,4.5683,4.5887,4.5657,4.5965,4.6141,4.6199,4.6199,4.6199,4.6203,4.6199,4.6199,4.6199,4.6203,4.6199,4.6199,4.6199,4.6199,4.6199,4.6199,4.6199,4.618,4.6121,4.6118,4.602,4.5712,4.5498,4.5751,4.5907,4.5887,4.5887,4.6102,4.6176,4.618,4.618,4.6199,4.6199,4.6199,4.6199,4.6199,4.6199,4.6199,4.6199,4.6199,4.6203,4.6196,4.6215,4.6203,4.6214,4.6206,4.62,4.3942,4.4569,4.37,4.3801,4.4332,4.4394,4.35,4.2916,4.4601,4.4511,4.3389,4.4143,4.4776,4.471,4.4867,4.5143,4.5764,4.5858,4.5896,4.595,4.5982,4.6013,4.6092,4.6106,4.6134,4.6184,4.6191,4.6204,4.6197,4.6206,4.6206,4.6213,4.6209,4.6086,4.5859,4.5988,4.6141,4.579,4.554,4.5134,4.4627,4.4264,4.3526,4.2626,4.2451,4.2156,4.1646,4.1431,4.142,4.1374,4.122,4.0844,4.0314,4.0922,4.1029,4.0947,4.2036,4.3127,4.3705,4.4556,4.531,4.5859,4.605,4.6199,4.6047,4.6141,4.616,4.6063,4.6199,4.6199,4.6199,4.6199,4.6199,4.6199,4.6199,4.6199,4.6199,4.6199,4.6199,4.6199,4.6199,4.6199,4.6199,4.6199,4.6199,4.6199,4.6199,4.6199,4.6199,4.6024,4.5926,4.6043,4.6141,4.616,4.616,4.6199,4.6199,4.6199,4.6199,4.6199,4.6199,4.6199,4.6199,4.6199,4.6199,4.6199,4.6199,4.6199,4.6199,4.6199,4.6196,4.6209,4.6206,4.6203,4.6201,4.3445,4.3542,4.2676,4.2429,4.2579,4.2588,4.2775,4.3118,4.4324,4.4891,4.4987,4.5381,4.549,4.5529,4.5478,4.5699,4.5854,4.588,4.5892,4.5892,4.5898,4.5961,4.6011,4.6068,4.6107,4.6144,4.6174,4.6196,4.6209,4.6209,4.6199,4.6199,4.616,4.5868,4.542,4.5946,4.5829,4.5322,4.5244,4.5244,4.4952,4.4403,4.3893,4.3328,4.327,4.3231,4.3114,4.3056,4.3046,4.2749,4.1922,4.1381,4.1649,4.1914,4.2161,4.2704,4.3517,4.4364,4.4699,4.5303,4.5965,4.6141,4.6199,4.6199,4.6199,4.6199,4.6199,4.6199,4.6199,4.6199,4.6199,4.6199,4.6199,4.6199,4.6199,4.6199,4.6199,4.6199,4.6199,4.6199,4.6199,4.6199,4.6199,4.6199,4.6199,4.6199,4.6199,4.6199,4.6199,4.6199,4.6199,4.6199,4.6199,4.6199,4.6199,4.6199,4.6199,4.6199,4.6199,4.6199,4.6199,4.6199,4.6199,4.6199,4.6199,4.6199,4.6199,4.6199,4.6199,4.6199,4.6199,4.6199,4.6199,4.6199,4.6199,4.3666,4.3227,4.2376,4.199,4.2067,4.2434,4.2647,4.3034,4.4485,4.5162,4.5316,4.5606,4.5807,4.5807,4.5807,4.5808,4.5835,4.5861,4.5861,4.5861,4.5867,4.588,4.5964,4.6042,4.608,4.6142,4.6189,4.6196,4.6199,4.6196,4.6199,4.6199,4.6199,4.6024,4.5595,4.5985,4.5965,4.5673,4.5498,4.5517,4.54,4.5105,4.454,4.4166,4.3854,4.362,4.3562,4.3582,4.3582,4.3387,4.2783,4.2452,4.2783,4.2919,4.3172,4.362,4.4423,4.4851,4.5089,4.5654,4.618,4.6199,4.6199,4.6199,4.6199,4.6199,4.6199,4.6199,4.6199,4.6199,4.6199,4.6199,4.6199,4.6199,4.6199,4.6199,4.6199,4.6199,4.6199,4.6199,4.6199,4.6199,4.6199,4.6199,4.6199,4.6199,4.6199,4.6199,4.6199,4.6199,4.6199,4.6199,4.6199,4.6199,4.6199,4.6199,4.6199,4.6199,4.6199,4.6199,4.6199,4.6199,4.6199,4.6199,4.6199,4.6199,4.6199,4.6199,4.6199,4.6199,4.6199,4.6199,4.6199,4.6199,4.6199,4.3685,4.286,4.2125,4.1874,4.2144,4.2899,4.2995,4.2899,4.4794,4.5413,4.5007,4.5536,4.5807,4.5807,4.5807,4.5807,4.5807,4.5807,4.5814,4.5814,4.5814,4.5861,4.5917,4.5975,4.6061,4.6162,4.6196,4.6196,4.6189,4.6196,4.6199,4.6199,4.6199,4.6141,4.616,4.6199,4.616,4.6063,4.6043,4.6063,4.6102,4.6024,4.565,4.5124,4.4618,4.4263,4.4283,4.4224,4.4108,4.3991,4.3991,4.401,4.3971,4.3835,4.3913,4.403,4.4871,4.5186,4.5361,4.5809,4.6199,4.6199,4.6199,4.6199,4.6199,4.6199,4.6199,4.6199,4.6199,4.6199,4.6199,4.6199,4.6199,4.6199,4.6199,4.6199,4.6199,4.6199,4.6199,4.6199,4.6199,4.6199,4.6199,4.6199,4.6199,4.6199,4.6199,4.6199,4.6199,4.6199,4.6199,4.6199,4.6199,4.6199,4.6199,4.6199,4.6199,4.6199,4.6199,4.6199,4.6199,4.6199,4.6199,4.6199,4.6199,4.6199,4.6199,4.6199,4.6199,4.6199,4.6199,4.6199,4.6199,4.6199,4.6199,4.1951,4.1203,4.1048,4.1396,4.2086,4.2957,4.3634,4.4291,4.5284,4.5729,4.5626,4.5722,4.5807,4.5807,4.5807,4.5807,4.5807,4.5807,4.5807,4.5807,4.5807,4.5841,4.5905,4.5941,4.6002,4.6117,4.6177,4.6185,4.615,4.6177,4.6196,4.6199,4.6199,4.6199,4.6199,4.6199,4.6199,4.6199,4.6199,4.6199,4.6199,4.6176,4.6137,4.5825,4.5572,4.5533,4.5611,4.5689,4.5767,4.5751,4.5751,4.5728,4.5475,4.4988,4.5027,4.5436,4.5709,4.5829,4.5907,4.6043,4.6199,4.6199,4.6199,4.6199,4.6199,4.6199,4.6199,4.6199,4.6199,4.6199,4.6199,4.6199,4.6199,4.6199,4.6199,4.6199,4.6199,4.6199,4.6199,4.6199,4.6199,4.6199,4.6199,4.6199,4.6199,4.6199,4.6199,4.6199,4.6199,4.6199,4.6199,4.6199,4.6199,4.6199,4.6199,4.6199,4.6199,4.6199,4.6199,4.6199,4.6199,4.6199,4.6199,4.6199,4.6199,4.6199,4.6199,4.6199,4.6199,4.6199,4.6199,4.6199,4.6199,4.6199,4.6199,4.1951,4.0913,4.1699,4.2048,4.2241,4.3433,4.4194,4.4671,4.5432,4.5807,4.5807,4.5807,4.5807,4.5807,4.5807,4.5807,4.58,4.5807,4.5807,4.5807,4.5807,4.5822,4.5905,4.5929,4.5986,4.6071,4.6142,4.6204,4.6154,4.6189,4.6196,4.6199,4.6199,4.6199,4.6199,4.6199,4.6192,4.6192,4.6192,4.6192,4.6196,4.6196,4.6196,4.6196,4.6196,4.6199,4.6199,4.6199,4.6176,4.616,4.618,4.6196,4.6059,4.59,4.5748,4.6114,4.6196,4.6199,4.6199,4.6199,4.6199,4.6199,4.6196,4.6199,4.6199,4.6199,4.6189,4.6192,4.6196,4.6199,4.6199,4.6192,4.6199,4.6199,4.6192,4.6192,4.6196,4.6192,4.6189,4.6162,4.6185,4.6185,4.6199,4.6199,4.6199,4.6199,4.6199,4.6199,4.6199,4.6199,4.6199,4.6199,4.6199,4.6199,4.6199,4.6199,4.6199,4.6199,4.6199,4.6199,4.6199,4.6199,4.6199,4.6199,4.6199,4.6199,4.6199,4.6199,4.6199,4.6199,4.6199,4.6199,4.6199,4.6199,4.6199,4.2421,4.1132,4.2653,4.2995,4.2802,4.3982,4.4677,4.4914,4.5474,4.573,4.5715,4.5708,4.57,4.5708,4.5708,4.5708,4.5734,4.5727,4.5692,4.5692,4.5692,4.5725,4.5808,4.5867,4.5886,4.5917,4.6302,4.627,4.6177,4.6192,4.6196,4.6189,4.6189,4.6174,4.6146,4.6074,4.6115,4.6111,4.6111,4.6111,4.6111,4.6146,4.6142,4.6115,4.6146,4.6142,4.6069,4.6065,4.6065,4.6069,4.6074,4.6083,4.6087,4.6111,4.6111,4.6115,4.6158,4.6196,4.6199,4.6199,4.6189,4.6146,4.615,4.6146,4.6078,4.606,4.6074,4.6111,4.6083,4.6074,4.6041,4.6083,4.6078,4.6078,4.6054,4.6083,4.6069,4.606,4.6032,4.6041,4.6111,4.615,4.6158,4.6199,4.6199,4.6199,4.6199,4.6199,4.6199,4.6199,4.6199,4.6199,4.6199,4.6199,4.6199,4.6199,4.6199,4.6199,4.6199,4.6199,4.6199,4.6199,4.6199,4.6199,4.6199,4.6199,4.6199,4.6199,4.6199,4.6199,4.6199,4.6199,4.6199,4.6199,4.6199,4.2671,4.1774,4.2871,4.3666,4.4219,4.4503,4.4962,4.5436,4.5544,4.5554,4.5484,4.5456,4.5485,4.5485,4.5485,4.5456,4.5456,4.5484,4.5493,4.5502,4.5493,4.5559,4.555,4.553,4.5877,4.6121,4.6595,4.648,4.646,4.6411,4.6321,4.636,4.6358,4.6075,4.6201,4.6108,4.5757,4.5783,4.577,4.5777,4.5815,4.5936,4.5925,4.5877,4.59,4.5966,4.584,4.5808,4.5802,4.579,4.5777,4.5764,4.5757,4.5757,4.5757,4.5846,4.5993,4.6196,4.6162,4.615,4.6106,4.6013,4.6022,4.5925,4.5858,4.5828,4.5802,4.5757,4.5796,4.5815,4.5808,4.5777,4.5764,4.579,4.5814,4.5802,4.579,4.5906,4.5875,4.5858,4.5886,4.6003,4.6083,4.6154,4.6199,4.6199,4.6196,4.6185,4.6154,4.6115,4.6192,4.6196,4.6115,4.6087,4.6181,4.6185,4.6185,4.6189,4.6196,4.6196,4.6199,4.6199,4.6199,4.6199,4.6196,4.6196,4.6199,4.6199,4.6199,4.6199,4.6199,4.6199,4.6199,4.6199,4.6199,4.3662,4.2488,4.3902,4.4408,4.4388,4.484,4.521,4.5435,4.5484,4.5447,4.5419,4.541,4.541,4.539,4.541,4.541,4.541,4.5429,4.541,4.5429,4.5467,4.5659,4.6043,4.6186,4.6374,4.6929,4.737,4.7596,4.7359,4.7351,4.7394,4.7317,4.7268,4.7062,4.6636,4.6505,4.6155,4.5884,4.5691,4.5691,4.5705,4.5777,4.5809,4.571,4.579,4.577,4.5717,4.5684,4.5684,4.5684,4.5684,4.5684,4.5691,4.5691,4.5691,4.5724,4.5828,4.5911,4.5892,4.5903,4.5894,4.584,4.5835,4.579,4.5698,4.5677,4.5677,4.5691,4.5691,4.5677,4.567,4.5684,4.5684,4.5677,4.5641,4.5667,4.5675,4.5684,4.5718,4.5698,4.5684,4.579,4.5889,4.59,4.5922,4.5949,4.5938,4.5928,4.5906,4.5863,4.6018,4.6215,4.6074,4.5938,4.6065,4.6138,4.6119,4.6142,4.6185,4.6189,4.6196,4.6199,4.6185,4.6192,4.6196,4.6196,4.6196,4.6199,4.6199,4.6199,4.6199,4.6199,4.6199,4.6199,4.6199,4.4355,4.3502,4.4825,4.5017,4.448,4.5113,4.5362,4.537,4.5341,4.5341,4.5291,4.5251,4.527,4.5357,4.547,4.5526,4.527,4.5491,4.5587,4.5587,4.5682,4.6101,4.656,4.6892,4.7232,4.802,4.8164,4.8306,4.8486,4.8606,4.8613,4.8346,4.799,4.7793,4.741,4.713,4.6799,4.6018,4.5679,4.5591,4.5587,4.5642,4.5634,4.5627,4.5642,4.565,4.5611,4.5595,4.5587,4.5579,4.5571,4.5555,4.5563,4.5555,4.5555,4.5583,4.5603,4.5603,4.565,4.5667,4.5675,4.5653,4.56,4.5571,4.5579,4.5611,4.5584,4.5563,4.5571,4.5579,4.5584,4.5568,4.5563,4.5555,4.5544,4.5595,4.565,4.5734,4.5662,4.5505,4.5516,4.5539,4.5595,4.5603,4.563,4.5677,4.5684,4.5677,4.5677,4.5696,4.5815,4.6022,4.5952,4.5808,4.5881,4.5983,4.6018,4.6056,4.6102,4.6117,4.6114,4.6117,4.6126,4.6138,4.6271,4.6196,4.6199,4.6199,4.6199,4.6199,4.6199,4.6199,4.6199,4.6199,4.6199,4.4303,4.4785,4.5213,4.5352,4.5227,4.5371,4.5311,4.5213,4.5213,4.5106,4.5003,4.4955,4.4991,4.5138,4.563,4.5675,4.5031,4.5778,4.6093,4.6175,4.6234,4.6681,4.7186,4.7488,4.7619,4.7971,4.8548,4.8968,4.9163,4.9573,4.9173,4.8472,4.8555,4.8192,4.7876,4.7683,4.7259,4.6492,4.5937,4.5524,4.5506,4.5505,4.5464,4.54,4.5447,4.5455,4.5341,4.5447,4.5429,4.5409,4.5381,4.5381,4.541,4.54,4.54,4.54,4.54,4.54,4.5419,4.5541,4.5611,4.5524,4.5515,4.5496,4.54,4.5427,4.5407,4.5572,4.5774,4.5735,4.559,4.5378,4.5812,4.5918,4.6081,4.6052,4.6052,4.5908,4.5783,4.5445,4.5552,4.5937,4.6033,4.6177,4.5673,4.5682,4.5587,4.5579,4.5623,4.563,4.5675,4.5777,4.5731,4.5703,4.5705,4.5764,4.5809,4.5834,4.5869,4.5917,4.5958,4.5987,4.6298,4.645,4.6615,4.6402,4.6208,4.6185,4.6201,4.6208,4.6199,4.6199,4.6199,4.6199,4.6199,4.4652,4.4907,4.5042,4.5098,4.5098,4.5117,4.5053,4.5033,4.5003,4.4967,4.4895,4.4895,4.4895,4.516,4.5767,4.6051,4.5843,4.6563,4.6847,4.6942,4.7036,4.7453,4.794,4.8307,4.8517,4.8948,4.9429,4.9644,4.9842,5.0085,4.9989,4.9559,4.9311,4.9069,4.8775,4.8179,4.7638,4.7234,4.6519,4.6042,4.5948,4.555,4.5351,4.5319,4.5922,4.5753,4.5489,4.5842,4.5679,4.5449,4.5373,4.5392,4.5373,4.5354,4.5335,4.5297,4.5277,4.5316,4.5354,4.5448,4.5419,4.5515,4.5712,4.5889,4.564,4.6156,4.6366,4.6434,4.6481,4.6596,4.6806,4.6855,4.6972,4.6863,4.6768,4.6672,4.6596,4.6481,4.6481,4.6407,4.6683,4.704,4.701,4.6961,4.6271,4.5688,4.5552,4.5502,4.562,4.5635,4.5698,4.5618,4.5563,4.5719,4.577,4.5704,4.5638,4.5765,4.5841,4.609,4.6337,4.6515,4.6784,4.6907,4.6978,4.6884,4.6671,4.6304,4.6182,4.6181,4.6204,4.6199,4.6199,4.6199,4.6199,4.4895,4.4895,4.4895,4.4895,4.4895,4.4895,4.4895,4.4895,4.4895,4.4895,4.4895,4.4895,4.5085,4.5445,4.6165,4.6582,4.6771,4.734,4.7681,4.7795,4.787,4.8319,4.8793,4.9129,4.9326,4.9916,4.9999,5.0025,5.0123,5.0188,5.0164,5.018,5.0264,4.9855,4.9435,4.8659,4.82,4.799,4.7398,4.689,4.6806,4.6434,4.6148,4.6194,4.6683,4.6434,4.6194,4.6385,4.6424,4.6118,4.5927,4.5927,4.5774,4.5621,4.5526,4.5392,4.5316,4.5403,4.5583,4.566,4.566,4.5833,4.6492,4.65,4.6538,4.715,4.7226,4.7054,4.7425,4.7826,4.7845,4.7597,4.7521,4.7379,4.7398,4.736,4.7398,4.7341,4.7436,4.7474,4.7654,4.7616,4.7578,4.7444,4.7259,4.6691,4.6654,4.6377,4.5985,4.5937,4.5764,4.562,4.5419,4.5646,4.586,4.5981,4.6195,4.6704,4.6788,4.6843,4.7054,4.7207,4.7352,4.7484,4.7507,4.7414,4.7318,4.7198,4.6696,4.618,4.6224,4.6286,4.6199,4.6199,4.6199,4.4895,4.4895,4.4895,4.4895,4.4895,4.4895,4.4895,4.4914,4.499,4.5009,4.5066,4.5085,4.552,4.6222,4.7018,4.7372,4.7586,4.8262,4.8679,4.8661,4.8875,4.9248,4.9608,4.9912,5.0185,5.0011,5.0303,5.0539,5.0435,5.0455,5.0415,5.0431,5.0531,5.0359,5.0187,4.95,4.9117,4.8926,4.8181,4.7857,4.7742,4.7532,4.736,4.7379,4.7627,4.736,4.6871,4.7322,4.7226,4.6481,4.6997,4.692,4.6366,4.6443,4.6214,4.566,4.5564,4.5831,4.6385,4.6462,4.6577,4.6634,4.7264,4.754,4.7635,4.7865,4.7979,4.7895,4.8056,4.8056,4.7941,4.7941,4.8075,4.817,4.8246,4.8285,4.8342,4.838,4.8495,4.8582,4.817,4.7865,4.7884,4.7884,4.7979,4.7848,4.778,4.7352,4.6696,4.6458,4.6364,4.6268,4.6106,4.6251,4.6541,4.6518,4.6772,4.7354,4.7627,4.7576,4.7712,4.7934,4.8049,4.8173,4.8133,4.812,4.8177,4.8207,4.752,4.6862,4.6433,4.6353,4.6266,4.6371,4.6566,4.4895,4.4895,4.4895,4.4895,4.4895,4.4895,4.4895,4.5009,4.5464,4.5767,4.5899,4.6278,4.6657,4.7207,4.7789,4.8243,4.8433,4.9078,4.9495,4.957,4.9993,4.9993,5.0296,5.0897,5.1228,5.1131,5.1291,5.1534,5.1904,5.1179,5.1044,5.1138,5.094,5.0837,5.0608,5.0359,5.0569,4.9862,4.9156,4.864,4.8602,4.82,4.7884,4.7941,4.8391,4.822,4.7502,4.82,4.7971,4.7035,4.7589,4.7532,4.6978,4.6978,4.7196,4.694,4.692,4.7043,4.7502,4.7742,4.7895,4.7876,4.8086,4.8391,4.796,4.8965,4.9022,4.8926,4.9041,4.9194,4.95,4.95,4.9557,4.9595,4.9633,4.9614,4.9633,4.9633,4.9671,4.971,4.948,4.9385,4.9328,4.9385,4.9404,4.8984,4.8839,4.8151,4.7477,4.7371,4.7324,4.7305,4.7229,4.7237,4.7272,4.7341,4.7608,4.8192,4.8223,4.8015,4.8239,4.893,4.9228,4.9588,4.9207,4.8845,4.8991,4.8931,4.8232,4.7627,4.7338,4.7208,4.734,4.7391,4.7443,4.4895,4.4895,4.4895,4.5085,4.5331,4.535,4.5483,4.5748,4.6089,4.6335,4.6676,4.7169,4.7567,4.794,4.8414,4.8983,4.9172,4.9955,5.0334,5.0467,5.1225,5.1225,5.1395,5.1736,5.1883,5.1863,5.1828,5.2034,5.1891,5.132,5.0988,5.0999,5.1455,5.1226,5.1123,5.1391,5.1754,5.1104,5.0531,5.0054,4.9805,4.9347,4.8774,4.8907,4.9098,4.9117,4.8735,4.8716,4.8888,4.8028,4.7933,4.8181,4.7837,4.7818,4.8094,4.7952,4.8124,4.8162,4.843,4.9022,4.906,4.8869,4.927,4.9194,4.8858,4.9633,4.9786,4.9824,5.0092,5.0206,5.0302,5.0359,5.0512,5.0512,5.0722,5.0684,5.0971,5.0951,5.0627,5.0684,5.0417,5.0474,5.076,5.099,5.1028,5.0455,4.987,4.9125,4.8449,4.8372,4.8266,4.8151,4.8143,4.8105,4.8143,4.8239,4.8563,4.906,4.9156,4.9194,5.0027,5.0903,5.0956,5.0971,5.083,5.0558,5.0076,4.9712,4.9442,4.8978,4.8453,4.8413,4.8477,4.8327,4.818,4.4895,4.4895,4.4895,4.5407,4.6089,4.6165,4.6639,4.7264,4.6657,4.679,4.7453,4.7567,4.8079,4.8642,4.8793,4.9267,4.9917,5.077,5.1073,5.1452,5.2096,5.2172,5.2248,5.2419,5.2433,5.2163,5.1996,5.1893,5.1399,5.1015,5.064,5.0631,5.131,5.1493,5.183,5.2174,5.2403,5.1907,5.1486,5.099,5.0627,5.0512,5.0054,5.0073,5.0245,4.9977,4.9729,4.9786,4.9633,4.9442,4.9633,4.95,4.932,4.9129,4.8602,4.843,4.8812,4.9003,4.9232,4.9862,5.0034,4.9843,5.0206,5.0283,5.0168,5.013,5.0111,5.0225,5.0397,5.0417,5.0474,5.0741,5.099,5.1238,5.1582,5.1849,5.2251,5.2098,5.1639,5.1295,5.0799,5.0875,5.1544,5.1907,5.2079,5.1658,5.1104,5.0741,5.0073,4.9538,4.9366,4.8915,4.8896,4.8907,4.906,4.9614,5.0034,5.0684,5.099,5.1181,5.2079,5.2365,5.2079,5.2021,5.248,5.2263,5.1434,5.1147,5.1113,5.0566,5.0019,4.95,4.9521,4.8903,4.8701,4.4895,4.4895,4.4895,4.5388,4.6203,4.6809,4.7207,4.7416,4.7751,4.8149,4.8357,4.8945,4.9191,4.9551,4.957,5.0069,5.0599,5.1135,5.1604,5.2134,5.2741,5.276,5.2798,5.2854,5.2845,5.2532,5.2213,5.1955,5.2003,5.1383,5.1027,5.1348,5.131,5.1742,5.2212,5.2652,5.2384,5.2098,5.1735,5.1391,5.1142,5.0951,5.0684,5.0665,5.1353,5.0951,5.0474,5.0818,5.0493,4.9557,4.9958,4.9901,4.9205,4.9595,4.9729,4.9691,4.9862,4.9958,4.9996,5.0187,5.0417,5.0646,5.0913,5.076,5.055,5.0455,5.0474,5.0608,5.0971,5.1162,5.1314,5.1544,5.1849,5.2212,5.248,5.2709,5.3034,5.2881,5.2403,5.1811,5.1314,5.1754,5.2422,5.2747,5.2843,5.2594,5.2308,5.1964,5.1563,5.0971,5.0627,5.0187,5.0302,5.0474,5.1066,5.1639,5.1945,5.2289,5.2442,5.2556,5.2805,5.2938,5.2843,5.2977,5.3282,5.3053,5.2492,5.2327,5.2231,5.227,5.1798,5.1106,5.0463,4.9988,4.9921,4.4895,4.4895,4.4895,4.5577,4.6695,4.7567,4.8073,4.8382,4.8642,4.8831,4.9229,4.9646,4.9893,4.9855,4.9893,5.0144,5.0618,5.1419,5.1836,5.1907,5.3139,5.2916,5.293,5.2873,5.2774,5.2513,5.2161,5.1814,5.1889,5.1428,5.0956,5.0923,5.108,5.1608,5.2021,5.2193,5.2021,5.1792,5.1544,5.1257,5.1162,5.1047,5.0799,5.1123,5.204,5.1563,5.1104,5.162,5.1085,5.0092,5.055,5.0894,5.0417,5.0837,5.1295,5.1295,5.1334,5.1372,5.1391,5.1353,5.1334,5.1391,5.1735,5.1735,5.162,5.1525,5.1257,5.1142,5.1677,5.2098,5.227,5.248,5.2862,5.3263,5.3378,5.3492,5.3511,5.3492,5.2996,5.2365,5.2403,5.2824,5.3225,5.3531,5.3626,5.3416,5.3187,5.29,5.2537,5.2059,5.1868,5.1658,5.1964,5.2308,5.2862,5.3072,5.3072,5.3129,5.3282,5.3416,5.3569,5.3836,5.4027,5.4008,5.3989,5.3702,5.3416,5.3301,5.3225,5.3187,5.302,5.2363,5.1798,5.1558,5.1717,4.4895,4.4914,4.5047,4.6032,4.7397,4.8281,4.9078,4.976,4.9021,4.9134,4.976,4.9893,4.9893,4.9893,4.9912,5.0163,5.077,5.1604,5.1969,5.14,5.2722,5.2954,5.2556,5.2347,5.2229,5.2002,5.1618,5.1123,5.1013,5.0717,5.0429,5.02,5.0362,5.0837,5.1391,5.1486,5.1467,5.1677,5.1601,5.1486,5.1391,5.1066,5.0837,5.1544,5.1811,5.1697,5.1792,5.1945,5.204,5.1448,5.1525,5.2117,5.2079,5.2098,5.248,5.2575,5.2403,5.2403,5.2365,5.2346,5.2461,5.2575,5.2843,5.2671,5.248,5.2289,5.1964,5.1945,5.2422,5.2824,5.3053,5.3435,5.3836,5.4104,5.4237,5.439,5.4505,5.4276,5.3722,5.3244,5.3301,5.3741,5.4142,5.4428,5.4486,5.4276,5.4104,5.3836,5.3588,5.3206,5.3034,5.3015,5.3359,5.3607,5.3588,5.376,5.3798,5.3894,5.4065,5.4314,5.4505,5.4887,5.5313,5.5002,5.4639,5.46,5.4409,5.4256,5.4027,5.376,5.3567,5.3314,5.3085,5.2954,5.2999,4.4895,4.5028,4.6278,4.7074,4.7472,4.8338,4.9153,4.9798,4.904,4.9172,4.9798,4.9893,4.9893,4.9893,4.9912,5.0348,5.1471,5.1471,5.2172,5.2286,5.2892,5.257,5.2253,5.1779,5.1585,5.1225,5.0765,5.0364,5.0399,5.0272,5.0212,5.0267,5.029,5.0538,5.0844,5.0863,5.1104,5.1697,5.1907,5.1888,5.1799,5.2174,5.2384,5.2461,5.2422,5.2021,5.2079,5.227,5.1677,5.0932,5.204,5.2499,5.2537,5.2709,5.2785,5.2805,5.29,5.2957,5.3072,5.3091,5.3072,5.3168,5.3244,5.3187,5.3053,5.29,5.2843,5.29,5.3129,5.3531,5.3798,5.4237,5.4619,5.4811,5.5021,5.5199,5.539,5.4925,5.439,5.4333,5.4295,5.4562,5.4963,5.5135,5.5231,5.5193,5.5116,5.4963,5.4849,5.4543,5.4199,5.4218,5.46,5.4753,5.4562,5.4428,5.4467,5.4619,5.4811,5.5097,5.5365,5.5384,5.539,5.539,5.5218,5.5078,5.5021,5.5116,5.4849,5.4448,5.4365,5.4223,5.4395,5.4369,5.4242,4.4895,4.5028,4.588,4.6733,4.7416,4.7927,4.8793,4.9684,4.9419,4.9476,4.9855,4.9893,4.9893,4.9893,4.9912,5.0253,5.1338,5.1282,5.1263,5.1679,5.2343,5.1869,5.1509,5.1244,5.094,5.058,5.028,5.0011,5.005,5.012,5.0182,5.0219,5.0262,5.0458,5.0706,5.0909,5.1295,5.2117,5.2442,5.2671,5.2537,5.2614,5.2633,5.2594,5.2422,5.2059,5.2117,5.2231,5.1658,5.1066,5.162,5.2422,5.2594,5.2766,5.3015,5.3282,5.3473,5.3531,5.376,5.3817,5.3664,5.3779,5.4142,5.4276,5.3817,5.3645,5.3435,5.3531,5.418,5.4619,5.3951,5.4085,5.439,5.4619,5.5021,5.5313,5.5384,5.5174,5.4944,5.4944,5.4925,5.4963,5.525,5.5269,5.5333,5.5333,5.5384,5.5441,5.5441,5.5613,5.5345,5.5307,5.5632,5.5498,5.5097,5.5059,5.5135,5.5313,5.5581,5.546,5.5479,5.5422,5.539,5.539,5.539,5.5352,5.5352,5.539,5.539,5.504,5.5097,5.5212,5.5409,5.5447,5.5082,4.4895,4.4895,4.5066,4.595,4.7212,4.7363,4.8251,4.9528,4.9617,4.9631,4.9811,4.9811,4.9838,4.9912,4.9912,4.9987,5.0201,5.0656,5.0561,5.1035,5.1566,5.1319,5.1016,5.0675,5.0429,5.0247,5.0003,4.9973,4.9999,5.0082,5.012,5.0152,5.0418,5.0753,5.1318,5.1775,5.2174,5.2996,5.3588,5.4218,5.3702,5.29,5.3015,5.2805,5.2251,5.1792,5.2059,5.1983,5.1716,5.1353,5.1257,5.2384,5.3034,5.3339,5.3683,5.4008,5.4276,5.46,5.4963,5.504,5.4753,5.4677,5.5154,5.5097,5.4581,5.4371,5.4161,5.4276,5.4944,5.5059,5.439,5.4142,5.4428,5.4677,5.5116,5.5333,5.5307,5.546,5.5594,5.5632,5.5708,5.5689,5.5594,5.5594,5.5536,5.5504,5.5479,5.5517,5.5632,5.5957,5.6014,5.6148,5.6473,5.6186,5.5899,5.5899,5.6071,5.6205,5.6396,5.5938,5.5575,5.5517,5.5447,5.539,5.539,5.5466,5.5409,5.539,5.539,5.5613,5.539,5.5447,5.5728,5.5708,5.5447,4.4895,4.4952,4.5653,4.6377,4.6963,4.7009,4.7759,4.8756,4.838,4.8549,4.9329,4.9521,4.9625,4.9898,4.9893,5.0082,5.0486,5.058,5.1263,5.1964,5.1225,5.0875,5.0619,5.0255,5.0079,4.9909,4.9833,4.9959,4.9874,4.9986,5.0171,5.0265,5.1014,5.1375,5.1672,5.2277,5.3174,5.4085,5.4817,5.5409,5.5479,5.4982,5.483,5.4199,5.3129,5.3034,5.2957,5.2346,5.141,5.0913,5.1257,5.2728,5.355,5.3932,5.4142,5.46,5.4887,5.5021,5.5269,5.5517,5.5231,5.4925,5.525,5.5384,5.5097,5.5135,5.4868,5.4524,5.5021,5.5326,5.4963,5.4944,5.5103,5.5231,5.5517,5.525,5.5078,5.5804,5.6396,5.6606,5.6855,5.6664,5.6396,5.6301,5.611,5.6033,5.5804,5.588,5.6358,5.653,5.6683,5.7046,5.7351,5.7485,5.7428,5.7141,5.7199,5.7294,5.7199,5.6797,5.6282,5.567,5.5575,5.5919,5.5747,5.567,5.5594,5.5919,5.6014,5.6205,5.5632,5.5517,5.5899,5.6148,5.6071]}]]